GFSNW_500_rhum_009.txt.gz
RH
67 50 10 24 60 59 70 56 54 66 87 89 85 87 98 93 97 96 96 97 98 97 91 96 96 96 58 29 20 11 8 8 6 8 7 11 14 16 17 18 18 26 36 44
58 64 12 17 59 55 62 53 48 48 62 75 79 91 100 94 84 96 98 97 99 99 98 92 94 82 64 35 38 25 17 15 18 18 20 18 18 20 25 33 44 49 54 46
41 66 14 8 45 62 61 57 47 51 60 67 71 67 91 97 91 91 94 93 95 96 97 96 84 83 59 52 39 38 36 31 28 24 30 37 40 48 54 59 64 48 39 30
44 65 27 7 31 66 58 57 53 56 59 60 67 87 91 90 93 96 95 96 94 96 93 95 97 96 94 87 94 88 77 79 77 68 73 69 72 75 68 53 32 30 25 23
60 58 54 4 17 50 70 53 62 73 78 74 82 78 88 89 96 97 97 96 97 97 96 97 97 96 97 97 93 89 90 92 84 84 77 74 60 42 32 25 24 22 26 56
62 55 61 7 10 29 65 49 57 73 90 90 91 93 90 95 95 96 95 79 81 76 70 83 80 79 79 84 81 67 58 47 44 41 34 29 25 25 24 30 42 49 37 26
51 54 61 36 6 22 54 57 50 66 84 96 98 95 91 94 61 55 81 83 49 37 31 30 31 33 35 36 34 34 32 30 30 29 27 26 30 38 56 61 34 27 19 17
34 48 56 67 4 15 36 44 50 43 80 93 94 93 88 75 41 33 42 29 29 24 19 21 23 18 18 17 16 15 15 15 15 19 30 48 57 55 40 28 21 20 16 14
32 42 58 67 42 3 18 32 49 42 41 55 82 86 82 65 46 39 38 23 17 17 21 27 32 46 50 47 47 53 60 67 59 62 58 52 41 30 24 21 17 15 18 22
26 42 57 56 71 21 4 20 36 48 34 35 36 66 66 58 53 44 36 20 16 17 22 30 46 49 72 76 81 80 70 58 46 41 30 26 24 22 20 20 21 23 24 25
24 36 54 70 60 71 11 13 25 40 38 30 31 31 50 58 49 37 36 27 20 13 16 31 64 80 86 85 76 43 37 33 30 28 28 26 24 23 23 23 23 25 27 28
26 27 52 62 70 65 69 25 11 21 39 29 26 23 22 27 44 42 42 31 13 10 17 46 57 78 84 86 58 41 34 33 32 31 32 30 27 27 27 27 29 34 38 39
29 26 30 59 64 67 72 62 49 11 14 20 19 16 15 14 19 21 20 14 14 14 28 62 69 67 59 43 39 35 34 34 32 32 37 37 40 33 34 41 47 47 46 42
33 29 27 30 58 62 63 75 68 62 60 48 38 18 12 11 11 11 16 23 46 76 80 69 60 47 41 37 35 35 35 34 36 38 39 39 47 45 50 51 48 44 42 41
36 32 29 29 30 52 54 53 65 78 68 64 62 67 80 88 88 88 86 85 78 69 61 56 50 44 42 36 36 38 37 38 39 42 43 45 51 54 51 48 46 42 40 38
42 35 31 29 29 30 32 32 46 64 80 77 66 60 52 48 50 58 64 64 64 60 53 49 48 40 37 38 40 37 37 38 41 46 48 51 49 55 55 50 46 41 38 36
50 43 38 34 32 28 28 31 34 47 72 77 77 69 65 60 56 52 50 49 44 42 39 37 36 37 36 37 42 39 40 41 40 40 48 60 69 65 61 54 50 46 44 42
57 49 47 41 36 35 36 36 32 34 36 70 80 78 72 69 66 58 50 45 42 39 36 36 35 34 33 41 40 48 47 47 51 61 74 83 77 71 68 63 56 50 45 43
66 75 76 63 56 51 39 54 57 52 35 42 65 93 82 70 69 70 71 68 59 58 50 44 44 41 42 44 52 54 60 68 73 77 84 82 78 77 70 62 56 51 48 41
81 76 71 69 61 62 58 43 42 48 56 54 60 75 78 71 61 60 67 68 68 70 64 64 66 63 61 63 68 74 82 88 89 88 86 89 85 74 66 59 54 48 40 34
86 77 79 84 82 79 78 67 61 60 59 66 74 76 79 65 64 70 77 78 76 74 70 70 68 72 78 90 95 95 94 93 89 86 89 82 76 70 63 57 48 39 32 29
98 98 94 93 83 80 86 80 82 86 88 84 83 84 91 91 87 76 74 75 74 68 62 64 69 77 90 90 88 87 88 87 86 83 80 77 74 66 58 48 38 33 31 24
99 95 100 99 84 73 73 86 89 100 98 96 95 98 99 96 100 93 88 82 78 82 83 77 80 91 90 91 87 86 85 85 82 80 78 72 64 58 47 40 36 31 23 21
100 97 100 98 81 72 68 88 93 95 96 98 95 94 94 92 95 98 98 90 82 71 68 83 94 95 84 74 72 74 78 84 80 72 66 56 49 43 40 36 30 21 26 50
98 99 99 86 90 94 94 96 93 89 84 87 91 91 99 100 98 94 88 87 77 78 98 94 83 73 68 65 65 74 80 76 70 61 53 49 44 39 34 26 20 33 60 76
100 93 92 91 97 100 100 100 100 99 96 89 85 91 94 95 85 78 75 72 86 97 83 70 67 67 67 71 76 80 77 71 63 55 53 47 40 34 25 19 35 62 80 88
98 90 99 100 100 100 100 95 100 100 96 93 94 95 92 88 76 68 69 89 95 82 71 67 68 69 71 78 81 78 73 64 57 52 46 41 35 21 14 38 69 85 90 90

GFSNW_500_rhum_012.txt.gz
RH
24 35 60 27 19 51 70 62 66 73 83 90 95 98 97 95 96 97 92 96 100 94 73 92 84 84 93 96 96 93 84 59 25 19 11 5 4 4 5 6 8 11 19 27
29 30 55 46 17 32 57 58 57 57 70 72 87 95 97 97 96 87 95 86 90 97 92 94 95 92 94 98 94 82 34 15 7 11 9 5 5 6 8 13 19 23 41 59
41 32 53 50 12 20 53 57 56 59 67 70 73 92 93 97 96 97 97 97 98 96 97 97 92 96 96 67 28 21 17 15 8 10 11 11 14 20 22 27 39 69 63 55
54 37 47 58 8 11 41 57 63 65 67 62 73 95 96 97 96 96 98 97 95 92 95 96 96 97 73 55 44 24 20 23 26 25 27 30 31 33 44 58 74 68 51 37
43 51 49 65 12 7 32 59 60 79 75 68 82 84 100 97 96 97 97 98 97 97 96 95 87 88 74 55 53 44 45 52 48 45 46 56 68 80 84 76 53 32 27 31
24 61 48 64 27 6 24 58 53 87 85 80 77 82 92 98 98 96 92 95 96 96 98 97 95 92 91 83 81 79 82 90 89 91 97 95 92 82 64 52 34 30 28 42
23 47 52 62 33 5 15 40 52 72 94 86 88 94 90 88 96 84 90 72 65 63 53 59 66 75 90 96 96 96 95 88 88 87 84 70 49 38 34 30 29 38 44 40
25 34 52 64 58 4 13 34 56 56 88 96 99 95 85 56 78 61 50 32 31 26 24 24 25 25 27 28 30 33 36 35 34 30 29 27 26 28 35 48 52 39 27 24
28 32 42 65 72 6 14 31 52 51 65 88 92 92 89 60 47 44 27 39 31 22 24 28 34 36 37 23 24 22 19 18 18 21 22 31 41 42 48 40 30 26 25 25
30 31 42 61 74 53 6 24 37 48 44 68 92 92 86 62 40 45 35 24 19 30 23 20 24 35 46 53 60 68 65 67 68 71 63 54 47 38 28 27 27 27 27 27
31 31 48 50 75 77 33 5 23 35 48 45 53 78 85 76 48 38 38 37 23 19 21 26 29 37 58 55 62 63 72 70 63 55 40 36 33 29 28 29 29 31 33 32
36 34 38 56 60 82 79 28 5 20 32 44 41 46 50 66 66 58 43 42 42 37 25 22 18 26 64 71 79 79 75 64 45 39 36 34 33 32 32 32 34 35 34 35
42 40 33 53 60 65 79 82 56 10 22 32 41 38 35 41 54 61 59 52 44 43 41 28 18 26 48 70 78 78 80 67 51 40 37 36 35 36 36 38 38 39 44 48
49 46 37 36 58 66 63 69 78 75 41 17 18 26 32 28 27 29 32 37 37 35 30 22 18 28 47 69 63 57 48 42 38 38 39 39 40 40 40 40 43 48 54 57
59 50 44 36 40 49 65 65 63 70 74 67 57 27 22 23 20 15 13 12 11 12 13 16 67 83 76 71 60 45 41 38 37 40 43 44 41 40 41 42 51 60 65 69
67 59 50 39 36 39 42 47 65 58 66 64 65 61 68 71 78 86 91 88 86 85 87 82 81 70 56 52 46 40 39 39 40 40 38 40 42 42 46 57 64 62 59 63
73 65 57 46 39 38 38 40 39 45 49 47 61 73 71 68 64 61 56 52 51 54 56 55 53 50 48 42 37 40 36 37 38 39 40 44 48 53 54 58 55 55 62 67
80 70 64 54 46 42 42 39 37 36 34 35 36 45 68 74 73 71 68 63 60 56 53 49 44 38 33 30 34 33 36 38 40 44 46 46 52 61 62 64 70 74 77 81
97 99 82 61 53 48 45 42 41 38 35 30 30 33 45 59 76 75 69 68 65 60 55 50 47 39 41 42 42 42 44 46 50 60 71 72 70 70 78 79 80 86 84 77
100 100 96 74 64 61 56 53 41 35 35 42 53 55 46 41 58 68 74 71 61 58 55 58 56 49 45 48 52 62 77 86 87 81 77 79 78 82 87 86 84 83 79 76
100 100 100 99 87 79 77 68 58 53 47 39 44 45 58 60 58 57 58 58 56 54 50 57 61 67 78 89 94 96 95 89 87 85 80 76 80 86 90 87 83 79 71 60
100 100 100 99 98 94 83 69 64 65 68 63 65 67 64 66 70 67 55 49 52 52 55 58 62 64 80 93 91 92 91 83 75 73 76 82 86 88 88 84 75 64 51 41
100 100 100 100 99 93 75 62 60 73 80 90 96 95 94 87 80 77 78 78 80 84 87 91 91 95 96 95 89 81 76 74 77 80 82 82 84 87 80 71 62 52 43 37
100 100 100 100 85 77 66 75 78 83 92 92 95 96 95 98 100 98 99 96 96 94 96 99 100 95 90 80 74 75 72 70 70 72 76 78 80 76 73 65 56 48 40 33
100 100 95 77 75 76 78 81 78 85 93 100 100 100 98 94 98 98 93 97 92 96 99 96 82 71 67 65 65 66 64 64 68 70 74 78 78 74 70 61 53 42 34 32
100 95 88 78 80 77 74 76 85 84 81 92 99 100 100 100 96 91 90 96 100 99 83 75 71 65 59 61 60 58 60 64 69 73 74 75 74 71 65 55 44 38 33 26
98 89 88 92 95 93 91 88 86 83 84 88 89 87 94 100 100 95 99 100 99 96 87 77 64 55 58 55 51 52 58 61 62 65 68 69 67 62 53 45 40 35 27 22

GFSNW_500_rhum_015.txt.gz
RH
15 26 38 34 58 27 45 71 65 70 89 96 94 98 97 96 96 96 95 76 95 96 97 97 98 85 80 89 80 58 53 54 71 67 68 83 81 72 48 28 20 12 6 8
16 22 46 36 54 24 30 62 63 59 72 86 96 98 97 96 98 98 88 85 95 99 98 99 95 94 97 84 71 80 88 94 100 99 98 90 72 42 20 13 6 8 15 22
18 21 54 44 54 17 20 52 61 58 68 72 95 96 97 87 88 91 99 95 72 79 91 94 89 96 87 86 95 98 97 100 95 74 56 39 20 6 5 7 10 16 26 50
19 22 52 54 53 21 10 34 57 61 74 66 94 89 97 85 90 98 91 84 68 70 70 76 82 77 74 84 87 96 96 94 74 32 17 21 14 13 15 23 27 32 57 80
20 22 45 64 51 21 8 22 54 68 80 67 83 94 98 96 88 99 98 93 90 97 97 97 90 87 96 96 97 94 42 25 32 15 12 22 26 31 26 26 38 58 80 90
20 21 38 62 56 41 7 18 56 82 86 81 75 99 94 97 98 98 97 97 97 96 96 98 96 96 96 85 53 40 32 34 38 35 36 36 37 38 38 54 78 90 79 48
22 22 30 58 63 34 7 17 54 70 95 90 78 86 95 94 96 96 93 92 97 98 97 96 97 97 95 94 89 66 54 46 48 51 50 45 49 84 89 96 94 84 77 72
22 24 25 52 69 35 8 24 45 55 99 99 92 85 92 96 97 97 95 94 87 87 91 92 94 97 92 98 96 98 96 98 99 100 100 97 96 95 81 56 53 33 33 61
24 25 25 50 76 52 6 25 44 51 92 100 96 90 99 100 93 82 54 39 30 33 40 48 52 43 57 47 56 73 89 87 88 92 81 78 66 58 39 28 32 52 62 35
25 26 26 43 82 75 6 17 41 51 62 100 96 89 66 55 42 37 34 31 26 24 27 30 36 38 34 32 28 25 25 24 20 19 19 21 25 35 49 50 38 33 30 29
27 28 28 33 78 85 44 7 30 44 48 72 100 96 70 74 53 38 30 28 30 31 26 26 29 31 39 49 53 56 65 54 62 69 72 70 56 49 39 34 32 32 33 36
30 30 28 30 69 92 84 22 9 36 42 45 63 94 98 79 49 45 42 36 32 23 21 24 26 26 27 44 47 66 67 67 75 64 56 45 38 35 34 34 35 37 38 39
36 35 31 33 44 84 94 87 28 7 32 42 45 43 63 95 92 73 53 48 45 47 50 48 41 36 34 26 37 58 66 73 77 69 56 49 39 36 36 37 38 38 38 39
43 38 37 38 35 65 84 96 90 51 9 24 36 42 44 45 58 73 75 71 60 52 48 52 48 41 38 30 25 38 58 64 62 64 65 70 66 52 40 38 40 40 38 39
54 43 44 45 41 38 73 82 91 92 70 25 13 22 28 38 40 37 34 40 46 48 41 34 28 22 18 16 33 52 78 70 59 52 42 38 38 38 39 39 38 39 40 43
70 53 54 54 50 39 40 69 77 75 88 87 63 31 24 22 20 20 25 25 20 17 15 14 13 12 17 22 57 65 67 63 53 43 41 41 41 40 40 42 44 45 46 52
75 71 66 62 57 49 40 42 55 66 70 71 83 81 70 63 64 65 70 79 85 87 88 90 88 86 82 74 70 59 57 54 46 41 39 39 39 43 44 43 43 51 70 64
97 92 88 71 64 56 49 42 45 45 48 57 60 59 68 76 77 74 70 69 68 63 60 56 54 54 54 56 52 45 40 34 33 32 36 39 42 43 44 56 75 69 66 65
100 99 99 84 73 62 56 51 47 46 44 39 38 43 48 50 52 64 74 80 79 74 70 66 64 57 51 48 42 36 34 35 37 39 42 44 47 62 80 75 72 72 68 66
100 99 98 96 81 71 63 58 53 48 44 44 41 41 36 38 40 43 44 59 72 72 71 68 65 59 59 74 76 74 70 68 64 64 71 78 84 82 78 78 73 68 62 57
98 98 100 100 94 91 75 63 55 51 47 44 46 46 49 58 60 56 48 44 50 52 56 58 59 56 50 50 49 53 59 69 83 85 83 83 86 82 77 72 66 63 63 65
100 100 100 100 100 99 99 85 55 45 49 56 64 68 61 54 53 57 62 63 60 54 53 52 51 48 46 48 48 50 59 70 79 84 91 89 83 74 67 64 63 66 70 72
100 100 100 100 98 98 80 68 82 83 68 72 70 72 81 87 80 76 77 69 63 57 56 54 51 48 59 74 84 84 84 88 92 84 72 64 59 57 57 58 61 66 68 68
100 100 99 100 89 75 65 72 79 92 100 98 95 86 86 98 100 100 94 86 87 85 88 93 93 90 86 83 79 81 76 67 62 57 54 52 52 52 53 54 56 57 59 61
100 100 98 84 85 75 72 79 80 90 100 100 100 96 88 98 98 100 100 100 93 87 88 84 79 76 73 73 70 68 65 59 55 54 51 49 49 51 53 52 54 53 55 53
100 94 83 72 80 79 82 86 81 90 100 100 98 92 90 94 97 97 98 97 90 84 81 81 78 71 68 70 71 66 62 59 55 50 46 46 47 50 52 50 50 49 48 44
97 84 84 83 88 88 90 89 89 94 99 93 92 92 92 97 97 94 98 88 86 86 83 76 68 64 63 65 66 63 59 56 52 50 49 51 57 58 54 51 48 47 44 40

GFSNW_500_rhum_018.txt.gz
RH
15 19 18 61 53 52 26 44 65 69 92 98 98 98 98 97 98 98 99 99 99 56 56 69 63 61 78 80 76 70 68 65 68 60 56 70 78 71 68 57 51 56 42 30
15 18 18 40 61 54 23 32 58 65 78 90 99 98 98 97 98 98 97 96 94 74 65 78 97 89 77 80 67 59 60 53 58 66 72 91 80 58 68 64 70 56 34 19
16 18 19 25 65 55 18 24 54 58 82 77 98 97 97 98 98 96 71 81 54 70 92 98 81 67 85 96 89 78 66 61 62 50 52 68 67 72 84 92 71 33 21 10
17 18 19 22 66 58 24 19 46 53 76 65 97 97 97 98 97 96 85 71 94 100 79 89 94 93 93 99 99 97 98 96 73 68 82 99 93 96 84 39 13 10 15 20
18 18 20 22 62 60 37 14 41 49 71 66 79 98 99 97 99 96 99 91 78 80 90 82 81 93 95 95 91 98 99 96 98 98 99 90 60 41 18 10 9 10 19 35
22 17 21 22 47 60 52 15 56 50 67 74 74 96 100 96 95 98 98 95 87 78 82 84 95 97 99 97 97 98 99 98 99 96 86 38 20 21 16 13 23 33 29 49
21 17 21 22 34 62 60 12 64 55 73 85 88 92 97 95 91 96 99 95 97 99 99 98 98 97 98 98 92 96 98 96 53 40 38 26 14 25 24 32 36 39 48 72
20 18 22 22 30 62 65 10 64 63 76 80 93 91 97 94 95 95 97 98 99 98 97 98 98 98 100 97 91 86 88 68 49 50 44 42 26 33 43 44 60 83 96 93
22 19 23 24 29 60 70 9 64 65 76 90 98 96 96 98 95 94 93 90 90 94 100 99 92 97 97 95 94 91 94 92 72 58 88 80 89 96 96 96 93 94 89 60
24 21 24 24 30 57 81 10 57 82 78 95 97 96 100 97 97 96 88 68 60 67 73 76 86 88 93 88 94 96 88 88 90 88 80 71 69 71 82 71 54 42 47 60
32 25 24 25 30 54 87 11 45 79 77 97 96 93 99 99 97 72 41 36 31 32 36 39 38 36 38 44 47 53 55 53 64 60 57 41 34 30 32 44 61 52 42 36
38 30 25 26 30 51 87 56 23 66 81 84 100 97 83 64 59 60 38 33 30 28 28 33 39 46 56 67 68 60 63 59 77 73 74 80 80 76 61 51 44 37 34 34
44 31 27 28 29 41 76 98 19 38 66 72 83 99 90 75 74 74 48 39 35 33 35 30 29 29 36 34 32 44 55 66 73 78 72 71 63 51 44 38 36 36 38 40
41 33 30 30 30 35 65 92 92 20 34 51 66 82 97 95 91 66 65 60 48 44 46 44 47 51 45 45 44 40 31 26 38 54 63 72 74 65 62 53 54 53 46 41
47 40 39 34 34 35 40 76 94 89 35 28 43 60 66 72 79 88 83 75 70 62 57 55 54 52 53 46 35 23 22 20 25 37 57 63 61 55 48 43 40 39 40 41
91 79 52 42 63 37 41 45 78 97 98 43 16 31 38 49 49 46 46 55 64 64 63 61 58 52 37 25 18 16 17 23 39 58 72 69 62 50 43 42 42 43 43 43
100 98 64 46 58 42 44 44 50 81 96 98 76 30 18 25 31 34 38 40 41 39 37 33 31 27 23 24 29 68 77 66 72 67 57 52 46 43 42 41 39 38 39 42
99 100 80 73 76 49 48 49 48 50 72 91 96 95 74 49 31 26 27 26 23 20 21 23 30 55 65 66 72 66 63 65 64 61 54 46 39 37 36 36 39 45 50 66
100 100 98 97 89 63 57 55 53 48 49 54 64 82 94 97 92 88 79 73 72 70 69 70 68 63 60 58 55 53 53 49 46 41 35 35 38 44 48 50 56 75 84 80
99 99 98 96 91 86 80 65 59 53 48 46 47 50 54 64 66 69 77 84 91 89 85 80 76 75 79 84 81 74 67 67 70 70 68 66 62 61 69 80 80 80 79 76
99 98 100 100 99 98 96 81 67 60 52 46 43 44 48 48 48 49 51 48 48 48 51 61 62 70 78 84 83 78 76 71 66 58 54 55 59 66 81 85 82 74 62 52
100 100 100 100 99 98 95 79 68 63 56 50 46 45 44 43 43 43 42 46 50 50 44 42 42 48 51 53 56 56 54 52 52 54 58 72 87 87 81 66 55 47 42 38
100 100 100 100 99 93 77 69 70 80 85 81 64 68 69 67 54 49 48 49 47 48 50 48 50 52 54 54 53 53 56 61 71 93 97 93 78 65 54 45 41 39 38 38
100 100 100 100 90 75 68 77 97 100 99 99 97 86 84 90 84 78 72 71 68 62 61 67 69 67 68 75 83 92 98 100 99 97 79 65 58 50 47 44 43 42 40 41
100 100 99 90 77 68 77 90 96 100 100 100 100 99 98 98 88 84 80 81 77 78 89 99 99 100 99 96 94 98 96 89 79 71 65 58 55 52 50 47 43 40 42 42
100 99 86 81 78 77 82 92 100 100 100 100 99 100 99 99 97 93 92 82 76 80 85 88 87 84 84 86 85 80 76 72 68 63 57 52 49 49 48 46 44 44 42 39
96 86 88 86 82 83 91 100 100 100 100 100 100 100 100 94 94 92 92 85 85 83 82 80 77 76 74 74 72 70 65 60 56 51 49 49 48 48 47 46 45 45 42 39

GFSNW_500_rhum_021.txt.gz
RH
46 33 16 15 18 21 41 59 28 63 60 76 84 96 97 96 98 97 99 96 82 49 30 29 24 29 42 77 75 71 80 75 80 72 75 70 72 79 80 80 65 54 52 52
46 32 17 16 17 21 46 61 23 69 56 78 82 98 97 98 98 98 98 98 91 49 33 37 33 31 50 68 80 78 72 81 74 83 79 98 79 69 74 74 74 48 51 43
46 33 18 16 18 21 50 62 20 62 55 85 96 97 98 98 98 100 100 100 93 46 50 75 56 51 86 78 77 82 89 76 72 62 57 71 71 65 75 80 79 63 50 66
46 34 19 17 18 21 52 64 17 58 61 84 99 98 98 98 99 98 70 55 84 51 72 65 95 99 100 99 84 77 76 73 69 66 68 72 76 91 94 86 74 61 78 72
44 33 22 17 18 22 50 67 15 50 60 78 92 98 97 97 100 86 80 66 50 47 41 53 55 66 74 61 70 75 74 81 82 80 74 72 69 69 69 63 65 77 72 25
42 32 24 18 19 22 42 67 14 45 74 77 82 93 96 98 90 94 96 94 76 65 92 100 96 96 97 100 98 97 95 86 80 74 68 68 58 82 90 84 81 44 22 12
43 36 27 18 20 23 35 67 25 52 79 84 75 88 99 97 98 97 85 87 87 98 97 94 99 96 97 100 91 91 92 96 95 89 87 78 92 79 50 36 26 15 11 20
42 38 28 19 21 25 30 67 31 57 96 100 87 83 97 97 97 98 97 98 97 94 93 95 97 98 97 98 91 92 98 99 99 96 94 79 69 38 19 20 26 21 29 34
42 35 26 18 22 28 27 62 42 49 100 100 98 81 97 96 96 97 96 98 96 98 98 97 92 92 96 95 92 96 97 96 100 73 64 62 58 58 54 39 28 41 59 67
54 34 24 20 24 29 28 63 52 31 96 100 98 89 97 98 100 98 98 98 98 98 97 99 100 97 98 97 95 96 99 92 92 89 90 73 84 81 80 92 95 93 88 79
84 50 25 20 24 30 30 65 59 20 79 99 100 95 87 98 100 100 90 89 93 98 97 97 93 94 91 99 100 94 98 93 94 93 86 68 90 97 87 75 66 45 41 57
97 67 30 21 24 33 36 68 78 18 73 99 100 97 90 97 98 90 81 60 53 66 71 77 78 84 85 82 85 82 84 73 85 80 78 68 46 40 40 42 53 62 58 57
97 88 44 23 26 33 37 59 94 19 50 99 99 100 97 98 96 86 47 36 32 32 34 38 41 50 72 72 73 67 61 66 71 86 88 86 80 79 78 72 72 52 41 38
100 99 84 29 26 34 36 46 90 42 26 78 100 100 100 97 83 93 78 54 42 39 40 36 38 37 40 47 46 41 38 40 39 34 35 47 60 64 69 68 59 49 45 43
100 98 97 32 35 37 39 38 70 94 30 41 86 99 100 98 91 76 77 66 63 53 44 40 40 38 46 50 49 50 47 37 27 20 18 20 30 44 68 71 70 65 60 55
100 99 89 51 39 40 38 37 45 79 92 30 34 69 100 100 100 94 93 81 58 53 53 53 41 47 51 52 55 52 39 24 18 18 20 27 46 63 78 76 64 60 57 45
100 99 99 64 41 36 37 39 44 59 86 92 36 32 42 82 99 100 99 96 89 77 70 57 61 64 59 52 48 30 24 27 29 35 45 56 68 70 68 61 53 46 42 41
99 98 85 60 64 62 49 51 42 44 56 73 91 56 34 30 42 61 66 64 57 50 53 51 46 41 35 30 30 32 45 70 80 76 74 76 70 63 53 46 41 37 36 43
100 100 97 89 87 69 51 63 51 45 42 47 62 97 100 75 46 35 30 33 35 37 33 32 32 30 30 27 30 65 72 76 70 56 49 49 44 36 33 35 60 74 66 63
100 100 99 95 94 85 61 60 59 52 50 44 43 64 94 96 99 87 66 50 40 32 32 26 24 26 41 64 68 77 82 76 73 72 59 53 70 84 94 87 64 60 64 73
96 97 100 100 100 100 92 90 76 59 54 54 47 44 53 78 87 93 95 87 85 81 76 72 66 69 81 91 92 89 90 89 90 94 95 89 80 63 54 54 60 71 79 72
88 100 100 100 99 98 92 87 80 71 62 59 55 52 48 48 51 55 56 59 61 60 58 54 51 48 48 50 54 58 61 62 60 58 57 55 52 52 59 69 81 78 62 52
100 100 99 100 98 95 85 75 70 69 72 75 68 62 60 56 49 46 46 46 42 40 37 34 38 46 47 47 50 50 51 52 53 53 52 50 54 73 85 85 69 60 58 55
100 99 98 100 90 79 73 81 94 99 100 100 94 87 68 63 59 55 54 49 45 38 39 42 47 53 53 50 50 51 54 54 53 56 68 80 83 86 83 73 64 59 56 49
100 98 98 88 75 73 82 92 100 100 100 95 99 98 98 85 66 59 55 56 47 46 57 65 71 75 78 79 78 80 87 94 95 88 85 87 85 77 65 56 51 47 44 41
100 100 95 84 84 85 90 98 100 100 98 99 100 100 98 91 84 76 73 67 67 75 80 85 88 94 98 98 99 98 94 87 82 79 76 71 63 57 53 50 50 48 46 44
99 92 95 93 94 99 100 100 100 100 99 100 100 100 98 90 87 82 79 81 96 100 100 99 99 99 100 99 97 95 93 87 80 75 72 69 64 58 57 56 52 49 48 47

GFSNW_500_rhum_024.txt.gz
RH
96 56 46 46 43 26 15 16 27 64 41 52 87 97 98 98 98 94 98 92 99 46 37 37 33 38 48 69 77 80 79 91 87 65 60 74 75 84 86 76 63 52 47 53
98 56 47 47 43 23 16 18 27 57 33 56 97 98 100 98 98 98 98 96 94 42 28 31 29 36 51 67 78 71 77 87 85 78 77 69 97 89 88 80 66 64 72 54
95 74 49 46 39 21 16 19 28 56 30 66 95 84 99 98 96 97 98 98 97 40 19 31 26 33 38 53 81 88 87 80 78 66 58 82 74 64 80 81 78 66 54 65
98 86 50 45 35 19 17 20 34 59 28 81 100 98 99 98 98 99 99 100 100 59 19 24 23 26 34 51 69 80 83 90 85 74 75 74 71 77 87 69 81 76 82 73
96 70 50 48 31 19 17 21 34 60 27 73 100 92 98 97 98 100 96 66 98 38 30 41 22 24 31 54 47 66 86 88 87 86 79 73 66 67 88 71 66 48 50 57
97 100 96 51 32 20 18 21 36 62 22 74 100 82 98 98 99 91 83 65 42 52 75 57 84 94 100 86 91 83 80 87 81 89 87 78 67 61 64 73 69 63 55 80
90 99 64 41 29 20 19 22 36 65 18 75 100 86 98 98 95 94 79 55 58 52 66 72 91 86 67 68 76 98 97 96 87 86 79 63 64 63 58 59 58 64 69 78
96 77 50 38 26 19 19 24 36 67 22 70 100 92 99 97 98 97 91 82 81 73 64 78 90 100 100 98 98 99 93 88 84 76 69 64 62 64 63 70 76 59 50 28
98 66 49 38 26 20 21 25 35 70 26 71 99 97 99 98 97 96 96 98 98 91 95 100 100 87 94 95 92 97 98 98 87 85 81 82 96 84 83 61 37 25 27 27
98 91 60 39 26 21 23 28 35 74 28 73 95 92 94 95 97 96 99 97 97 98 98 96 97 98 96 95 88 77 80 83 83 99 98 80 91 75 65 60 74 79 78 79
94 98 62 36 25 22 25 30 39 76 27 73 97 97 95 96 98 97 97 98 98 95 97 99 100 97 90 97 96 92 91 98 99 99 89 91 91 96 92 83 80 88 88 74
100 96 54 31 23 25 26 30 43 78 30 55 99 95 93 100 98 98 100 97 98 98 97 90 97 95 97 99 96 97 90 98 100 86 81 91 93 74 79 83 61 50 43 47
94 75 43 29 23 28 27 36 49 84 38 33 90 98 96 100 97 97 98 96 96 98 98 99 97 95 99 100 97 98 93 93 77 82 74 62 62 71 84 93 93 97 88 82
100 99 60 30 24 31 28 35 53 92 70 20 77 98 93 98 98 97 92 64 69 80 86 95 91 83 80 85 82 78 72 65 64 66 72 72 68 65 66 70 74 76 75 66
100 99 67 36 25 33 30 35 53 92 99 27 45 96 96 96 100 95 67 51 42 39 37 39 40 44 64 71 68 63 58 52 44 39 33 26 19 16 17 22 31 47 62 71
100 99 98 69 30 35 31 36 38 73 100 73 25 60 99 97 98 97 96 94 84 58 49 47 51 48 45 39 40 47 49 50 48 37 24 19 19 21 23 25 38 56 76 77
100 100 100 98 54 34 36 37 38 59 86 100 58 31 55 95 98 95 92 95 96 90 64 53 52 50 52 46 47 55 56 55 44 25 26 28 29 32 41 50 65 72 72 69
100 100 100 100 99 54 40 57 49 51 64 76 88 61 34 42 67 96 100 95 89 84 66 58 57 52 41 36 53 52 40 33 30 31 33 40 52 70 75 76 74 68 60 49
99 100 100 100 99 88 54 64 59 45 52 49 47 83 98 52 40 42 64 93 97 92 86 81 76 64 49 56 54 39 34 33 34 37 49 87 88 62 50 51 54 49 40 44
99 99 97 92 93 97 68 61 56 45 44 48 43 54 85 97 81 48 40 36 44 66 73 72 56 49 45 40 34 31 31 36 60 68 66 67 75 84 92 92 68 76 94 71
89 92 92 97 100 98 83 79 72 62 74 66 47 44 48 60 87 99 83 56 44 34 36 40 34 33 37 36 33 36 52 62 70 73 92 94 95 96 95 92 84 60 53 52
95 90 99 100 100 97 90 82 82 75 68 65 55 51 48 46 49 57 76 89 92 82 63 64 51 54 62 68 71 79 79 83 87 78 77 77 70 61 57 55 53 52 54 68
100 100 100 100 97 98 85 72 67 60 61 69 66 61 59 56 51 50 52 54 56 63 64 62 62 60 69 76 69 56 42 38 40 46 52 55 56 56 54 52 51 59 83 84
100 99 100 100 96 83 65 79 83 80 85 100 98 93 80 71 63 58 52 48 45 43 40 42 42 42 40 35 37 44 53 55 56 55 54 54 53 52 53 67 88 82 68 61
100 99 99 91 72 72 78 82 95 100 100 100 96 92 95 95 86 70 58 54 50 46 45 47 48 49 47 46 48 51 55 58 57 56 55 57 64 88 91 80 70 62 57 55
100 100 90 85 85 86 98 98 100 100 100 97 88 94 97 96 94 86 84 76 66 64 64 71 72 73 71 70 75 79 78 77 79 86 97 100 95 83 73 66 62 61 60 59
100 91 76 83 89 90 96 99 100 100 95 99 98 99 100 92 92 89 91 99 100 100 93 88 85 85 85 84 86 91 95 97 99 100 95 86 82 74 69 67 66 65 64 62

GFSNW_500_rhum_027.txt.gz
RH
100 100 100 67 30 28 31 32 35 21 16 25 54 43 80 97 99 98 98 99 100 100 54 52 53 44 37 65 71 98 98 98 98 98 76 76 81 82 72 69 64 62 51 77
100 100 100 98 43 28 31 36 28 17 18 41 42 49 92 96 98 98 98 98 98 100 35 45 46 40 44 51 80 91 90 95 97 98 92 95 94 78 81 79 63 63 61 63
100 100 99 98 45 29 40 34 26 16 21 61 37 61 97 97 98 98 100 94 98 72 30 39 40 40 52 58 78 82 74 84 95 98 82 83 68 68 64 61 55 70 67 79
100 100 100 99 55 32 38 34 21 18 32 62 39 75 98 100 98 98 99 99 99 100 27 31 36 40 51 60 71 87 83 76 78 84 69 79 85 85 96 63 96 80 82 84
100 100 99 98 45 37 32 27 19 20 43 62 36 84 98 98 98 98 100 100 100 100 22 29 33 41 44 52 57 63 72 74 72 81 85 86 86 98 74 90 77 71 81 75
100 100 100 96 63 35 30 22 18 22 58 53 38 87 98 98 98 96 100 86 86 35 32 37 28 36 44 59 72 80 90 88 87 93 88 83 76 64 78 73 61 69 61 73
100 96 94 97 67 35 29 22 19 26 67 36 43 94 95 98 98 99 98 50 38 59 36 31 25 28 37 44 56 56 57 84 96 95 84 79 69 66 69 57 51 60 68 73
100 100 91 95 52 36 27 21 21 30 64 37 52 97 94 98 98 100 67 41 48 58 98 98 30 44 50 49 47 64 66 66 71 84 84 80 75 81 75 67 65 72 72 62
100 100 100 100 96 92 26 21 24 34 67 39 62 86 97 98 97 100 77 67 79 84 74 81 63 68 66 68 72 73 96 90 85 83 78 77 89 75 67 63 62 62 62 77
100 100 100 100 98 48 24 22 28 37 65 43 66 92 98 99 97 98 99 81 70 53 71 93 82 86 97 84 77 77 94 91 81 79 70 76 96 84 73 77 73 68 56 35
100 94 90 95 72 32 24 25 30 40 62 46 63 97 98 93 98 97 98 94 88 92 92 95 90 96 79 94 100 98 98 88 84 81 77 88 87 98 91 88 83 76 70 76
100 100 96 81 58 30 25 30 33 44 64 46 57 99 82 92 98 97 97 98 98 98 96 97 99 100 97 92 97 91 86 83 92 81 97 99 98 91 92 93 92 92 91 88
100 100 98 86 71 30 28 36 39 48 72 48 39 88 91 88 98 95 98 98 98 98 97 98 98 97 96 97 93 99 90 98 94 99 99 97 95 97 90 78 77 76 67 73
96 98 98 100 74 30 32 41 42 52 68 56 38 68 100 94 94 95 95 98 98 97 98 97 98 98 97 97 96 93 96 96 97 85 94 87 80 82 80 81 79 73 71 71
98 100 100 99 68 31 39 49 45 52 66 67 34 52 81 95 91 98 95 98 98 98 98 98 99 97 99 95 99 99 98 97 83 86 84 71 66 45 27 21 19 18 18 21
100 100 100 99 54 31 43 48 43 43 53 92 43 50 87 96 95 93 97 96 96 94 97 97 97 96 94 92 95 93 84 70 52 46 41 36 27 20 18 20 23 24 25 26
100 100 100 85 54 32 38 39 52 47 55 88 92 44 47 98 94 97 100 92 85 67 66 62 58 46 55 70 62 52 47 51 53 52 51 49 33 27 28 28 28 31 39 49
100 100 100 98 84 42 40 44 53 55 61 87 100 90 39 49 90 98 98 98 87 86 85 77 73 58 52 58 65 68 64 58 56 53 49 41 34 30 30 33 44 62 73 76
100 100 100 99 85 55 45 45 55 57 76 97 62 86 98 46 36 68 99 98 96 94 82 82 66 63 53 54 78 94 72 57 53 49 42 32 31 32 33 62 82 69 51 53
100 100 100 100 100 98 68 57 59 52 44 47 53 66 95 100 86 45 43 49 72 89 93 94 85 64 59 66 86 78 65 62 58 49 38 33 30 41 66 63 65 73 91 95
100 97 94 97 100 100 99 84 62 53 54 59 48 56 64 82 92 93 81 51 42 43 50 62 72 76 87 90 87 79 58 46 40 34 30 30 37 67 71 85 88 89 89 86
88 84 94 100 100 100 95 90 82 66 59 64 46 47 52 56 65 70 85 90 89 62 40 38 36 40 41 42 41 38 37 36 34 33 36 51 73 84 87 77 73 70 60 56
100 100 100 100 96 92 71 62 61 64 62 66 57 61 64 59 52 54 62 68 61 74 78 70 62 71 65 64 55 49 51 57 66 74 72 58 53 52 53 57 60 58 53 53
100 100 97 99 86 75 64 68 72 82 83 86 92 99 98 93 79 70 63 56 51 48 43 49 58 65 66 64 62 57 66 68 57 49 47 45 45 48 52 55 56 52 51 69
100 95 95 85 70 72 78 82 90 97 100 100 100 99 97 97 91 78 67 64 58 51 48 48 47 44 42 41 41 42 40 38 39 41 45 50 52 53 54 53 52 65 91 86
100 98 78 78 84 82 93 100 100 100 100 100 96 94 95 94 93 81 75 72 71 69 63 57 54 51 49 47 46 48 50 53 57 62 67 69 66 61 62 81 99 96 85 71
100 88 79 82 77 81 100 100 100 100 99 96 92 100 100 96 97 96 97 99 99 92 85 83 73 63 65 68 68 68 70 75 83 88 92 97 100 100 100 100 90 80 72 72

GFSNW_500_rhum_030.txt.gz
RH
100 100 100 100 100 100 100 26 20 21 25 29 29 19 52 52 54 99 98 98 99 99 97 96 50 64 60 47 78 100 73 88 97 98 89 95 95 95 96 86 83 90 76 63
100 100 100 100 100 100 58 27 23 24 31 35 20 20 54 44 86 98 98 98 99 99 97 45 53 50 64 58 50 100 79 99 100 99 97 99 94 91 95 89 74 84 70 68
100 100 100 100 100 100 40 30 28 28 34 28 18 24 48 48 98 98 98 98 98 100 36 46 51 49 55 53 42 94 97 99 100 98 95 61 69 95 93 86 77 80 70 56
100 100 100 98 99 98 40 26 28 35 32 20 20 44 42 95 98 98 98 98 99 91 33 44 46 41 37 48 92 95 99 99 98 98 98 92 95 84 76 72 75 76 88 75
100 100 100 100 100 98 40 28 34 46 28 25 30 54 41 98 98 98 98 97 97 91 34 40 44 36 36 67 78 82 87 98 99 99 89 85 85 85 86 74 72 62 77 82
100 100 100 95 92 99 69 38 54 30 27 26 48 56 64 99 97 98 99 85 93 59 26 36 39 39 43 66 79 84 96 96 98 98 78 77 76 80 72 69 82 91 91 98
98 100 100 100 100 87 50 45 46 27 28 31 73 38 100 98 98 99 100 83 54 19 23 32 38 41 48 82 76 84 93 92 98 89 80 85 86 86 88 82 90 89 84 93
90 99 100 100 70 94 69 60 34 23 30 50 70 35 99 97 98 99 86 59 40 27 20 28 37 40 45 56 64 61 67 79 73 75 79 80 80 85 82 72 71 79 67 68
98 100 100 100 100 74 73 43 26 24 32 58 60 60 99 97 98 98 93 39 55 76 52 27 32 36 35 39 43 50 54 57 53 53 58 77 92 92 86 78 76 64 56 56
100 100 100 96 90 92 46 30 25 25 32 88 53 63 99 98 98 98 99 70 65 96 100 96 46 28 34 35 37 40 41 44 45 50 52 61 79 85 85 77 77 74 66 62
98 99 98 99 100 91 50 38 28 29 39 99 54 58 100 98 98 98 98 89 75 77 93 67 67 80 69 73 58 55 61 68 71 73 67 82 93 89 91 89 89 80 75 71
100 100 100 100 100 93 96 89 33 34 44 93 58 51 100 99 98 99 96 98 94 68 63 60 60 77 92 99 89 77 69 82 100 94 98 97 99 91 96 98 97 97 94 86
96 100 100 100 100 100 100 54 34 38 59 95 65 45 86 97 97 99 98 96 97 95 95 96 99 96 90 92 90 100 89 93 89 94 98 98 100 99 96 89 87 90 90 84
97 100 100 100 94 100 85 34 40 47 69 90 66 48 79 94 97 99 97 98 98 98 97 98 97 98 95 94 93 92 98 91 85 92 97 96 98 92 89 83 72 70 79 90
96 100 100 100 100 87 47 36 48 52 78 86 73 43 55 88 96 98 98 99 99 99 98 97 98 98 99 98 98 98 97 97 94 97 96 86 80 80 85 83 77 55 26 20
88 100 100 100 73 57 56 40 45 49 68 94 70 50 60 62 91 97 99 87 87 100 97 96 94 94 92 95 99 97 96 96 98 98 92 95 85 62 47 31 20 22 26 26
99 100 100 100 99 99 76 42 44 84 81 99 91 53 51 64 64 81 96 97 98 99 98 100 99 100 99 97 98 96 98 97 96 92 70 55 49 41 35 30 30 31 28 29
100 100 100 100 100 100 85 57 52 90 100 92 100 88 56 53 67 89 95 96 94 96 95 97 98 99 98 97 96 96 91 61 54 54 56 55 53 51 43 37 32 31 32 33
100 100 100 100 100 100 66 52 53 71 96 97 84 100 98 61 52 81 96 96 92 89 93 94 92 88 71 98 97 92 90 72 66 60 60 56 51 47 42 33 32 31 31 40
100 100 98 91 98 97 77 66 52 63 95 78 70 74 93 100 90 47 61 72 96 94 92 90 80 91 90 94 96 99 99 93 72 62 62 57 52 54 49 38 31 30 35 56
100 98 84 90 100 97 89 69 48 47 60 63 59 67 71 95 99 96 59 39 42 63 73 83 69 76 93 98 94 84 96 82 74 74 66 59 60 54 39 31 30 40 62 80
98 97 97 100 100 100 96 85 62 56 60 57 52 90 86 78 67 87 100 94 74 48 41 41 46 53 70 90 85 81 79 73 78 78 74 50 41 37 34 35 50 75 95 98
100 100 100 100 98 95 92 79 79 69 56 56 58 68 90 81 66 62 71 83 77 84 80 63 71 63 55 48 45 44 43 44 40 36 33 32 35 42 68 81 83 73 66 65
100 100 98 100 93 72 59 63 80 89 91 86 84 95 96 94 79 68 63 58 55 53 55 62 82 92 90 86 80 79 73 69 66 68 71 72 74 75 63 50 48 50 55 56
100 98 96 95 75 70 76 80 81 94 100 100 100 99 96 96 86 82 78 70 62 56 51 50 50 51 56 61 64 66 65 61 55 55 62 60 48 47 52 59 59 58 56 54
100 96 85 88 94 89 89 95 99 100 100 100 96 98 95 89 85 84 84 76 72 70 68 64 61 58 52 47 45 43 42 41 42 44 46 51 57 62 66 68 65 62 62 71
100 98 90 91 92 98 100 100 100 100 99 97 94 95 99 98 91 84 81 85 88 84 82 75 73 77 74 65 57 55 53 55 60 65 70 73 79 84 85 80 88 95 100 100

GFSNW_500_rhum_033.txt.gz
RH
14 96 100 100 100 100 99 99 99 91 100 74 19 17 26 32 32 81 53 95 99 99 99 99 99 55 51 25 49 100 100 97 83 98 99 96 98 98 99 92 73 80 55 52
97 100 100 99 100 100 100 98 94 100 100 36 19 21 34 24 64 55 72 99 99 99 99 99 65 39 39 25 60 97 97 99 96 100 94 90 97 91 83 83 87 72 58 68
100 100 100 100 100 100 100 100 98 100 98 24 20 36 28 33 73 57 99 98 98 99 99 80 45 38 28 40 66 83 94 99 98 91 96 95 97 99 90 98 90 92 79 67
100 100 100 97 100 100 96 89 98 86 30 24 38 37 26 73 47 97 99 98 99 100 100 40 42 43 22 39 60 75 98 99 97 99 72 85 97 97 94 98 97 90 77 74
100 100 96 100 100 100 96 100 94 29 35 38 37 28 69 62 90 98 99 98 98 100 99 42 43 30 21 37 54 93 98 99 100 100 95 87 100 86 99 94 94 90 90 84
100 99 100 100 100 100 100 99 49 38 48 48 57 44 93 54 98 99 98 95 96 97 93 41 36 39 36 47 68 98 96 98 98 97 98 99 95 96 86 87 100 99 92 75
100 91 99 100 100 100 93 100 51 51 64 74 39 79 68 71 99 99 98 98 96 78 30 32 35 32 34 44 81 96 86 91 95 98 98 98 89 86 99 99 93 93 96 92
84 96 100 100 100 93 78 93 69 78 93 43 45 82 44 97 100 98 99 74 49 39 29 30 30 32 37 48 56 71 74 77 88 86 88 85 90 96 91 78 86 84 94 92
84 92 99 100 100 100 100 100 83 97 55 42 86 74 68 99 98 98 97 37 24 21 27 33 28 27 35 48 50 68 76 75 67 65 66 69 85 84 82 74 80 64 80 91
86 100 89 98 100 100 100 96 89 88 36 59 98 52 94 99 98 99 98 57 33 29 29 35 35 29 27 32 40 46 46 46 49 56 55 54 60 89 86 89 88 80 73 71
99 100 95 95 100 100 100 98 100 50 39 74 100 49 93 100 97 99 98 81 62 76 48 47 38 38 35 36 46 46 48 52 53 55 56 71 70 73 87 81 88 78 70 67
99 100 98 96 100 100 100 99 90 41 45 76 100 68 83 98 100 99 98 97 76 96 90 88 89 53 39 38 42 45 52 56 71 77 98 92 88 82 79 80 86 82 84 84
89 91 100 100 100 100 100 93 58 42 49 78 100 82 80 99 98 99 100 98 90 84 90 78 62 56 54 58 71 75 58 64 78 96 99 99 97 96 94 96 91 90 89 90
76 94 100 100 100 100 100 96 80 49 48 65 98 89 53 97 99 100 96 100 98 95 77 80 85 94 91 98 98 97 97 97 98 100 99 94 95 93 97 96 91 88 86 85
90 100 100 100 100 100 100 98 99 48 49 68 95 95 50 82 90 100 97 96 98 98 98 97 97 99 98 98 96 97 94 96 98 96 86 88 88 88 97 95 91 75 79 72
100 100 100 100 100 100 97 92 98 52 55 81 96 97 55 71 95 98 99 99 99 98 96 98 100 98 91 91 95 96 95 98 98 94 87 93 96 98 97 96 84 50 29 25
99 98 98 85 100 98 91 92 85 62 65 78 100 91 56 65 67 98 100 96 100 98 96 94 93 95 97 91 90 95 99 100 99 97 96 98 94 89 63 45 34 30 29 30
100 98 100 97 98 99 98 89 78 61 66 76 97 100 58 73 82 86 94 97 97 98 98 99 100 96 96 94 98 96 98 100 100 98 97 93 67 57 54 53 49 39 32 32
91 100 100 100 97 95 77 88 78 65 100 74 79 100 78 61 64 65 81 84 87 90 96 100 97 96 99 98 98 100 99 96 85 74 69 68 69 69 58 49 43 39 37 35
100 100 100 89 96 99 98 98 79 65 71 95 82 90 100 92 75 61 56 74 84 82 89 93 94 98 97 97 98 98 96 92 91 85 84 81 74 68 64 60 56 56 47 37
100 100 79 82 100 100 100 98 81 59 52 83 76 80 94 99 100 100 98 59 51 66 82 78 71 95 100 100 93 95 97 95 92 88 85 77 67 70 66 60 60 52 40 36
100 92 84 95 100 99 95 88 78 62 49 53 93 95 85 97 96 100 100 98 79 44 40 56 66 94 96 84 91 87 81 79 84 84 75 75 75 71 75 66 44 39 40 48
100 100 100 96 99 90 77 62 62 60 53 51 67 85 95 100 100 83 73 74 87 96 87 63 69 54 75 74 73 76 81 86 82 78 82 79 76 73 63 41 37 46 71 80
100 100 88 96 90 82 67 66 70 78 76 65 56 79 97 93 89 76 69 65 59 64 72 81 97 100 90 62 49 47 48 48 50 49 46 45 42 40 49 72 74 75 70 56
100 99 81 68 68 79 79 87 100 100 100 100 99 96 94 97 83 77 74 70 63 59 59 58 60 62 63 76 92 92 89 84 80 73 72 74 76 74 69 66 64 53 52 58
100 91 68 67 77 95 100 100 100 100 100 99 90 92 96 97 90 79 79 72 68 69 76 74 73 65 56 53 51 49 49 50 52 54 55 54 52 51 51 47 48 58 65 73
100 90 78 76 85 99 100 100 100 99 98 95 88 89 91 93 91 83 82 87 86 81 90 83 78 76 72 66 63 62 59 54 49 47 47 48 50 58 68 76 80 84 87 90

GFSNW_500_rhum_036.txt.gz
RH
100 100 100 83 30 100 93 100 100 88 84 99 74 56 51 39 31 35 34 37 54 64 100 89 90 96 84 55 25 68 67 78 58 100 79 77 88 98 100 97 99 98 98 98
97 100 98 97 79 100 98 97 100 100 100 93 62 53 65 30 37 45 36 48 55 97 100 90 98 91 59 31 46 81 88 100 85 93 98 98 96 98 97 97 97 85 71 64
73 95 100 100 59 100 100 100 100 100 97 97 93 98 80 36 43 38 40 60 91 100 99 98 97 54 29 32 65 62 64 91 97 97 99 99 97 97 98 99 100 91 84 68
60 98 95 98 95 98 100 100 98 85 85 63 96 95 41 42 42 41 51 85 100 98 96 97 44 32 26 32 52 47 93 98 98 100 97 95 99 98 96 92 94 95 80 88
71 100 100 96 99 100 100 100 97 92 100 94 100 60 36 48 51 70 82 100 98 98 98 68 39 42 20 34 59 82 97 99 99 100 92 98 100 94 98 94 95 99 82 97
96 97 100 100 100 100 100 100 100 100 100 100 73 42 52 76 86 90 100 99 94 99 98 42 38 21 29 42 62 90 98 98 97 98 91 86 94 99 92 90 98 97 95 93
88 91 98 100 100 100 99 99 100 100 100 95 60 68 87 92 92 98 100 99 98 98 97 37 23 20 26 35 51 74 90 92 98 100 96 96 90 83 94 79 70 84 90 93
81 80 88 88 97 100 100 100 100 96 57 87 76 91 72 100 88 99 99 98 100 95 99 38 15 16 20 22 48 66 85 82 100 98 100 89 79 94 88 88 97 92 84 70
75 69 74 100 96 100 100 100 100 77 99 93 95 58 93 99 99 99 99 100 82 46 50 32 20 18 24 36 64 71 75 67 80 82 78 75 77 83 84 88 85 84 81 74
75 85 92 97 94 95 100 100 100 80 98 100 65 77 100 97 100 99 99 55 42 24 32 32 27 27 31 41 48 58 64 66 67 63 59 72 80 79 85 86 78 76 76 64
82 94 84 92 98 100 100 100 100 93 93 79 54 99 100 99 99 99 99 68 48 24 27 26 18 26 23 26 33 42 56 50 48 49 58 58 55 61 73 95 83 81 80 78
72 72 98 85 90 97 100 100 98 97 99 63 76 100 99 99 100 99 97 83 67 70 40 37 36 38 40 32 35 40 46 43 50 58 72 62 59 67 74 81 86 87 95 89
61 69 95 88 98 100 100 100 92 98 63 60 94 100 95 98 99 97 99 99 74 98 96 95 100 78 54 39 38 45 42 49 55 72 81 91 95 94 95 91 95 96 94 90
46 67 94 94 100 100 100 100 99 94 58 62 99 100 87 98 99 99 99 100 97 83 100 100 80 62 46 41 40 42 52 61 66 71 91 91 90 93 97 98 98 99 99 98
50 65 88 97 90 92 100 100 99 70 51 55 98 99 86 94 100 99 99 99 99 97 79 76 77 84 78 76 79 86 90 88 93 96 96 93 87 91 93 96 96 96 94 92
74 98 96 93 90 100 100 84 99 58 47 57 84 99 96 63 98 100 98 98 98 89 96 83 71 78 86 82 89 97 98 96 95 98 97 97 93 96 98 95 100 94 84 79
85 92 88 91 96 100 100 93 100 83 51 55 93 99 97 71 99 100 89 92 98 97 99 97 98 97 92 97 97 98 92 98 98 98 96 95 96 96 99 98 97 88 72 37
85 75 89 100 100 100 99 100 100 100 52 55 93 99 94 93 84 100 100 100 100 98 98 98 96 94 96 96 95 97 96 97 98 98 96 99 99 98 97 96 74 56 43 37
71 69 100 100 100 100 100 100 99 97 50 49 71 100 95 84 94 97 97 99 99 99 100 98 98 90 94 96 97 96 96 98 99 100 98 99 98 95 74 63 66 70 42 38
67 86 100 87 90 100 99 100 100 84 50 53 73 96 99 86 75 96 94 93 95 98 100 100 100 100 95 99 98 96 97 97 99 99 100 96 92 84 86 77 63 60 58 56
71 93 100 96 100 98 94 92 85 77 47 56 86 100 99 100 98 78 76 71 76 88 99 85 96 100 93 94 100 100 99 99 96 90 96 98 95 96 93 87 79 76 74 68
76 100 100 100 98 96 92 82 72 67 54 57 91 100 100 100 100 100 97 95 81 59 64 79 93 92 78 80 85 93 96 97 94 90 90 94 95 94 93 88 80 82 76 72
100 100 100 100 95 88 75 66 70 76 67 53 74 99 100 100 100 100 98 94 93 90 87 67 53 72 86 84 84 84 90 98 96 93 88 88 92 92 90 84 83 81 76 61
100 100 88 96 90 72 68 84 98 100 100 92 72 76 96 100 100 93 96 92 77 66 77 96 88 66 54 51 62 75 71 71 82 86 87 90 91 89 86 82 68 57 49 59
100 97 85 76 64 66 79 97 99 100 100 100 99 96 92 95 85 82 84 83 71 69 73 76 79 72 77 82 84 79 74 69 62 60 60 60 59 58 60 66 74 78 75 65
100 94 78 71 74 69 75 100 100 100 100 94 87 91 88 84 79 74 76 72 73 79 88 87 86 76 67 66 68 70 64 60 61 66 70 72 73 71 67 62 56 53 51 51
99 95 83 77 68 76 89 100 100 100 100 98 96 98 96 88 86 83 83 91 98 91 89 86 81 81 83 82 77 69 61 58 57 55 53 50 47 46 45 47 47 58 70 79

GFSNW_500_rhum_042.txt.gz
RH
4 57 72 94 100 100 83 16 11 10 77 100 100 100 100 74 72 88 100 62 43 44 44 41 40 28 25 29 44 66 67 50 43 19 46 50 35 59 97 96 96 100 100 56
8 77 68 86 100 100 97 29 46 79 83 99 100 100 100 93 98 100 92 65 55 54 46 43 35 26 48 41 71 72 71 44 20 26 35 35 40 76 99 100 100 100 98 78
5 61 56 100 64 100 78 55 99 100 100 100 99 100 100 100 100 81 70 65 60 54 48 38 27 37 57 60 80 68 52 19 30 68 68 54 69 100 100 100 100 97 83 38
7 58 64 100 85 100 87 88 100 100 90 80 100 98 100 99 84 70 79 86 66 50 36 34 38 58 76 69 79 54 20 40 85 100 95 92 98 100 100 86 98 98 56 40
41 80 69 100 100 100 100 100 90 81 78 93 100 98 93 99 67 62 76 77 47 35 42 57 71 81 76 72 61 24 22 80 89 97 98 99 85 64 46 63 83 85 42 55
48 62 46 90 100 86 97 97 100 84 100 98 87 100 100 99 65 64 84 84 46 54 92 84 87 89 83 65 30 19 65 90 94 99 98 98 75 90 73 70 76 84 69 66
45 81 45 90 100 100 100 100 100 96 97 100 100 100 100 100 100 100 84 58 90 100 98 92 99 99 76 36 21 40 84 79 92 98 97 98 99 99 98 77 66 78 83 74
59 72 42 74 100 95 100 91 100 97 100 100 98 94 91 81 100 64 78 100 100 100 100 98 100 86 43 24 29 48 76 85 98 99 98 96 96 90 98 95 76 73 74 85
56 54 52 62 93 84 92 95 100 100 99 100 100 100 100 100 74 84 94 100 100 100 100 100 89 55 28 27 36 45 82 100 97 99 97 96 94 87 86 88 98 98 96 97
52 58 78 91 79 77 92 85 92 98 100 100 98 99 100 100 93 94 100 99 100 100 98 100 67 40 30 31 59 87 97 95 98 98 94 85 84 88 83 83 83 75 90 97
43 49 67 66 61 63 67 80 96 96 99 100 100 100 100 92 94 100 100 100 100 100 100 82 29 28 30 43 88 73 96 96 88 80 78 80 77 86 82 82 89 88 91 87
34 45 45 52 51 62 69 68 72 90 100 100 100 100 92 95 100 100 100 100 97 66 57 44 25 30 36 50 51 85 93 83 64 60 65 65 80 76 72 84 95 92 90 90
32 39 50 46 62 58 68 83 88 100 99 89 99 91 97 99 100 100 100 100 74 52 57 33 25 26 31 26 33 72 73 70 57 45 39 45 52 59 53 55 70 94 99 99
29 42 54 69 67 62 67 79 92 94 100 94 98 100 99 100 100 100 100 95 64 43 33 29 29 25 27 26 37 45 49 44 37 40 41 52 60 70 73 80 76 82 92 99
25 32 43 79 76 68 68 75 87 97 99 87 91 99 98 100 100 99 100 99 100 77 52 42 36 29 28 30 32 30 29 30 36 38 38 48 66 80 82 91 91 97 100 100
22 30 55 77 72 70 64 76 87 99 100 99 90 98 99 100 99 100 100 98 100 100 100 90 69 44 40 37 28 28 26 27 38 40 44 66 86 96 96 96 99 98 100 100
28 37 59 61 64 58 64 82 99 100 100 88 93 98 97 100 100 100 98 98 99 100 100 96 88 68 46 42 40 40 37 38 50 82 87 90 93 93 98 98 98 99 98 98
33 55 48 58 76 69 85 98 100 99 91 87 96 97 100 100 100 100 100 100 99 98 100 96 92 82 66 84 87 68 91 92 93 96 96 93 89 92 97 96 97 100 99 99
40 44 55 78 82 77 91 99 99 90 82 83 87 100 94 99 100 100 100 98 99 98 98 98 85 70 69 89 96 97 96 95 91 97 93 91 93 95 97 98 99 100 100 98
47 72 80 83 91 91 94 100 93 89 83 69 75 99 100 96 96 100 100 92 93 92 95 91 86 97 94 99 97 99 100 97 92 92 94 89 91 95 97 99 99 99 98 84
60 76 79 90 88 96 97 89 84 92 87 63 61 90 100 95 97 99 92 99 93 84 92 90 91 90 86 83 83 80 77 88 90 93 96 91 99 97 99 98 98 85 70 68
51 65 70 77 91 99 86 76 82 83 76 76 82 66 100 100 97 97 98 93 87 87 82 89 90 72 73 74 73 74 72 68 73 87 99 99 99 99 97 88 93 96 94 95
49 50 56 71 97 84 66 67 85 97 98 98 96 79 87 99 99 100 97 95 92 86 81 76 80 77 76 81 80 77 77 75 76 90 100 100 100 99 98 98 98 99 99 97
41 53 80 94 88 68 73 87 100 100 93 95 100 89 73 97 99 95 95 97 96 100 98 88 90 71 63 66 75 81 79 79 83 93 100 100 100 100 100 100 100 99 98 97
72 76 96 83 76 79 81 90 99 99 98 94 90 93 83 87 93 100 95 99 97 100 96 87 84 91 94 85 70 59 55 65 83 90 91 94 97 98 98 98 96 97 96 94
73 80 83 81 84 87 90 90 100 100 100 100 96 81 79 84 90 99 100 92 99 98 98 89 85 80 76 79 83 80 82 81 75 73 75 80 87 90 90 90 88 88 90 91
76 84 78 72 71 72 81 74 88 100 99 100 100 97 96 83 71 69 83 98 99 91 83 83 86 87 86 84 79 80 75 69 69 70 69 67 66 64 68 68 65 61 59 57

GFSNW_500_rhum_045.txt.gz
RH
2 4 32 83 83 96 100 79 46 14 3 66 99 100 100 100 95 99 100 84 41 31 26 20 18 23 22 27 32 24 20 23 29 60 62 39 28 45 46 47 65 88 93 50
2 7 59 97 98 96 69 68 99 59 61 100 100 95 100 100 99 100 100 100 87 44 31 27 26 38 38 35 30 20 28 34 52 62 45 22 31 55 87 93 97 80 96 61
3 29 73 100 97 77 95 99 100 52 92 100 100 89 95 99 100 100 100 100 97 81 44 26 32 40 38 36 23 24 35 53 62 25 26 50 97 96 100 100 86 92 59 54
7 49 93 100 94 96 72 97 100 88 98 100 100 96 78 94 100 100 100 95 88 69 55 51 50 45 39 30 24 43 57 45 26 56 89 100 98 84 95 96 99 63 75 48
15 53 88 91 98 100 79 100 84 97 95 97 100 99 93 100 100 100 92 78 86 70 64 55 47 42 28 28 49 65 51 30 60 100 100 91 88 97 93 86 52 36 60 81
26 39 84 80 100 100 78 97 89 83 60 91 100 100 95 94 78 70 69 73 84 66 53 42 34 32 44 60 69 60 27 38 99 100 93 93 96 86 80 74 73 41 51 85
34 38 64 80 99 98 85 94 95 99 98 96 96 96 83 86 86 64 65 78 100 71 67 54 60 66 67 74 70 37 26 82 91 97 98 98 99 98 85 84 86 70 52 76
32 41 47 96 100 97 100 100 100 100 100 100 97 81 81 100 93 72 79 92 66 100 100 88 76 75 67 82 57 23 62 87 94 98 97 97 100 98 99 95 85 97 83 80
24 29 67 99 93 100 100 100 99 100 100 100 91 96 91 96 91 99 99 71 100 100 95 85 79 88 82 76 28 34 80 75 96 97 99 88 90 82 88 98 97 98 98 92
25 35 50 78 89 88 100 94 90 90 98 99 92 84 89 81 100 82 67 82 97 100 98 92 90 95 86 58 26 49 62 76 98 97 92 75 68 66 73 73 92 98 98 90
46 41 44 67 81 84 81 79 78 81 81 87 90 100 100 96 89 100 99 100 99 100 98 96 100 98 57 30 36 62 78 97 92 80 84 84 87 83 77 74 89 98 94 92
44 41 37 54 76 85 82 84 87 85 74 83 89 91 98 97 88 97 100 100 100 100 99 100 100 56 38 42 73 93 99 100 91 87 88 88 85 85 85 88 84 89 96 97
44 55 41 56 66 67 72 78 78 78 71 72 90 99 96 90 99 100 100 100 100 100 80 100 75 41 67 85 94 84 100 80 68 51 44 54 53 57 67 68 78 96 92 91
30 62 65 57 56 54 61 67 86 84 90 93 96 85 88 97 100 100 100 100 100 88 84 60 36 65 65 61 53 77 70 68 60 50 45 47 56 66 73 79 80 76 90 98
16 46 54 57 58 52 55 75 88 93 98 98 83 89 96 98 100 100 100 97 72 51 54 27 23 26 39 33 32 58 64 64 59 43 39 37 47 64 92 92 94 92 96 98
10 34 43 50 50 53 53 68 77 89 91 96 79 81 98 100 100 100 100 100 71 45 39 37 28 26 32 30 27 35 40 40 36 37 36 36 46 72 96 85 91 97 97 99
13 34 50 57 49 53 60 64 84 90 94 95 87 99 99 100 100 100 100 100 100 84 78 54 38 32 32 30 30 30 30 29 25 28 38 44 67 90 96 96 93 98 99 96
16 39 46 72 73 69 65 82 92 98 99 97 91 100 99 99 100 100 99 100 100 95 98 89 71 55 46 46 34 34 32 35 33 35 50 76 84 94 98 98 98 100 99 98
20 33 60 83 79 64 74 79 95 97 98 92 83 99 100 91 99 100 100 99 99 97 97 90 80 68 65 90 48 47 54 60 74 87 91 98 95 96 98 98 96 95 97 97
24 30 58 71 66 79 81 87 88 87 88 94 85 96 97 91 97 99 99 99 99 100 99 97 86 82 69 75 69 77 80 84 85 87 91 98 97 98 98 98 98 98 99 99
43 56 61 58 60 83 78 78 82 98 100 98 84 90 100 98 96 95 97 98 98 98 99 98 96 91 91 91 92 87 85 95 95 100 92 96 99 98 100 96 92 98 100 97
56 51 50 59 70 78 72 73 84 98 99 98 76 73 87 100 98 94 94 91 93 97 98 98 97 100 97 96 97 97 96 87 76 82 97 99 100 99 98 98 99 99 96 84
61 56 60 65 74 66 65 78 94 98 94 97 84 75 67 77 85 94 91 93 90 85 88 85 86 97 98 97 91 92 90 80 74 71 85 98 99 100 100 99 98 98 98 98
69 57 56 72 65 58 66 86 97 100 91 94 94 86 81 67 71 89 92 94 98 98 100 92 89 77 77 91 86 80 78 78 79 80 85 98 100 100 100 100 100 100 100 99
36 48 55 52 44 43 62 91 98 92 96 95 94 83 85 85 63 82 89 89 95 100 100 98 92 88 87 72 62 60 66 76 80 82 84 90 99 100 100 100 100 100 100 98
26 23 35 39 38 42 66 91 95 92 96 94 93 97 97 89 76 72 96 100 100 100 98 94 90 86 79 78 83 82 77 71 65 61 66 76 84 87 90 93 94 94 94 96
18 47 47 44 51 65 79 84 97 93 89 91 92 95 100 86 80 76 82 100 98 92 88 86 85 94 92 84 81 79 79 78 74 76 80 81 83 88 91 94 94 93 86 75

GFSNW_500_rhum_048.txt.gz
RH
2 4 28 82 95 61 99 100 100 86 13 6 22 74 100 94 92 100 100 88 68 59 51 35 23 21 21 21 18 20 23 19 25 24 26 41 52 52 46 27 26 37 70 35
2 13 39 90 70 73 100 96 92 78 18 24 100 98 100 97 98 100 100 92 72 59 53 37 26 23 22 21 25 21 18 19 23 33 39 46 51 34 23 30 60 75 76 30
2 28 46 79 85 76 98 100 100 40 56 92 100 94 90 99 100 100 100 99 70 51 43 36 30 24 20 19 18 16 21 23 29 40 47 40 22 52 81 94 85 95 83 31
4 38 56 85 75 88 97 100 98 32 90 100 100 94 91 100 100 100 100 100 98 84 61 35 26 23 25 24 20 21 23 22 34 56 37 41 71 95 100 87 93 75 47 33
5 41 64 83 72 47 76 100 100 100 50 83 98 96 84 79 96 100 100 97 95 90 77 57 35 27 30 24 32 29 24 34 53 32 69 77 96 99 79 88 100 59 36 44
3 33 62 95 100 74 64 100 90 95 98 100 100 90 70 84 90 88 100 93 76 65 63 55 51 46 35 34 31 26 29 51 47 50 94 90 100 95 77 80 83 74 38 34
3 28 52 86 93 97 85 93 100 97 98 96 100 94 100 84 83 90 91 76 63 81 62 52 47 42 36 32 31 28 50 59 36 94 99 100 100 89 94 87 82 78 40 43
3 30 24 76 94 99 100 94 93 92 88 91 93 84 85 76 71 60 52 62 84 88 63 55 49 60 63 65 58 59 62 41 80 94 100 100 99 98 99 89 90 96 77 67
5 48 34 77 85 99 100 100 100 100 73 86 91 81 67 53 60 67 60 68 78 72 89 95 90 81 75 65 65 75 56 25 84 100 95 94 86 98 98 92 98 95 97 98
7 48 67 91 95 95 79 86 92 82 89 97 92 69 64 73 77 71 69 72 70 84 100 95 81 81 74 71 76 66 27 81 90 99 87 74 77 77 76 92 99 98 98 99
6 47 96 85 77 86 86 92 83 90 96 89 81 77 75 73 74 96 81 72 76 99 100 97 73 69 80 79 74 30 60 77 93 89 75 79 87 86 91 91 89 89 98 98
6 41 81 77 72 68 64 64 75 73 70 70 67 60 70 74 84 97 99 100 100 100 99 94 92 77 74 72 43 34 70 83 98 89 84 78 67 72 81 85 85 92 92 84
4 39 66 75 81 78 67 68 76 70 67 62 58 58 68 78 97 100 100 100 100 96 88 97 99 75 64 45 30 52 75 96 94 82 88 78 71 62 63 62 62 74 81 78
4 41 57 67 86 80 70 85 74 60 55 59 71 78 88 99 100 100 100 98 99 95 97 90 100 84 42 33 45 72 91 95 90 70 57 54 55 58 70 70 71 64 63 88
3 41 45 56 71 69 72 72 74 72 72 86 95 94 93 99 100 100 100 100 100 100 99 100 88 56 57 60 87 91 97 97 63 55 48 44 45 54 68 79 81 89 82 80
4 43 36 47 66 57 52 61 75 78 80 88 86 90 99 100 100 100 100 100 98 91 86 88 98 97 94 82 57 66 85 77 66 62 42 37 41 55 87 98 92 89 89 99
8 51 51 64 60 51 53 74 87 78 88 84 87 100 100 100 100 100 100 100 55 66 61 45 47 34 39 40 32 35 44 51 49 40 32 31 43 69 92 99 99 94 94 97
17 64 66 62 55 52 55 72 76 82 97 94 100 100 100 100 100 100 100 100 99 61 54 39 33 28 34 36 29 29 27 30 31 30 30 39 74 82 94 97 99 94 98 98
41 54 54 56 56 50 57 61 74 92 100 98 96 100 100 100 100 100 100 100 100 93 90 87 59 64 74 48 37 27 28 34 37 37 36 53 79 90 93 98 99 97 89 95
39 43 51 60 65 67 58 60 78 95 99 92 86 96 99 98 99 100 100 100 100 100 99 97 76 78 61 55 48 48 46 53 70 81 88 92 95 96 95 98 99 98 97 97
43 45 52 63 63 56 53 67 82 98 95 92 82 91 100 97 98 97 98 100 100 100 100 100 97 89 82 88 76 71 80 84 86 91 91 90 89 98 98 100 99 98 98 98
39 47 55 66 61 51 56 65 75 83 88 85 81 81 93 100 94 93 95 95 98 98 99 100 100 100 98 88 81 89 96 100 97 82 90 96 97 100 100 97 92 96 99 100
38 51 58 57 52 44 51 67 75 79 80 84 80 72 73 85 93 85 85 95 96 93 92 95 96 98 98 98 98 98 98 98 98 86 82 88 100 100 99 98 98 100 100 99
55 53 48 44 44 45 71 72 73 75 72 78 80 83 68 66 68 76 76 90 98 98 97 97 93 87 89 100 100 99 98 97 92 84 85 91 97 100 100 100 100 100 100 99
49 46 45 38 39 52 65 60 68 74 75 77 84 88 88 78 73 68 72 100 100 100 100 100 99 96 96 84 79 84 92 93 88 87 88 92 97 100 100 100 100 100 100 100
33 51 46 44 49 47 55 51 50 74 83 81 86 92 96 92 87 91 88 94 100 100 100 100 100 97 90 90 93 87 78 70 67 67 76 89 98 100 100 100 100 97 95 97
4 10 27 42 53 51 56 55 49 67 81 86 82 90 87 88 97 100 96 96 84 96 99 96 94 96 94 90 82 79 80 82 83 83 86 83 79 79 80 83 87 95 100 99

GFSNW_500_rhum_051.txt.gz
RH
14 3 15 23 60 87 100 100 100 91 10 23 19 98 96 78 98 100 100 97 98 91 64 54 39 33 32 28 26 29 30 32 32 28 22 20 19 20 24 34 42 28 21 11
12 3 24 34 67 96 100 96 87 84 24 41 94 99 100 100 100 100 100 100 99 100 83 49 40 36 30 28 26 25 28 22 23 21 20 20 20 28 41 28 20 38 51 45
11 3 32 41 55 81 100 99 77 52 100 16 70 100 100 100 100 100 100 99 90 77 77 82 59 31 28 25 23 19 17 22 19 20 18 22 30 38 19 32 62 85 83 46
8 3 48 55 62 80 100 74 95 95 26 76 99 100 100 100 100 100 100 98 78 62 59 58 48 37 27 23 19 18 15 15 16 23 25 24 41 25 47 68 94 72 70 42
7 5 50 67 47 70 100 100 100 62 76 98 100 95 90 92 99 100 100 100 83 68 52 43 45 37 30 22 17 15 15 16 16 26 32 41 28 45 76 77 91 78 43 31
6 7 70 64 41 65 80 85 60 90 81 98 100 100 92 100 96 91 93 92 83 79 68 52 41 32 25 20 16 16 14 17 25 40 48 35 49 81 82 87 88 92 69 44
4 8 64 63 38 87 94 87 83 100 100 97 94 84 71 72 85 89 93 63 77 67 63 59 51 43 33 26 24 23 25 30 28 54 43 35 84 81 96 98 93 85 71 44
4 7 43 68 56 66 96 96 93 97 100 90 84 72 67 67 73 71 68 82 78 58 57 56 50 45 41 40 34 35 33 33 45 49 32 83 97 100 85 97 96 90 70 87
4 10 33 62 85 88 78 89 91 99 100 86 62 64 60 64 72 74 58 41 50 61 59 52 56 64 64 74 56 57 60 56 52 42 62 95 98 96 93 100 97 94 81 97
4 14 36 63 77 93 71 73 78 60 96 97 91 88 88 75 62 57 51 46 54 65 63 56 88 89 87 74 71 70 70 67 42 39 84 94 95 90 96 87 94 94 98 91
4 13 31 56 79 87 63 68 57 54 80 90 80 69 57 70 76 66 68 60 67 72 66 80 86 80 77 70 74 80 68 49 30 68 89 95 87 93 91 85 92 100 98 96
5 11 34 63 78 71 78 78 72 67 72 79 73 62 61 68 69 72 81 92 79 69 74 80 79 73 66 69 74 72 58 32 70 80 91 94 91 92 97 94 88 90 88 92
6 9 38 74 72 81 80 77 91 92 93 91 82 71 55 57 71 97 100 99 96 86 90 85 90 85 74 71 72 68 32 52 75 84 92 92 83 82 76 72 76 80 80 84
6 3 66 62 68 64 60 76 96 88 80 72 64 60 64 71 83 100 100 100 99 95 97 92 88 88 87 79 63 45 32 68 87 98 91 81 68 53 51 57 62 67 65 63
6 3 77 77 67 63 65 73 66 67 64 69 75 79 78 92 98 100 100 100 100 100 100 97 83 93 98 69 46 30 51 72 99 93 73 46 44 45 48 53 72 87 86 76
3 13 72 94 81 71 56 69 66 74 89 99 100 96 94 100 100 100 100 100 100 100 100 94 92 94 89 59 33 39 58 82 92 65 51 44 38 43 49 75 95 90 88 87
2 30 68 87 80 71 65 65 80 86 92 93 88 97 100 100 100 100 100 100 96 100 100 100 100 71 45 38 60 68 87 91 78 70 61 46 38 38 50 88 100 97 95 88
5 42 58 70 70 56 51 67 81 86 98 98 99 100 100 100 100 100 100 99 74 76 98 100 100 100 88 88 59 48 77 72 62 54 45 36 32 33 76 99 100 96 94 92
26 45 48 51 60 55 60 65 79 90 100 99 97 99 100 100 100 100 100 100 100 100 95 60 49 38 47 44 38 36 33 34 31 31 31 33 32 63 100 99 98 96 98 97
42 41 42 60 59 54 50 62 66 87 97 96 95 97 100 100 100 100 100 100 100 100 100 76 66 85 57 44 40 39 34 31 33 38 42 44 85 100 100 100 99 98 100 97
50 51 59 58 54 45 44 58 68 83 89 92 88 88 100 100 100 100 100 100 100 100 100 95 92 84 75 79 58 60 65 76 75 81 96 100 100 99 99 98 95 98 100 99
51 51 47 46 44 52 57 50 61 72 77 80 81 78 95 100 100 100 100 100 100 100 100 100 100 99 90 86 80 72 74 77 87 91 100 99 97 97 97 99 98 98 98 98
44 42 40 48 55 57 43 48 59 62 64 74 78 76 78 92 100 100 100 100 99 98 97 98 100 100 100 99 89 81 82 96 98 99 98 94 97 100 98 97 98 98 98 99
44 42 44 46 50 45 49 54 62 61 65 70 73 80 77 71 79 86 96 100 100 98 96 94 92 95 98 99 99 100 100 100 98 98 98 98 97 97 98 99 96 97 97 99
32 39 47 35 34 49 48 58 67 64 62 68 72 75 86 85 71 70 73 82 100 100 99 97 96 97 96 90 92 96 98 99 99 100 100 99 99 100 100 100 100 100 100 99
29 37 39 43 42 43 60 70 74 66 69 70 72 73 74 93 92 88 87 81 78 100 100 100 100 98 98 100 100 96 89 86 87 91 94 97 100 100 100 100 100 100 100 100
6 14 38 49 51 50 59 71 76 68 58 68 78 80 80 82 94 100 100 100 94 81 97 100 100 100 100 98 97 98 100 100 97 91 87 82 77 74 77 82 83 83 83 85

GFSNW_500_rhum_054.txt.gz
RH
35 22 7 26 39 64 80 100 94 66 16 36 22 80 100 100 100 100 100 100 95 98 67 76 63 59 54 48 44 36 43 37 43 41 39 36 33 25 20 19 18 14 21 14
34 19 5 36 39 48 77 98 74 27 50 17 65 100 100 100 100 100 98 100 100 77 55 68 58 42 44 44 42 40 38 37 37 36 32 26 21 18 19 17 18 26 20 51
34 17 4 38 47 56 77 95 71 100 22 49 98 100 100 100 100 100 100 99 99 80 58 64 52 40 37 33 31 31 29 32 31 22 17 17 15 17 16 18 24 31 70 61
32 16 4 40 38 62 85 68 77 60 49 100 100 94 100 100 100 100 100 99 99 95 60 55 54 48 42 35 31 27 25 29 23 20 16 12 12 18 20 25 40 54 81 40
30 15 6 37 31 55 68 95 51 56 100 100 100 99 100 100 98 100 100 100 90 89 82 79 75 56 41 33 28 24 22 21 17 15 13 14 16 30 30 39 66 62 67 79
29 13 7 31 36 62 64 72 24 65 95 99 100 100 100 100 100 100 97 87 79 68 59 49 49 53 56 45 32 24 20 16 14 17 17 15 30 42 39 74 73 74 65 65
28 13 6 39 41 57 45 50 36 57 98 99 92 87 90 94 90 82 73 77 76 63 60 52 42 36 34 32 30 22 17 15 14 17 20 20 38 41 71 71 76 80 66 74
28 14 5 46 34 36 50 71 92 89 89 69 58 74 64 63 58 46 49 63 65 63 53 54 54 50 39 31 26 21 18 16 14 17 25 45 35 75 79 79 82 82 78 80
28 16 5 43 31 45 44 69 66 86 73 62 48 54 63 61 68 72 72 67 60 49 49 54 53 48 42 38 31 25 22 23 25 37 40 40 61 86 100 92 92 98 95 90
27 15 6 44 33 52 60 67 90 98 88 72 68 75 79 75 77 72 70 51 44 48 55 56 55 59 62 63 61 71 50 47 46 50 43 40 71 96 95 90 92 83 86 76
26 14 6 50 54 45 57 72 68 72 83 69 73 68 65 71 71 66 53 49 46 47 59 67 63 76 91 86 72 82 64 58 62 54 36 59 79 95 94 86 87 93 90 93
25 12 5 40 63 42 40 55 53 58 89 77 78 82 90 74 65 72 79 76 61 52 61 60 69 80 76 72 63 66 66 63 52 36 47 73 92 97 96 90 88 92 96 95
21 8 5 31 67 67 61 61 46 53 73 76 75 68 64 66 74 67 76 83 90 84 62 58 68 76 70 66 57 59 68 58 34 35 66 87 95 93 90 92 90 83 81 84
18 7 4 27 60 79 82 70 59 73 97 94 87 74 70 66 62 79 84 100 97 92 73 58 71 90 82 72 65 62 63 48 36 67 76 94 95 92 91 72 61 68 72 73
9 4 5 38 74 85 76 85 95 88 86 75 71 66 63 62 67 74 97 98 96 84 77 80 90 99 88 81 76 64 58 39 47 70 85 98 93 76 59 58 62 75 85 86
5 3 3 66 70 64 73 88 80 79 74 65 70 72 80 88 90 100 100 100 100 98 95 96 100 100 87 73 76 61 42 33 65 87 99 96 69 51 44 43 65 92 88 93
4 2 14 76 62 66 73 88 74 70 84 88 87 85 87 100 100 100 100 100 99 100 100 100 100 92 87 72 78 44 32 43 71 97 97 66 56 46 38 39 66 97 96 92
2 7 62 84 73 75 81 79 69 80 86 90 86 86 100 100 100 100 100 92 60 75 97 100 100 97 91 77 54 37 51 76 89 97 81 66 59 50 38 37 66 98 99 96
14 62 80 89 77 75 86 77 82 84 95 99 93 94 100 100 100 100 100 99 100 99 99 100 100 100 86 89 55 57 77 84 95 88 62 56 44 38 34 38 83 94 94 98
55 87 92 90 74 73 72 67 74 76 91 99 99 90 99 100 100 100 100 100 100 100 100 100 100 96 89 85 74 49 54 72 48 47 36 35 36 35 35 66 98 97 97 97
56 78 78 62 59 62 59 58 58 71 82 96 100 98 98 100 100 100 100 100 100 100 100 100 100 97 85 74 66 58 54 47 40 37 41 43 59 64 81 98 98 99 99 100
32 47 51 54 62 56 48 42 51 59 68 85 90 97 95 98 100 100 100 100 100 100 100 100 100 100 97 84 75 71 59 57 61 64 66 79 81 95 97 98 98 99 99 100
39 43 45 52 57 54 43 46 53 59 75 71 78 91 88 92 99 100 100 100 100 100 100 100 100 100 100 97 93 79 73 68 66 75 92 91 99 100 100 99 96 98 99 100
45 45 41 50 54 45 53 56 52 60 61 64 77 80 88 83 90 98 98 100 100 100 100 99 100 100 100 100 100 99 94 85 86 91 98 99 100 98 99 98 98 98 98 98
44 41 45 43 42 53 54 56 51 58 66 68 72 73 75 82 85 76 79 84 93 100 100 100 100 99 98 98 99 100 100 100 100 100 100 99 99 99 99 100 100 100 100 100
23 34 40 44 50 52 62 59 55 60 70 71 75 77 74 68 68 90 86 75 76 81 100 100 100 99 99 99 96 91 95 98 99 100 100 99 100 100 100 100 100 100 100 100
12 24 32 38 48 60 61 59 68 67 73 72 66 68 79 73 72 81 96 98 92 88 79 86 100 100 100 100 100 100 100 100 100 98 97 96 91 85 88 93 100 100 100 100

GFSNW_500_rhum_057.txt.gz
RH
51 39 20 12 16 38 60 41 37 10 25 22 78 100 100 100 100 100 100 100 92 88 100 100 97 60 31 30 26 25 25 26 29 26 23 26 26 29 29 30 22 18 13 18
55 38 19 10 20 42 63 20 30 22 26 71 100 100 100 100 100 100 100 91 94 82 94 94 92 62 40 27 23 26 28 29 34 29 32 37 39 35 29 20 15 14 12 30
58 36 18 8 21 47 68 18 19 23 37 90 100 100 100 100 100 100 100 96 75 62 84 75 88 64 60 44 34 40 33 40 39 35 36 34 30 21 18 14 12 14 27 45
61 35 18 9 27 51 66 20 8 23 63 100 100 100 100 100 100 100 100 100 91 79 61 63 76 48 47 50 48 41 37 33 30 27 24 18 15 15 11 9 21 20 64 58
60 34 16 10 38 61 38 28 13 75 95 99 92 100 100 100 100 100 100 100 90 63 62 66 58 45 42 40 36 33 31 35 26 22 14 12 11 11 11 25 28 30 61 72
60 33 17 10 35 45 17 36 87 97 99 100 99 96 99 100 99 100 96 97 100 94 76 67 64 59 52 44 39 33 28 24 21 20 15 13 15 15 26 34 52 56 64 66
60 34 18 10 39 29 58 90 96 95 90 78 78 91 98 100 95 84 83 85 76 72 76 72 66 68 66 63 60 51 38 27 21 17 14 16 19 28 37 68 64 62 65 78
61 36 19 11 36 35 51 68 80 84 78 73 78 86 78 54 50 52 57 59 65 58 48 40 36 34 36 35 35 36 35 26 18 17 17 15 30 39 76 90 87 82 74 83
63 38 21 9 34 35 46 47 54 68 62 65 67 76 66 54 57 67 71 68 66 63 51 50 46 43 37 35 32 29 24 21 20 19 16 16 43 54 80 80 88 83 84 85
65 39 22 8 30 45 39 48 64 55 55 49 70 71 65 68 64 68 62 55 39 35 40 48 53 54 50 53 50 47 31 22 20 18 23 35 43 72 80 91 89 92 82 75
63 40 24 8 29 40 50 49 38 51 46 43 55 49 59 65 69 66 65 57 48 44 41 47 55 52 53 62 70 77 51 42 41 35 58 48 63 93 94 90 82 94 82 79
57 39 24 8 31 36 37 60 79 80 91 72 58 66 76 75 76 68 57 51 51 50 42 49 56 57 62 74 77 79 58 49 62 56 59 44 59 83 96 84 83 94 95 89
52 34 22 7 25 43 40 59 58 58 79 75 74 72 71 78 74 67 66 75 83 82 61 52 58 60 70 77 66 59 55 50 64 59 44 46 85 100 92 86 97 96 79 75
48 28 15 5 26 59 40 48 52 60 89 99 89 82 70 63 55 59 61 70 86 94 88 69 58 60 69 72 66 56 56 62 69 53 36 71 94 99 88 93 89 66 67 71
40 20 6 4 31 74 52 51 50 56 79 90 85 80 75 66 66 64 73 75 73 94 95 89 76 66 64 72 69 72 68 68 65 40 46 83 100 99 92 78 63 58 73 94
25 9 4 4 43 86 85 67 79 97 94 86 74 67 59 53 55 56 60 85 99 95 87 85 89 85 77 73 79 95 70 63 61 41 75 96 100 93 71 52 44 58 91 97
11 5 2 18 49 93 95 92 93 92 86 77 81 82 87 83 92 98 97 98 99 98 94 93 100 95 88 86 98 93 73 58 46 42 76 100 96 73 49 38 36 49 93 95
6 2 5 49 92 100 95 76 82 76 86 87 90 87 85 93 100 100 99 100 81 72 93 97 95 99 95 86 80 73 59 41 40 61 96 98 78 54 47 50 45 39 83 91
4 14 68 86 100 89 82 74 76 87 95 100 99 93 91 99 100 100 100 100 99 99 92 88 94 98 99 98 80 66 48 50 71 83 98 97 64 61 60 46 39 39 78 87
13 76 89 100 99 87 79 83 84 91 93 100 100 100 93 96 100 100 100 100 100 99 100 100 95 100 100 74 65 53 70 86 85 96 98 83 59 58 41 37 35 53 88 96
70 74 83 92 88 80 77 70 79 74 86 100 100 100 99 100 100 100 100 100 100 100 100 100 100 99 84 68 78 84 71 69 93 87 72 56 45 35 37 46 66 85 96 98
75 80 83 93 81 66 58 55 57 55 79 100 100 100 100 100 100 100 100 100 100 100 100 100 100 100 92 79 84 99 88 73 64 52 49 48 45 55 86 98 92 96 94 98
74 92 93 79 57 52 50 46 46 59 77 92 97 100 100 98 100 100 100 100 100 100 100 100 100 100 99 98 95 87 86 84 80 73 75 74 81 90 92 90 95 99 99 99
49 72 79 58 48 45 53 52 52 63 65 76 77 82 97 100 97 100 100 100 100 100 100 100 100 100 100 100 99 98 100 98 98 86 78 91 100 97 94 96 97 100 100 96
41 43 50 52 45 53 54 52 64 63 60 64 68 73 78 86 95 94 92 96 98 100 100 100 99 99 100 100 100 100 100 100 100 100 100 100 100 99 99 99 100 100 99 100
38 44 44 46 49 49 54 66 70 67 63 59 64 73 72 75 74 81 91 88 80 80 87 100 100 100 100 100 100 100 100 100 100 100 100 100 100 100 100 100 100 100 100 100
15 28 44 49 51 55 60 64 74 72 66 59 58 68 67 68 72 80 80 87 95 93 86 82 82 99 100 100 100 98 99 98 98 100 100 100 98 98 98 100 100 100 100 100

GFSNW_500_rhum_060.txt.gz
RH
95 91 57 26 12 20 28 4 20 51 62 74 99 100 100 94 100 99 80 90 100 100 100 93 100 51 35 33 34 41 45 42 35 29 25 24 22 22 25 29 28 24 21 22
75 82 45 24 11 23 14 5 38 58 71 98 100 100 100 100 97 52 56 86 96 96 100 99 81 48 34 29 32 34 35 31 29 27 27 29 33 36 38 35 31 23 16 19
97 76 41 21 12 22 7 10 44 68 98 100 100 100 100 87 67 65 51 69 78 75 96 96 82 61 31 27 30 31 28 28 28 31 37 43 42 39 36 29 16 13 17 15
97 74 41 19 12 23 7 16 50 83 94 83 94 94 100 93 84 74 60 68 86 98 99 90 92 69 37 30 26 26 28 35 35 42 41 36 33 27 18 13 11 10 22 23
97 72 42 17 13 22 8 38 72 75 96 89 90 90 100 100 100 100 89 81 82 75 98 96 100 63 63 61 51 52 51 45 41 34 28 24 17 16 12 11 11 13 23 37
96 71 44 14 15 21 10 33 67 81 65 75 75 81 99 100 100 100 100 96 88 95 85 94 81 53 48 50 48 45 37 33 30 22 18 14 13 15 14 13 22 26 41 63
97 73 45 12 23 22 18 26 65 61 71 65 98 60 74 78 96 90 97 98 90 89 86 89 93 69 54 48 43 39 34 29 26 23 18 14 16 18 18 30 35 55 72 72
97 79 49 15 33 32 75 62 75 93 85 78 78 60 50 57 49 60 61 68 84 93 95 91 81 77 77 71 62 60 59 55 39 25 18 17 18 18 30 49 94 92 83 77
97 86 57 20 18 64 64 59 49 60 67 69 62 67 65 62 68 64 64 60 61 58 57 59 53 49 43 41 38 36 35 40 39 26 22 20 21 19 41 90 96 97 85 83
97 93 65 26 19 24 53 67 65 68 66 74 64 56 61 72 77 74 73 68 59 54 51 47 48 50 46 46 41 38 30 27 25 21 17 16 24 36 54 98 98 93 88 87
100 99 70 39 14 29 36 43 52 58 56 61 56 63 69 68 72 77 72 63 50 43 36 39 46 52 54 49 51 50 39 31 29 25 20 27 35 46 75 100 100 90 92 88
100 100 77 50 14 31 30 42 43 55 50 42 54 64 56 72 71 69 68 58 46 44 40 39 51 56 58 53 70 69 52 42 46 40 32 50 50 67 100 100 96 97 93 82
100 100 78 49 16 20 32 31 45 51 50 45 38 50 61 65 75 70 63 54 55 54 54 55 50 50 54 53 61 74 58 44 51 54 58 60 49 59 100 100 97 96 85 67
98 100 66 35 12 10 39 43 55 74 70 78 73 62 67 65 69 72 65 59 56 60 78 77 72 67 57 64 63 61 54 50 49 58 60 51 45 84 100 100 98 92 70 66
90 84 42 19 7 8 40 43 44 73 69 85 81 80 80 74 68 58 52 53 55 72 72 76 91 93 59 58 55 76 55 47 48 55 60 43 60 93 100 100 89 63 59 69
87 48 19 8 4 10 63 45 48 59 70 79 82 77 74 78 66 56 56 56 61 61 72 79 84 100 71 64 66 75 67 56 49 62 58 43 73 100 100 98 60 46 63 96
53 16 8 3 5 40 59 42 58 67 86 96 93 81 64 56 53 61 76 81 88 89 85 85 94 98 86 83 88 79 60 58 57 64 56 55 93 100 100 68 42 39 50 90
13 7 3 4 39 81 78 84 85 99 99 81 68 69 80 83 84 92 95 100 100 93 84 88 96 97 89 79 98 80 60 68 72 65 44 61 97 100 95 52 44 52 40 66
7 3 7 51 99 100 92 94 100 93 80 81 90 93 91 88 95 97 97 100 99 100 100 87 89 98 87 90 91 77 68 80 56 40 43 76 99 99 60 54 60 49 42 43
4 22 55 88 100 100 100 100 80 79 93 99 100 100 97 91 95 100 100 100 100 100 100 95 85 85 83 83 74 75 73 71 40 40 53 93 100 76 61 61 54 37 37 49
33 61 97 100 100 100 95 76 77 81 100 100 100 100 100 90 98 100 100 100 100 100 100 100 100 98 76 75 84 70 70 56 67 82 87 100 98 73 58 49 36 36 45 92
82 93 100 100 89 75 73 73 78 82 95 100 100 100 100 100 100 100 100 100 100 100 100 100 100 99 100 85 74 74 79 80 78 80 99 94 74 56 45 43 70 86 94 95
77 97 95 100 88 77 70 63 72 77 75 89 100 100 100 100 100 100 100 100 100 100 100 100 100 100 99 95 82 95 100 100 95 98 95 76 72 60 58 84 90 95 96 98
67 79 88 84 68 60 60 62 57 54 61 72 93 100 100 100 100 100 100 100 100 100 100 100 100 100 100 100 100 100 100 100 100 100 100 94 86 95 99 93 97 96 95 97
62 66 80 64 68 63 58 58 58 58 64 67 75 90 84 90 98 100 100 100 100 100 99 99 99 100 100 100 100 100 100 100 100 100 100 100 100 100 100 98 100 95 88 95
45 60 68 79 76 63 55 59 60 60 64 70 64 68 75 77 80 84 89 99 95 91 92 94 97 100 100 99 99 100 100 100 100 100 100 100 100 100 100 100 100 100 100 100
29 42 52 66 77 70 60 58 61 61 65 69 67 62 67 76 73 76 80 81 91 100 99 91 83 82 87 94 97 100 100 100 100 100 100 100 100 100 100 100 100 100 100 100

GFSNW_500_rhum_063.txt.gz
RH
97 100 88 60 23 13 30 21 36 72 86 69 65 91 99 82 45 95 66 83 100 100 98 98 81 81 83 78 43 45 51 56 63 66 66 66 60 47 37 29 25 21 22 26
98 100 81 56 20 14 29 33 59 90 95 98 100 63 54 91 96 95 89 96 100 84 90 100 95 97 60 46 46 53 52 54 49 46 41 38 33 29 28 27 25 25 30 24
100 99 79 54 18 14 38 58 71 70 70 59 72 70 49 68 73 84 88 100 96 94 94 99 100 67 40 43 42 44 46 43 38 33 31 32 31 30 31 27 29 30 23 18
100 100 79 55 17 14 29 58 76 62 48 53 73 76 52 69 56 67 78 91 93 100 100 100 92 39 37 36 35 36 34 33 30 30 31 32 36 37 34 33 27 19 18 17
99 99 79 51 18 14 20 62 68 47 38 73 96 91 77 48 46 53 72 79 74 99 100 100 95 81 49 33 31 31 31 31 31 33 36 37 36 32 24 17 14 12 11 17
100 98 82 48 20 13 22 45 59 61 71 70 82 82 94 100 97 53 63 75 87 83 94 97 81 74 47 37 29 27 30 37 40 40 35 30 28 18 15 13 13 13 17 30
100 99 90 48 24 14 23 42 52 51 61 64 65 81 93 98 97 95 86 83 80 90 96 96 92 66 57 53 52 50 48 40 34 30 24 19 17 15 15 19 18 24 31 34
100 100 96 53 25 18 25 54 36 29 44 61 52 50 64 77 93 100 98 95 97 96 96 100 85 66 56 49 44 40 37 33 29 24 24 19 15 17 20 20 33 58 83 72
96 100 100 66 24 24 17 49 38 37 50 44 37 42 40 50 81 91 94 99 100 100 100 97 92 96 92 80 70 61 58 57 53 49 36 20 19 21 21 34 78 90 90 86
100 100 100 93 26 37 48 31 55 63 71 70 54 45 58 65 80 82 82 80 77 78 74 73 68 62 55 52 54 52 46 41 40 46 39 26 23 23 21 43 89 96 96 97
100 100 100 99 71 18 49 41 50 60 69 77 70 64 65 65 67 71 67 60 52 46 41 42 47 51 54 47 46 40 36 33 29 26 25 26 30 30 36 69 97 98 96 100
100 100 100 100 98 48 19 47 51 52 64 71 79 77 66 68 65 72 70 65 55 46 40 37 40 43 48 51 50 45 43 40 40 37 31 30 31 36 46 74 100 99 89 90
98 100 100 100 100 79 15 36 61 61 62 61 64 62 58 66 70 73 70 61 48 43 46 51 49 46 49 49 45 47 55 52 51 46 47 46 49 52 62 91 93 100 91 86
90 76 90 97 100 84 19 21 49 51 59 53 50 49 55 48 44 58 66 64 53 48 48 57 69 63 56 45 41 45 66 54 48 47 48 64 61 55 56 94 97 100 91 87
76 68 66 77 84 54 12 13 42 46 53 54 51 64 56 55 65 68 64 66 61 55 52 53 70 71 63 49 39 60 64 58 48 49 43 64 60 49 69 96 98 100 87 58
68 72 72 81 61 18 6 14 50 47 57 59 66 84 78 74 87 87 71 63 57 51 52 64 65 77 70 54 50 58 55 57 52 53 44 68 60 45 75 95 98 94 58 54
88 75 77 39 9 4 4 31 58 43 58 72 88 96 91 91 80 78 66 50 52 62 61 68 83 93 71 61 68 67 58 54 53 48 49 68 58 46 86 90 98 66 44 48
90 63 16 4 3 3 23 72 63 49 64 65 85 98 96 81 63 58 55 79 100 100 98 93 89 81 68 58 85 77 69 58 58 63 56 64 56 55 90 90 96 48 47 42
37 7 3 5 11 65 100 99 78 58 70 93 90 85 85 70 72 79 93 99 100 94 93 95 86 75 70 81 94 80 73 69 69 75 70 66 50 62 95 93 82 50 57 48
7 6 34 99 100 100 100 100 98 92 100 92 98 100 98 90 93 98 98 100 100 96 100 100 93 71 66 75 85 82 78 74 73 79 70 55 46 63 87 97 59 62 62 45
20 84 100 100 100 100 100 100 100 94 97 100 100 100 100 100 100 100 95 100 99 98 100 98 88 83 74 59 76 85 86 73 70 70 42 42 56 79 92 90 67 61 42 36
62 100 100 100 100 100 100 100 90 90 100 100 100 100 100 100 100 100 100 100 100 100 98 97 92 95 98 96 100 96 76 75 70 52 51 69 78 92 99 77 60 46 43 57
77 100 100 100 98 93 94 85 90 100 100 100 100 100 100 100 100 100 100 100 100 100 100 100 100 100 100 100 89 75 78 76 65 76 82 82 98 100 93 61 48 56 79 92
81 100 100 100 100 98 100 100 95 92 88 87 89 99 100 100 100 100 100 100 100 99 100 100 100 100 100 99 99 96 95 93 97 97 98 100 100 95 72 73 78 89 95 99
60 95 100 98 91 90 87 79 73 73 68 68 77 86 96 97 96 100 100 100 100 100 100 100 100 100 100 100 100 100 100 100 100 100 100 100 99 100 90 97 99 99 96 99
40 66 87 86 83 89 88 70 65 65 66 65 70 70 74 82 85 87 90 92 97 98 99 99 98 99 100 100 100 100 100 100 100 100 99 100 100 100 100 100 99 97 95 95
93 33 57 73 83 88 92 92 72 59 61 65 62 69 68 72 74 76 79 76 77 84 94 96 93 86 84 92 100 100 100 100 100 100 100 100 100 100 100 100 100 100 100 100

GFSNW_500_rhum_066.txt.gz
RH
13 24 78 90 34 15 27 46 58 33 40 30 59 32 63 94 99 81 61 73 94 93 79 76 74 82 98 94 94 83 61 49 53 55 61 56 45 46 60 63 66 53 42 29
23 47 79 88 31 16 25 46 51 32 39 35 30 58 39 58 65 96 100 97 97 99 93 90 83 66 70 96 81 47 50 52 56 57 66 79 85 80 73 58 45 32 28 29
16 55 90 88 29 16 35 48 63 37 45 54 50 39 66 68 62 64 83 99 97 95 98 90 77 88 91 91 55 52 54 55 63 61 55 54 52 46 38 30 26 32 38 33
44 82 88 88 28 15 41 57 50 40 50 53 42 51 35 56 73 89 96 89 89 80 92 95 90 100 75 55 47 57 58 54 49 40 35 32 29 28 28 30 30 35 32 28
93 87 94 91 29 15 43 57 36 37 46 92 71 42 46 46 47 65 90 94 100 93 89 90 96 67 43 44 45 48 47 38 34 32 34 36 35 35 36 36 34 32 24 18
95 91 93 79 30 15 31 51 35 35 71 83 90 58 39 42 41 47 82 82 85 100 100 100 75 48 36 35 36 35 32 31 29 30 34 38 39 35 33 25 20 16 13 12
94 99 95 87 42 17 14 40 42 36 66 83 95 83 80 81 49 54 60 66 78 86 96 98 90 75 54 33 30 29 28 28 34 41 40 36 33 28 19 14 14 15 15 15
95 98 98 99 63 20 15 29 40 54 60 67 84 76 87 93 93 80 75 70 77 87 100 100 100 75 61 57 52 46 45 46 40 35 29 26 22 19 16 16 18 20 23 41
95 98 100 96 87 31 18 23 38 36 43 49 69 61 78 98 100 100 100 99 100 100 100 100 98 80 70 59 52 45 40 36 33 30 31 28 21 17 17 20 23 34 71 82
69 89 95 99 100 62 24 28 40 32 26 28 35 40 75 70 89 92 99 100 100 100 100 100 99 97 87 76 61 57 53 54 54 50 51 45 32 22 23 24 42 65 93 94
47 86 94 100 100 94 48 27 44 37 43 31 28 31 43 70 86 86 80 74 70 65 55 55 57 64 65 62 64 65 68 63 56 47 42 43 39 28 27 31 35 92 98 100
36 49 60 87 100 100 91 48 38 38 61 69 65 59 69 77 84 82 79 73 63 59 46 38 37 39 43 46 42 41 42 38 38 35 30 34 36 36 33 31 55 94 97 98
34 46 49 57 77 98 100 85 48 44 69 71 63 57 67 74 74 74 71 66 65 51 48 45 40 37 40 43 44 43 41 40 42 39 35 30 28 30 35 38 54 89 88 96
44 71 82 46 49 66 85 100 72 33 61 55 50 51 76 77 72 67 67 68 62 51 46 52 52 49 49 41 35 37 36 44 51 50 38 44 45 38 43 50 64 93 92 96
41 73 87 81 96 97 86 100 73 21 43 67 69 70 86 62 59 59 43 50 58 56 55 48 47 43 39 42 34 34 31 36 51 56 45 50 60 66 62 57 79 96 92 95
63 85 88 96 100 96 93 89 39 9 56 66 67 62 49 47 54 39 46 62 66 59 55 45 41 44 37 37 41 42 32 38 56 62 48 53 54 66 56 53 61 90 94 96
92 99 98 95 82 66 52 28 9 11 52 58 65 65 56 42 47 57 73 79 76 60 49 46 49 54 51 43 50 62 39 40 50 53 56 48 52 66 54 48 73 93 95 89
98 95 61 30 14 6 4 4 8 75 74 53 53 64 76 88 98 97 85 76 69 54 50 62 79 79 68 44 73 66 57 51 49 49 56 52 48 63 56 49 76 88 92 60
93 24 6 4 3 3 4 41 100 100 74 47 63 93 100 100 100 92 72 63 62 73 93 98 91 90 79 72 74 75 68 63 58 61 64 59 49 56 60 47 78 87 84 48
14 15 16 16 34 80 100 100 100 98 68 94 100 100 100 100 84 74 78 80 96 98 100 93 86 84 88 76 78 83 75 72 68 69 68 67 53 54 57 51 87 91 84 50
49 100 92 100 100 100 100 100 100 90 97 100 97 100 97 97 84 96 98 99 100 100 100 94 84 94 92 89 81 77 78 78 82 80 71 67 68 61 52 52 85 88 78 57
92 100 100 100 100 100 100 100 100 100 100 96 100 100 100 100 100 100 100 100 97 96 95 96 96 100 100 100 92 78 80 82 71 73 64 67 56 46 45 54 78 91 67 67
90 100 100 100 91 92 94 96 100 100 100 100 100 100 100 100 100 100 100 99 100 96 96 100 100 92 94 100 100 100 98 90 69 71 70 56 47 54 57 84 82 94 75 64
61 100 100 100 91 91 100 100 100 100 100 100 99 100 100 100 100 100 100 100 100 100 100 100 93 87 93 100 100 95 83 80 78 68 65 76 84 87 94 100 100 98 68 58
97 80 100 100 100 100 100 100 100 100 100 99 94 86 93 99 100 100 100 100 100 100 100 100 100 100 100 100 100 100 100 100 100 98 100 100 100 100 100 100 99 96 98 98
99 84 88 100 100 100 100 100 100 100 87 79 71 76 83 94 98 100 100 100 100 100 100 100 100 100 100 100 100 100 100 100 100 100 100 100 100 100 100 100 100 100 100 100
99 100 72 95 100 100 100 100 100 93 76 72 68 70 74 83 76 87 89 89 85 80 87 92 98 99 100 100 99 100 100 100 100 100 100 100 100 100 100 100 100 99 94 93

GFSNW_500_rhum_069.txt.gz
RH
1 3 20 70 91 32 18 35 28 20 27 29 37 51 66 44 50 73 88 48 51 90 96 87 95 95 75 97 100 99 100 100 82 86 89 94 90 86 68 65 60 49 56 49
2 6 46 81 91 30 16 28 33 27 25 32 50 39 51 55 63 70 68 62 86 74 74 56 56 98 100 97 90 89 79 81 83 75 84 82 75 63 50 54 62 67 58 44
2 13 59 80 96 29 16 30 38 34 42 31 35 57 47 52 56 61 66 64 76 75 84 94 70 72 85 100 88 80 62 52 54 59 64 65 64 64 64 73 69 49 36 34
2 18 66 73 81 27 16 42 44 37 48 56 42 40 45 52 63 60 77 86 83 76 64 71 65 66 73 97 70 50 47 52 59 62 62 65 70 71 64 46 36 31 29 28
2 21 69 82 88 30 15 40 40 44 34 85 41 37 34 44 65 73 76 67 75 66 75 62 63 78 85 72 52 60 61 62 59 45 40 38 35 32 31 32 35 36 32 29
2 15 75 87 93 46 16 34 42 46 58 90 62 28 33 30 45 81 96 99 100 99 91 86 86 88 56 43 43 50 51 46 40 36 37 38 40 44 42 41 39 38 37 28
3 10 75 85 87 87 20 28 35 48 59 96 95 89 69 48 43 50 78 78 95 100 100 98 91 54 41 38 39 41 38 34 32 34 34 39 43 41 37 34 26 21 18 16
3 10 57 84 73 91 32 20 39 49 60 80 90 95 100 87 62 51 66 62 81 88 92 100 90 81 66 38 35 32 31 30 34 40 42 40 37 33 28 19 15 14 17 18
8 13 22 78 90 83 88 21 38 45 59 59 66 95 100 100 95 90 80 76 85 97 100 100 100 90 70 60 54 46 44 46 46 39 34 28 27 22 19 16 17 21 25 27
26 36 34 66 93 92 92 47 20 33 41 47 44 52 67 85 97 100 100 100 100 100 100 100 98 84 72 64 56 54 47 42 37 34 34 38 40 27 20 18 23 27 41 75
72 67 25 29 55 82 94 91 26 26 34 37 40 37 34 58 67 89 99 98 96 84 82 86 98 97 89 82 74 65 58 54 55 55 52 49 46 44 31 25 26 28 60 92
89 73 44 32 52 92 88 89 77 29 41 34 34 36 40 46 73 79 84 83 77 63 48 40 42 49 62 67 64 69 64 64 61 58 52 47 42 42 42 34 29 28 74 93
86 91 58 45 39 82 100 95 100 79 40 37 41 52 68 57 74 86 82 79 76 66 49 41 36 36 39 42 42 42 40 43 44 40 39 35 31 32 36 35 31 30 79 91
100 90 49 49 55 78 82 100 97 100 66 38 38 60 74 70 75 84 79 77 76 69 52 46 44 41 40 39 37 34 34 37 40 42 40 42 41 33 31 29 37 43 79 91
100 52 60 56 74 76 84 93 100 100 99 64 42 69 65 57 67 84 78 67 57 66 62 56 51 46 38 33 34 37 31 30 33 46 49 55 46 42 41 35 45 52 61 93
70 54 61 85 100 100 100 88 98 99 100 92 52 55 61 58 61 85 52 55 41 38 53 59 57 52 39 30 28 36 31 33 28 34 44 58 53 50 56 57 59 56 86 96
60 77 70 82 88 85 85 85 93 100 100 86 32 68 63 66 83 79 60 52 38 31 38 54 55 46 39 32 26 50 48 37 34 31 42 52 57 48 51 65 59 55 56 85
100 85 80 74 52 34 24 24 23 33 34 20 20 67 75 72 72 55 50 47 41 45 60 58 50 43 41 37 66 67 56 44 42 36 45 48 48 52 43 62 60 50 57 86
94 94 48 15 8 5 4 4 5 7 34 62 78 70 71 67 58 60 69 70 74 69 66 55 49 63 72 93 77 65 59 52 48 37 38 47 49 51 47 46 61 47 55 91
100 44 16 8 4 4 6 16 96 100 100 98 73 65 65 74 82 97 94 87 83 62 72 71 75 89 88 87 92 71 62 55 55 60 60 58 61 57 50 44 56 49 57 86
89 93 71 73 96 100 100 100 100 100 100 86 70 59 70 95 100 100 90 76 85 86 98 93 94 100 96 97 94 82 63 64 69 73 72 65 62 61 56 51 56 52 57 90
94 98 100 99 100 100 100 100 100 100 100 99 92 96 100 100 98 96 91 98 97 93 100 100 100 100 100 97 94 92 74 59 67 66 64 60 60 67 59 64 60 54 62 95
100 94 100 98 91 100 97 100 100 100 100 100 100 100 100 100 99 100 100 97 99 100 100 100 100 99 99 100 97 91 85 73 71 72 69 63 64 65 65 59 51 50 62 84
100 100 100 100 92 100 100 100 100 100 100 100 100 100 100 100 100 100 100 100 100 100 100 100 100 96 90 97 100 100 100 96 76 74 67 70 70 56 56 59 61 66 83 83
100 100 100 99 100 100 100 100 100 100 100 100 100 99 99 100 100 99 100 100 100 100 100 100 100 98 100 100 100 100 100 100 94 91 82 73 78 96 100 100 100 100 100 97
90 99 100 99 100 100 100 100 100 100 100 100 100 98 97 100 100 100 100 100 100 100 100 100 100 100 100 100 100 100 100 100 100 100 100 100 100 100 99 99 100 100 100 100
78 73 100 100 94 100 100 100 100 100 100 100 98 85 79 95 100 100 100 100 100 100 100 100 100 100 100 100 100 100 100 100 100 100 100 100 100 100 100 100 100 100 100 100

GFSNW_500_rhum_072.txt.gz
RH
2 2 2 25 72 75 28 22 32 26 23 39 34 45 50 50 47 67 64 44 59 84 68 59 75 82 74 78 82 80 79 87 96 100 92 89 95 90 82 89 93 91 76 55
2 2 2 21 68 76 30 23 35 36 38 45 35 44 44 50 41 56 50 50 78 61 72 74 66 83 96 92 90 79 76 90 88 90 93 88 96 90 92 90 98 86 54 50
3 2 2 13 70 75 40 21 33 39 51 35 48 42 40 44 46 39 52 52 55 55 59 53 63 93 95 94 98 89 82 86 84 74 70 72 82 76 79 70 73 79 49 44
3 2 2 10 75 77 59 20 36 38 37 48 38 41 41 48 50 65 45 60 62 52 35 28 38 72 91 100 96 84 63 58 64 67 64 67 70 66 66 50 77 68 58 51
3 2 2 7 60 82 84 17 35 40 36 82 36 34 30 48 52 67 74 68 60 65 54 56 56 53 62 84 84 62 52 54 55 58 61 66 77 89 89 79 72 55 43 35
4 3 3 5 51 80 87 28 28 41 57 91 41 36 30 44 64 87 94 87 77 74 82 56 53 66 93 83 54 46 47 57 61 52 48 67 82 74 66 71 59 35 30 28
6 4 5 7 50 86 86 64 27 40 57 76 93 62 46 36 48 79 93 83 92 92 86 79 80 86 82 52 44 51 54 52 45 38 39 40 47 43 42 44 40 36 36 33
12 13 14 18 22 83 94 98 23 36 57 68 87 97 90 62 42 52 74 70 79 92 83 90 87 68 55 39 38 42 45 38 36 35 37 45 46 46 43 41 36 32 26 21
18 28 36 37 18 60 100 100 47 39 52 67 62 82 100 100 80 57 61 63 68 87 98 98 83 73 61 36 36 42 54 34 34 35 40 44 40 35 31 26 19 16 16 19
21 26 53 74 23 24 97 100 99 34 48 60 57 66 70 99 100 93 94 97 97 100 99 100 98 89 78 61 53 43 39 41 49 48 40 34 30 27 24 20 18 17 23 28
9 27 70 85 42 32 37 95 100 92 26 39 46 48 57 61 78 93 100 100 100 100 100 100 100 96 81 70 63 58 54 49 44 39 36 42 43 46 39 26 20 22 26 40
35 32 69 94 60 31 38 52 100 100 65 28 36 42 42 39 47 77 94 99 93 80 69 64 88 96 94 87 83 74 69 62 57 55 52 50 49 47 46 45 30 28 30 52
52 72 91 95 70 36 42 49 89 100 100 38 42 44 37 35 32 64 89 93 83 65 57 47 42 41 51 61 70 64 65 65 63 61 59 56 53 45 40 40 41 36 32 47
98 92 86 93 54 45 51 61 48 97 100 96 41 42 47 57 48 65 84 88 86 70 58 46 44 40 38 42 42 42 43 44 42 40 42 43 41 36 31 30 34 35 34 38
93 74 86 83 54 46 67 95 75 55 85 100 87 47 52 56 82 76 81 86 78 75 67 55 46 44 41 38 40 35 36 36 34 36 32 38 39 38 33 32 31 28 30 36
89 79 47 49 65 58 69 97 98 69 44 93 100 88 54 53 83 63 88 91 78 59 43 55 62 60 49 42 38 37 26 25 29 35 28 32 43 49 43 39 44 37 36 37
90 67 80 78 70 68 69 76 88 95 61 74 97 100 67 58 92 75 58 92 75 61 44 36 46 52 48 42 37 50 41 34 32 33 29 28 35 53 50 43 43 48 44 49
79 88 87 81 57 35 30 32 39 72 95 96 96 100 100 58 83 81 70 76 62 51 43 36 30 32 46 44 50 49 40 38 38 37 39 32 31 48 50 45 42 48 58 56
97 96 88 50 21 12 7 7 6 18 54 92 96 100 88 76 81 88 83 64 50 44 42 37 36 50 47 46 54 66 74 62 48 44 44 34 32 46 46 44 42 40 56 56
98 100 96 36 13 7 5 4 4 4 10 48 74 94 60 75 80 81 67 48 49 50 72 61 57 54 52 60 73 74 72 70 54 47 49 45 40 41 40 44 45 40 41 58
93 100 87 92 100 100 100 100 95 95 72 70 85 89 96 83 98 93 74 74 88 77 72 74 66 88 80 83 86 83 80 72 65 57 56 57 59 61 58 53 52 46 41 56
89 100 96 100 100 100 100 100 100 100 100 100 100 95 99 100 100 100 97 100 90 77 84 90 96 100 99 92 87 86 80 74 71 59 60 66 64 66 67 62 55 53 44 56
90 100 100 100 100 100 100 100 100 100 100 100 100 100 100 100 100 100 100 99 96 99 100 100 100 100 100 94 89 86 86 85 85 68 58 64 55 54 60 60 60 63 59 63
86 94 100 100 100 100 100 100 100 100 100 100 100 100 100 100 100 100 100 99 100 99 100 100 100 100 99 95 95 98 90 94 92 88 80 68 67 63 65 70 69 64 65 56
80 92 99 100 100 100 100 100 100 100 100 100 100 100 100 100 100 100 100 100 100 100 100 100 100 100 100 99 90 87 95 98 94 82 75 74 77 77 68 63 64 66 65 69
37 67 82 99 100 100 100 100 100 100 100 100 100 100 100 100 99 100 100 100 100 100 100 100 100 100 100 100 100 100 100 100 100 100 100 100 98 100 98 99 100 100 100 100
47 56 71 86 100 100 99 100 100 100 100 100 100 100 100 100 100 100 100 100 100 100 100 100 100 100 100 100 100 100 100 100 100 100 100 100 100 100 100 100 99 99 100 100

GFSNW_500_rhum_075.txt.gz
RH
4 4 3 3 4 66 87 19 27 38 32 26 36 44 41 38 44 37 49 70 88 64 98 86 78 99 97 89 86 100 98 100 100 100 100 99 97 100 100 100 99 99 97 80
4 4 4 3 3 68 91 20 22 30 52 32 45 38 41 35 42 49 38 55 62 56 60 94 98 68 72 67 71 70 72 80 86 99 99 96 95 97 99 98 98 98 98 90
4 4 4 3 3 39 87 36 24 30 48 40 39 45 41 42 33 40 41 42 61 56 62 71 96 93 80 80 79 73 73 76 79 75 87 92 96 99 98 95 98 100 85 83
3 4 4 3 4 26 86 68 27 30 30 62 48 42 37 51 58 48 44 41 43 42 39 40 65 90 86 84 87 83 78 83 78 73 70 74 77 85 80 87 78 80 82 70
3 4 5 3 5 25 87 89 25 33 37 55 33 34 39 46 61 80 64 48 39 46 59 43 38 67 82 97 83 71 75 72 77 72 66 65 66 75 72 68 65 70 67 68
3 4 6 4 6 18 82 100 42 32 43 92 32 33 32 49 54 78 76 68 51 51 51 52 59 65 67 76 85 78 58 52 52 59 60 62 66 69 69 73 66 65 68 56
3 6 6 6 12 15 67 100 85 34 41 100 47 39 37 37 62 89 93 89 85 72 67 52 50 55 73 90 62 52 50 57 62 56 57 58 74 85 89 89 82 71 49 39
4 12 10 7 18 38 23 98 100 33 40 79 94 92 77 52 40 72 86 74 85 90 85 77 73 78 83 74 46 52 57 60 55 43 42 47 56 68 51 50 58 51 42 41
7 30 11 11 20 50 22 51 100 70 41 53 80 84 100 92 60 42 65 68 62 77 87 90 87 79 71 53 40 42 50 43 40 37 40 42 43 43 45 44 44 43 38 31
12 70 24 6 19 65 44 48 66 100 46 57 67 68 85 100 100 86 67 64 63 74 85 90 100 74 77 56 38 38 48 43 38 35 34 41 44 41 35 31 29 23 17 17
30 86 73 32 20 59 63 64 48 60 100 54 62 64 67 86 93 100 100 99 98 100 99 95 100 90 83 75 56 46 46 40 37 45 48 41 37 32 32 29 23 19 19 28
21 76 66 40 49 63 74 76 55 34 68 99 53 62 59 55 64 62 93 100 100 100 100 96 100 100 93 80 73 64 61 54 54 48 44 44 46 47 48 45 31 23 24 30
68 48 40 100 91 74 71 72 56 50 35 82 99 38 56 50 59 54 72 98 100 90 75 66 61 83 94 96 92 85 77 70 65 57 55 54 53 52 50 48 44 42 30 30
80 84 94 99 80 52 40 52 51 52 48 53 96 76 36 50 52 54 43 82 97 87 74 57 48 42 46 55 69 73 70 65 62 63 60 58 57 54 52 49 41 38 40 36
72 87 78 82 72 59 39 55 51 45 61 41 64 99 47 57 52 50 44 82 95 90 76 62 51 51 48 47 50 46 45 41 39 35 36 37 40 40 38 35 31 28 32 36
60 73 62 72 57 60 50 64 46 46 72 53 40 79 92 49 64 83 78 93 92 84 76 68 62 55 49 48 48 46 36 32 30 31 28 25 27 33 37 31 29 27 29 31
80 70 89 100 70 64 56 38 39 53 74 84 49 56 94 82 54 74 93 93 94 86 70 52 47 47 36 31 38 58 44 36 32 26 24 24 22 24 31 40 38 37 37 38
70 78 96 99 84 51 30 21 20 42 72 90 80 62 92 100 80 55 82 85 84 95 76 61 55 41 32 24 54 41 38 32 28 25 25 26 27 24 24 34 42 40 41 48
58 57 78 100 52 43 13 5 5 10 30 72 82 85 96 100 98 61 81 84 74 83 68 57 52 46 38 43 33 41 42 36 35 48 45 34 36 35 28 30 46 48 42 41
64 57 83 74 100 100 96 21 4 4 7 46 80 100 100 99 100 90 81 97 95 83 64 53 41 33 45 27 31 41 36 41 56 68 60 51 43 45 31 31 44 43 40 38
55 64 76 99 97 100 100 100 93 36 37 49 96 100 100 100 98 100 98 94 84 65 63 55 33 56 64 52 42 44 52 62 61 65 68 60 48 45 48 38 41 45 41 39
53 55 59 94 99 100 99 100 100 100 99 100 97 100 100 100 100 100 98 93 88 71 61 61 60 69 66 69 78 82 79 77 78 78 72 70 57 56 54 54 55 57 55 51
77 44 42 75 87 100 100 100 100 100 100 100 100 100 100 93 99 99 99 98 96 96 92 75 81 97 97 95 97 96 90 86 86 83 81 80 61 63 72 73 69 63 61 54
81 66 64 79 99 100 100 100 100 100 100 100 100 100 100 100 100 100 100 100 100 92 91 100 100 100 100 100 97 84 90 89 87 98 94 85 72 65 62 58 53 53 58 58
63 68 66 82 99 100 99 100 100 100 100 100 100 100 100 100 100 100 99 99 97 100 100 100 100 100 100 100 100 89 85 85 82 86 96 90 78 65 54 55 64 71 70 64
57 59 51 60 76 98 95 100 100 100 100 100 100 100 100 100 100 100 99 100 100 100 100 100 100 100 100 100 100 100 100 95 93 97 100 99 94 78 73 73 70 80 87 89
35 30 42 41 33 68 98 93 100 100 100 100 100 100 100 100 100 98 100 100 100 100 100 100 100 100 100 100 100 100 100 100 100 100 100 100 100 100 100 98 98 100 100 100

GFSNW_500_rhum_078.txt.gz
RH
5 5 5 3 4 3 4 76 29 25 27 24 29 34 44 45 36 33 62 61 56 85 97 95 94 78 80 94 100 100 100 69 45 34 38 38 39 72 96 100 98 96 100 86
5 5 5 3 3 3 4 57 46 28 35 32 30 38 40 39 39 36 43 52 52 62 82 76 88 98 93 84 96 94 100 100 99 100 96 76 79 79 100 98 96 89 98 92
5 5 4 3 4 4 4 39 65 30 34 39 30 36 41 43 41 42 32 39 50 58 73 80 68 72 71 68 71 69 77 96 100 100 100 97 89 93 97 99 100 98 95 100
5 5 4 4 4 4 4 10 79 34 34 39 44 34 39 49 50 50 41 33 46 38 42 76 97 87 87 84 72 71 73 78 91 97 98 95 91 90 95 100 100 95 88 97
5 4 4 4 6 5 5 8 80 47 36 35 68 48 44 58 66 64 60 45 39 32 30 34 74 85 85 92 89 80 77 81 76 75 76 86 90 85 91 88 81 82 82 99
5 4 4 4 12 8 5 8 37 80 38 62 90 50 40 47 63 76 71 60 49 50 44 39 36 60 57 76 89 83 71 73 76 74 68 64 65 69 80 80 74 74 69 71
5 4 3 5 13 13 7 21 21 94 49 63 100 52 37 40 61 75 94 85 64 58 64 48 48 52 60 72 81 75 63 56 54 60 64 62 61 66 71 74 79 81 68 74
4 4 3 6 27 18 7 37 23 60 84 51 100 99 54 44 42 77 94 88 95 93 89 86 63 57 58 75 76 55 52 53 58 60 58 55 65 78 83 88 92 90 79 55
4 3 3 6 37 26 10 58 34 33 85 50 79 100 100 100 74 43 78 88 74 91 90 88 86 81 82 80 58 47 56 58 61 51 42 41 51 63 64 54 60 70 72 49
4 3 3 8 40 38 37 56 54 38 38 94 56 88 100 100 100 84 52 61 68 68 79 88 93 93 79 72 51 42 45 53 44 39 37 42 46 49 49 49 47 48 44 42
4 4 4 14 18 16 51 62 84 45 51 42 84 73 87 100 100 100 100 91 87 95 92 92 92 100 80 78 55 39 41 50 46 40 36 43 47 44 40 37 33 32 27 22
7 5 5 16 42 43 90 76 71 49 57 45 56 80 87 83 100 100 100 100 100 100 100 100 100 100 98 82 77 61 55 54 50 45 52 48 42 38 41 43 37 27 22 23
9 6 7 28 84 85 82 79 60 29 58 57 34 88 70 69 62 73 82 100 100 100 100 96 85 93 100 98 87 80 72 66 62 57 56 56 55 53 51 50 49 47 36 28
10 11 10 20 52 58 44 70 42 29 18 34 39 31 98 65 58 60 52 66 100 100 95 77 62 58 74 89 93 96 90 81 75 70 67 65 62 62 59 56 53 50 44 43
10 11 15 31 27 40 66 67 50 23 20 21 30 25 72 87 55 61 56 43 67 100 93 79 59 51 45 48 60 66 77 64 62 56 54 54 50 52 50 51 50 47 39 35
14 14 13 38 46 76 75 65 46 39 31 16 12 36 45 94 51 50 53 50 53 81 94 78 69 57 52 51 55 49 46 42 36 34 30 28 30 30 32 35 37 35 33 30
14 15 15 25 46 74 55 47 25 34 39 31 43 70 48 92 82 50 58 56 68 80 85 81 73 67 54 52 68 59 45 41 38 34 30 23 19 20 24 24 28 33 34 31
14 14 14 35 58 70 84 54 12 13 28 53 66 82 78 98 97 61 68 96 88 85 91 83 69 52 44 31 53 40 24 22 22 23 22 21 20 17 18 18 19 22 33 37
14 14 10 36 62 79 100 88 42 4 17 22 65 94 97 100 100 80 77 92 97 89 90 89 79 55 43 42 39 32 27 21 24 25 24 21 20 21 22 20 21 19 23 38
16 15 9 34 61 84 100 100 93 8 5 18 74 100 100 100 100 100 91 74 87 75 72 81 83 60 54 46 39 34 27 19 21 30 30 30 45 48 40 34 33 25 23 39
14 14 8 25 58 83 93 100 97 79 70 91 95 100 100 100 100 100 98 85 76 83 75 75 64 56 64 40 37 33 29 28 25 28 35 54 61 61 56 43 40 32 27 38
13 13 7 27 56 76 99 100 100 100 100 100 100 100 100 100 100 100 100 95 93 92 76 72 60 70 51 38 43 49 50 51 56 60 63 63 68 65 64 55 46 48 38 35
14 12 6 35 49 64 99 98 99 100 100 100 100 100 100 100 100 100 100 99 87 81 78 65 75 60 62 66 64 75 90 92 89 82 77 77 77 73 68 54 51 56 56 54
16 10 7 34 58 69 100 100 100 100 100 100 100 99 100 100 100 100 89 96 93 81 77 92 93 98 96 100 100 100 99 91 87 84 84 90 87 84 74 56 55 57 58 58
15 8 7 52 67 68 87 91 93 100 100 100 100 100 100 100 100 100 96 99 99 100 100 100 100 100 100 100 100 100 100 91 89 87 84 83 92 92 82 71 62 56 50 49
10 8 11 30 62 65 74 88 91 98 100 100 100 100 100 100 100 100 99 99 100 100 100 100 100 100 100 100 100 100 100 95 96 94 86 94 96 86 82 82 77 74 72 70
8 11 28 47 47 53 51 59 83 94 100 100 100 100 100 100 100 100 100 100 100 100 100 100 100 100 100 100 100 100 100 100 100 100 100 100 97 98 100 100 100 100 100 100

GFSNW_500_rhum_081.txt.gz
RH
16 14 10 8 6 4 4 4 17 47 39 25 24 35 27 28 27 36 52 54 67 84 92 90 95 100 100 100 100 89 81 56 52 80 100 90 100 100 83 60 42 36 50 55
18 15 11 8 6 4 5 4 10 64 44 31 29 38 35 31 33 28 43 50 57 69 83 99 76 86 93 96 100 100 83 73 43 78 95 90 86 67 50 35 55 83 77 56
20 15 12 7 6 5 3 6 8 68 49 28 32 30 36 40 38 44 36 41 48 58 71 73 67 58 64 75 93 100 100 65 70 58 36 28 26 28 26 39 70 64 66 72
23 17 12 8 7 5 6 7 10 41 67 37 32 32 36 45 41 54 47 50 42 37 50 86 71 71 79 80 88 75 94 100 100 90 68 47 42 42 41 52 86 76 72 87
24 19 14 10 7 5 7 6 13 17 100 41 33 35 40 48 49 53 58 54 42 37 32 52 88 88 78 84 85 76 73 81 96 100 99 92 93 89 86 82 76 80 96 98
24 20 15 11 7 5 4 11 14 16 83 50 47 60 54 44 52 48 69 79 58 45 40 31 68 79 66 73 79 71 78 79 79 79 76 81 84 84 90 93 99 95 97 91
25 19 16 13 6 5 5 12 13 18 31 99 59 87 70 42 45 62 74 88 82 59 53 46 37 52 51 64 80 77 66 73 78 77 73 68 64 64 67 77 82 79 72 72
24 19 18 14 7 4 6 16 32 32 36 49 78 93 94 49 43 55 76 99 98 96 84 75 52 51 62 76 86 76 68 58 58 66 67 65 64 63 67 71 75 77 81 78
20 17 19 13 6 4 4 9 34 36 32 54 97 72 100 100 66 54 54 94 90 91 100 100 85 64 57 57 85 64 55 56 57 59 59 60 58 68 78 84 83 90 94 88
9 15 19 14 7 4 4 9 28 66 75 45 62 84 98 100 100 100 73 63 90 80 81 91 95 95 86 82 78 50 51 58 63 57 45 43 47 51 61 58 57 64 78 78
9 11 11 10 7 5 6 27 47 72 61 62 41 79 85 100 100 100 100 86 77 76 77 81 86 92 87 83 72 47 44 50 50 43 40 42 46 50 51 48 45 42 44 58
9 6 5 8 6 6 8 33 41 36 61 50 31 39 90 91 98 100 100 100 100 100 94 90 92 92 99 84 79 57 50 52 53 51 46 46 48 46 43 39 37 34 28 27
5 5 3 5 4 5 7 20 55 37 23 40 31 23 35 82 89 100 100 100 100 100 100 98 98 93 98 99 87 78 66 60 59 60 51 51 48 47 51 54 53 52 46 29
6 6 4 3 3 5 7 23 50 37 22 17 24 14 22 76 76 99 100 100 100 100 100 100 93 78 84 99 100 92 80 76 70 70 70 69 66 61 61 61 59 54 51 48
6 6 6 6 4 5 25 49 55 45 27 26 32 11 9 40 69 86 74 72 93 100 100 95 78 61 58 66 84 93 93 92 84 78 73 68 64 60 59 58 58 57 54 50
7 7 8 7 6 5 29 55 63 34 25 29 30 9 10 21 85 70 76 54 50 80 100 96 81 67 58 61 61 65 66 67 58 50 45 42 40 38 37 38 41 44 44 43
9 8 9 9 7 6 37 59 64 41 14 23 30 14 15 37 85 91 71 65 55 44 56 87 89 72 57 69 72 51 50 46 39 36 32 30 27 25 24 24 25 26 31 35
11 11 10 10 10 9 54 74 80 32 10 22 42 42 45 61 76 100 83 69 60 50 44 75 80 76 63 72 68 65 44 34 26 22 23 23 23 23 22 20 19 20 20 23
13 12 11 11 11 9 52 84 79 11 11 17 28 60 84 81 100 100 92 80 65 54 51 64 74 86 75 62 56 47 30 25 25 20 17 16 18 21 20 20 22 20 20 20
15 12 10 12 12 19 64 86 87 93 82 64 80 100 100 100 100 100 98 81 87 88 81 74 81 87 94 67 47 45 43 42 37 30 24 20 17 16 21 23 36 35 28 28
19 16 10 13 13 19 61 76 94 100 100 100 100 100 100 100 100 100 99 94 97 97 96 85 87 88 87 76 60 50 46 41 37 34 28 21 17 17 24 37 45 41 33 33
23 18 10 14 15 12 49 67 77 91 96 100 100 99 100 99 100 100 100 100 94 87 88 83 75 76 76 73 62 45 39 30 25 25 32 34 30 36 52 52 52 53 47 35
26 19 12 11 15 10 23 53 69 84 86 99 99 91 93 100 99 100 100 100 98 99 87 76 88 87 71 60 52 45 36 40 54 61 65 74 79 78 72 69 66 57 51 47
31 22 18 15 15 9 8 40 58 78 88 100 100 91 92 100 100 100 100 98 90 90 93 100 90 73 72 77 89 89 97 100 100 100 100 98 93 88 87 81 75 71 58 55
35 25 20 18 14 7 10 31 47 62 84 100 100 99 100 100 100 100 100 100 98 100 100 100 100 99 96 99 100 100 100 100 100 100 100 99 93 92 99 95 85 77 69 61
34 23 20 17 10 8 8 44 53 62 72 97 100 100 100 100 100 100 100 99 98 100 100 100 100 100 100 100 100 100 100 100 100 99 89 89 94 100 100 96 86 80 72 65
25 21 19 12 8 11 18 32 60 63 68 88 100 100 100 100 100 100 100 100 100 100 100 100 100 100 100 100 100 100 100 100 100 96 90 87 75 68 86 95 100 100 96 87

GFSNW_500_rhum_087.txt.gz
RH
42 39 34 28 19 14 10 9 9 8 4 6 34 43 37 40 35 39 51 46 64 92 100 99 100 100 100 100 100 99 45 34 81 91 94 100 100 99 100 71 54 53 44 43
44 41 35 28 20 15 11 9 9 8 5 5 33 51 34 35 36 39 54 52 43 61 74 88 100 100 100 100 100 100 97 35 32 97 100 96 93 85 88 75 63 51 48 48
48 43 34 27 19 14 12 10 9 8 6 6 24 57 38 40 33 39 42 53 44 45 71 78 93 100 100 100 100 100 100 68 21 65 69 72 68 75 90 84 59 55 44 42
54 44 35 27 20 15 13 10 10 8 5 5 23 65 55 37 45 33 42 46 50 40 61 98 89 100 100 100 100 100 100 100 37 36 92 100 96 99 99 65 59 52 59 55
56 43 34 28 20 17 15 12 9 9 5 5 13 48 66 45 44 45 50 52 50 51 38 75 100 96 95 100 100 100 99 100 86 53 97 100 100 99 90 75 69 70 73 66
55 43 35 29 22 18 15 12 10 9 6 6 12 33 67 55 52 57 57 56 67 55 54 37 81 91 79 93 100 100 100 56 41 78 87 97 86 83 71 62 60 61 58 49
55 44 38 31 24 19 16 13 10 9 7 6 9 22 59 66 71 71 58 68 79 67 60 53 36 82 80 81 87 100 100 85 46 47 62 61 55 46 38 33 29 26 25 26
56 47 40 32 25 21 18 14 10 7 6 8 9 17 29 84 74 74 52 68 88 87 66 61 49 38 58 60 85 76 97 98 100 100 99 91 64 39 38 32 46 61 85 94
60 51 44 32 25 22 20 15 11 7 5 11 9 19 34 90 88 84 46 58 86 100 90 84 71 45 44 62 78 83 71 72 85 92 92 98 100 100 100 100 100 99 92 93
63 55 48 33 28 24 21 16 12 8 6 12 18 11 21 60 92 99 75 48 74 99 95 92 94 78 50 55 62 78 74 67 60 63 70 70 68 66 67 64 64 62 64 66
66 58 46 39 32 27 22 17 11 8 6 12 15 19 10 24 83 100 100 77 56 71 96 88 88 90 86 66 64 78 71 56 56 60 58 58 56 58 58 62 68 71 71 72
71 54 39 37 34 30 23 17 10 8 7 6 10 20 11 10 63 91 100 100 86 60 81 89 79 79 87 92 84 76 68 53 56 61 61 53 47 45 48 54 59 56 53 55
75 42 39 33 32 28 22 18 10 7 5 6 7 14 16 7 18 88 98 95 98 86 60 83 85 78 83 91 90 84 71 54 52 63 62 50 46 46 48 50 50 47 42 38
66 34 33 24 27 20 18 16 10 7 5 4 7 13 12 6 9 47 91 99 90 83 83 81 86 85 86 94 99 89 78 64 56 59 66 62 58 55 53 58 45 47 54 55
65 38 25 28 16 13 10 10 10 8 6 4 10 16 12 7 7 10 76 90 88 88 84 89 94 93 93 89 93 98 89 80 69 67 68 76 70 58 57 60 65 77 81 73
72 37 26 15 11 11 7 7 8 7 5 5 12 18 10 8 6 7 28 80 85 83 88 100 98 100 96 82 78 94 94 95 95 92 89 91 88 76 73 76 80 79 70 62
62 47 19 10 10 9 7 7 7 6 6 5 14 32 22 12 8 7 12 61 88 91 87 96 100 100 100 84 68 67 89 100 100 100 100 98 95 89 80 72 57 43 39 38
55 49 14 14 10 10 8 8 8 7 8 7 9 33 50 28 12 12 11 46 81 84 88 100 100 100 100 100 76 80 76 87 98 100 96 81 59 45 37 33 29 26 23 21
51 54 22 12 12 12 10 9 8 8 8 10 10 20 51 64 60 53 22 28 89 91 92 93 80 96 100 98 90 77 69 65 64 65 65 62 53 38 31 26 23 20 19 19
68 48 21 10 12 11 11 9 8 7 8 13 18 32 52 76 70 63 58 57 92 97 96 75 69 81 82 84 84 88 83 70 62 60 51 33 30 30 28 27 28 27 23 18
81 39 24 21 13 14 13 12 10 9 8 7 14 50 46 62 88 99 100 99 88 86 100 97 85 100 87 68 66 68 79 86 76 62 52 39 33 33 32 33 34 30 23 20
68 47 34 29 20 16 17 16 14 13 9 7 8 34 52 56 82 99 100 100 100 84 98 96 98 100 94 94 76 77 82 80 77 75 69 58 46 39 39 40 29 20 17 15
69 51 49 27 25 24 23 21 18 17 12 8 6 21 63 61 78 97 98 100 100 100 99 99 100 100 100 97 99 97 87 77 71 66 60 55 52 50 43 36 34 28 23 22
72 61 53 32 29 30 30 26 22 19 15 12 8 10 57 71 72 84 94 99 95 95 94 100 100 90 99 100 92 81 67 61 56 75 83 75 73 66 58 63 72 73 66 63
78 72 59 38 31 35 36 33 27 22 16 13 8 8 56 76 93 100 99 95 87 86 90 100 100 100 97 88 78 66 59 78 97 100 100 93 94 92 96 96 98 100 100 100
86 77 68 46 42 42 38 34 29 25 21 13 8 7 62 75 99 100 100 100 94 95 100 99 100 100 100 92 84 83 98 100 100 100 100 100 100 98 92 93 99 100 100 99
78 78 61 52 50 44 42 35 30 25 17 12 9 7 55 69 98 100 100 100 100 96 99 100 100 100 100 96 100 100 100 100 100 100 100 100 95 70 49 34 31 36 54 79

GFSNW_500_rhum_090.txt.gz
RH
46 43 40 41 40 34 27 20 15 12 8 6 3 14 44 35 41 38 44 56 58 76 71 96 100 100 100 100 93 26 32 82 76 88 100 100 100 100 78 60 54 52 41 53
46 47 41 40 40 36 30 20 15 12 9 7 4 10 47 37 36 32 39 48 58 63 79 90 100 100 100 100 99 99 37 42 81 94 91 85 83 79 68 64 55 54 54 64
51 52 45 43 40 38 30 20 14 12 9 7 4 5 42 48 40 34 40 38 48 61 79 87 100 100 100 100 100 100 98 28 40 77 77 70 69 90 70 55 51 51 47 60
58 58 49 48 42 40 30 19 15 12 9 7 5 4 35 59 41 41 40 42 43 50 50 90 99 100 100 100 100 100 99 80 25 67 84 82 93 97 85 55 62 60 68 77
64 63 54 52 44 43 28 19 15 12 9 8 6 5 20 62 54 45 49 48 50 47 55 58 97 99 100 100 100 100 100 95 74 48 87 96 97 96 98 94 76 56 68 89
67 66 58 54 46 47 31 20 16 12 10 7 6 5 8 54 63 56 53 55 52 54 58 56 67 100 92 100 100 100 96 100 59 84 92 97 86 76 76 71 76 68 66 77
68 76 58 57 50 49 33 21 16 13 10 7 5 6 6 19 72 59 57 54 61 68 65 58 58 62 87 98 98 100 100 81 69 92 100 100 99 81 79 97 97 71 68 68
70 83 62 55 52 51 32 22 17 13 10 7 5 6 6 11 52 72 72 51 60 81 73 65 66 52 60 80 99 99 100 61 55 90 74 73 99 100 99 94 76 65 60 49
79 84 68 58 58 52 32 22 18 14 10 6 4 6 8 7 27 78 67 54 51 73 84 82 68 62 51 72 96 89 97 100 97 69 81 82 55 43 42 80 36 27 26 28
91 87 74 65 59 53 35 25 19 14 10 6 4 5 6 7 14 76 73 52 52 74 89 84 85 84 66 60 77 83 80 82 88 99 99 96 98 99 93 62 62 65 83 94
97 93 81 71 62 56 42 28 21 15 10 6 4 5 6 7 6 41 78 59 50 52 78 87 86 88 88 68 63 71 86 69 64 66 70 83 85 77 80 96 96 91 79 71
98 95 89 76 70 58 41 30 22 16 10 7 4 5 7 5 4 12 70 66 53 48 46 71 84 83 86 90 83 74 81 67 58 62 64 62 60 57 58 58 66 73 74 72
97 95 92 80 75 58 45 33 22 16 11 7 5 6 9 7 4 4 58 68 56 45 45 49 82 78 80 84 92 89 81 70 56 59 63 62 54 48 47 48 51 58 59 55
97 96 94 90 77 57 46 33 22 16 12 9 7 8 11 8 5 4 30 79 66 59 63 65 72 86 84 87 92 92 88 78 60 54 62 64 56 50 51 51 53 52 48 46
97 99 96 93 79 54 42 28 20 17 13 10 7 8 13 12 6 5 8 65 69 58 70 76 81 89 93 93 92 95 99 91 77 63 60 67 69 67 64 56 55 57 50 56
99 97 96 94 70 47 29 17 16 16 14 10 7 6 12 23 11 6 7 17 72 63 68 75 82 81 91 96 93 84 94 100 100 91 79 76 76 84 76 65 63 66 76 86
100 98 97 92 57 34 18 14 14 15 15 12 8 6 8 20 37 14 7 9 21 66 66 71 86 86 88 100 96 76 77 96 100 100 98 96 96 97 93 86 81 81 82 72
99 98 98 96 54 21 10 10 10 11 14 12 9 7 8 12 48 55 36 14 12 29 72 79 88 92 89 100 91 75 75 74 96 100 100 100 100 99 96 90 69 48 36 29
99 98 98 97 38 14 10 10 12 13 14 11 9 8 7 11 30 62 65 53 26 16 50 87 87 89 96 99 97 87 83 87 97 100 100 100 99 84 62 50 45 36 29 22
99 99 99 97 32 22 13 13 14 16 16 14 12 10 9 9 29 50 69 69 66 42 60 86 88 86 100 99 98 94 94 90 87 85 85 82 74 61 57 41 34 30 31 33
100 99 98 82 43 26 21 16 17 18 20 17 16 12 8 9 28 47 71 83 86 99 100 89 87 100 94 78 73 71 78 76 69 73 80 72 65 57 41 35 38 36 33 31
100 100 100 91 53 41 31 22 21 21 22 15 14 13 10 8 23 50 78 96 97 98 100 92 84 100 98 79 83 80 68 64 63 65 73 77 75 67 56 44 34 29 29 29
99 100 100 93 67 58 40 26 24 26 22 14 10 12 11 8 12 49 86 95 90 90 83 91 98 98 92 96 99 90 80 72 70 77 72 66 60 50 44 46 48 46 41 38
100 99 100 89 78 63 55 46 31 32 25 14 11 12 9 8 10 54 57 87 96 96 76 100 100 100 100 100 100 100 96 93 91 77 58 50 71 75 68 67 58 51 42 36
100 100 98 90 82 75 65 50 40 37 26 15 14 12 9 9 9 50 66 94 98 92 89 100 89 100 100 100 100 98 99 96 73 62 67 90 94 85 86 90 91 89 85 84
99 99 96 93 86 77 68 56 51 38 31 24 23 22 15 11 9 46 79 100 96 81 93 99 83 92 99 100 100 100 93 76 71 78 94 100 100 100 100 99 98 96 96 98
99 100 97 94 91 81 70 66 55 42 34 32 26 23 16 9 8 40 86 100 100 100 95 98 97 100 100 100 100 100 100 98 99 96 100 100 100 97 72 61 39 29 25 26

GFSNW_500_rhum_093.txt.gz
RH
60 55 50 54 49 43 41 33 29 18 13 8 6 5 5 33 37 33 37 47 56 62 93 100 100 100 100 100 72 30 46 56 68 99 100 100 97 93 62 63 56 54 54 68
65 61 54 55 48 46 42 36 31 20 12 8 6 5 4 24 42 31 31 39 41 54 77 100 100 100 100 95 100 31 39 57 86 91 94 85 81 51 54 64 59 64 57 68
63 61 57 55 48 51 46 37 35 20 12 8 6 5 4 10 52 36 30 34 36 45 54 100 100 100 100 96 99 82 45 45 88 100 100 99 70 48 51 54 56 54 57 64
60 61 60 54 55 60 50 41 37 20 12 8 6 5 4 5 44 40 37 31 37 37 50 68 100 100 100 100 97 100 93 25 53 97 98 100 84 74 76 73 66 56 66 88
68 62 62 59 58 62 55 45 41 22 13 9 6 5 4 4 30 54 39 37 44 36 46 49 88 99 100 100 100 100 100 45 34 51 96 93 89 94 96 90 80 56 78 80
72 63 61 64 60 67 61 50 43 25 14 9 6 5 4 4 8 53 39 43 44 42 41 49 46 96 97 100 100 98 100 85 93 48 71 78 87 72 75 76 73 84 100 98
72 64 67 70 65 69 64 52 44 28 15 10 7 5 4 4 4 21 44 39 42 51 44 44 49 45 84 95 100 100 100 100 77 64 81 92 83 76 71 71 97 84 79 67
77 62 64 71 69 71 68 53 44 31 16 11 8 5 4 4 3 6 49 51 40 48 57 47 49 53 54 74 99 100 100 84 80 99 96 97 84 64 66 83 98 89 81 88
82 67 64 70 68 68 71 55 45 31 17 12 8 5 4 4 3 5 39 56 47 43 52 67 47 55 54 68 95 98 100 83 85 95 89 65 88 99 71 68 83 79 80 92
88 72 66 68 68 64 73 60 46 29 18 12 8 6 4 4 3 2 23 55 44 43 51 64 64 63 67 55 81 90 92 100 100 75 78 93 89 86 99 99 83 93 87 55
93 79 69 70 73 68 71 63 47 28 18 13 10 6 5 4 3 2 7 51 46 42 56 76 78 73 78 64 64 68 89 84 90 97 100 100 100 97 80 75 61 68 64 41
95 84 80 76 77 76 69 64 46 29 19 14 11 7 6 4 3 2 3 30 50 40 39 50 78 75 81 83 74 67 74 80 66 71 81 92 99 99 89 88 97 96 90 89
97 94 90 89 87 81 74 65 48 31 22 16 12 9 6 5 4 3 3 20 55 44 45 46 56 78 78 80 84 84 77 76 66 60 65 71 70 67 67 69 69 82 89 87
97 95 91 94 94 84 77 65 47 32 24 18 14 10 8 6 5 4 3 11 58 60 49 58 57 60 76 79 81 88 89 84 75 60 59 65 66 56 50 48 49 53 57 58
96 96 90 96 95 88 81 66 48 35 26 20 16 12 10 8 6 9 4 6 33 65 69 69 78 84 77 84 85 85 93 93 85 74 61 61 68 66 59 58 57 57 56 54
94 98 93 97 96 92 86 65 43 36 29 22 19 16 12 9 6 8 17 6 7 43 74 76 77 81 85 94 93 90 88 95 98 90 81 71 69 78 86 88 75 65 65 68
95 98 97 97 96 93 87 59 40 36 30 24 21 20 14 10 7 6 18 32 8 9 30 74 86 83 82 92 97 99 88 83 98 99 96 94 87 87 91 97 98 84 78 80
98 100 96 97 96 95 90 48 28 32 28 24 23 22 15 11 8 6 6 21 48 24 11 27 79 87 84 92 97 91 97 81 77 92 100 100 100 100 100 100 99 99 98 92
97 98 97 97 98 96 85 44 32 24 24 22 23 22 15 12 9 6 6 11 41 65 47 17 30 75 90 100 100 94 98 100 99 98 100 100 100 100 100 91 80 72 58 45
96 98 98 97 98 97 82 47 38 27 23 23 24 15 12 11 9 6 5 9 29 68 56 36 20 68 100 100 100 100 99 100 100 100 100 100 98 96 92 89 87 76 54 41
96 100 98 98 98 98 87 57 45 36 28 27 22 10 9 9 10 8 6 10 29 66 85 77 86 100 100 100 100 100 100 100 100 100 100 98 91 85 81 75 63 45 38 38
99 99 97 98 98 99 90 68 56 46 37 31 26 10 10 12 11 8 6 8 30 67 87 96 98 100 100 99 98 90 86 83 77 73 66 62 55 52 56 61 65 62 56 44
100 99 98 99 97 99 93 83 68 57 53 41 36 18 11 14 14 8 8 8 16 60 70 78 100 100 100 100 100 100 95 88 90 85 77 67 64 66 60 48 42 36 33 39
100 98 99 98 97 99 100 88 77 66 56 48 42 32 21 16 13 10 11 10 22 41 61 74 100 100 100 100 100 100 100 100 100 96 82 76 74 61 62 79 70 68 67 62
100 97 98 98 100 98 95 88 80 71 62 55 52 36 25 21 14 13 10 10 11 26 49 86 94 93 100 100 100 100 100 100 100 100 97 85 66 84 88 86 86 83 84 86
98 96 100 98 98 99 94 84 81 77 68 63 59 50 39 27 17 11 8 8 14 25 44 66 90 98 87 84 99 100 100 100 100 100 98 80 99 100 97 100 100 90 70 67
98 100 98 95 98 97 84 79 80 79 76 70 65 60 52 39 28 15 9 7 7 30 77 75 88 97 98 100 100 100 100 100 100 100 100 100 100 100 100 82 59 58 62 56

GFSNW_500_rhum_096.txt.gz
RH
93 70 62 60 59 54 50 37 32 25 22 16 9 5 4 4 14 31 30 33 38 48 85 100 100 100 100 100 32 47 49 64 87 98 100 100 97 100 98 89 84 81 78 78
84 69 61 60 62 55 54 42 33 25 24 16 10 6 4 4 7 34 31 30 36 36 55 100 100 96 98 93 40 41 39 48 72 97 99 89 74 79 82 82 77 63 60 70
84 74 62 58 61 52 52 44 35 28 26 16 11 6 4 4 4 27 36 28 30 36 45 82 100 98 94 99 84 49 45 53 91 98 100 100 73 64 71 75 75 78 78 71
88 85 64 56 60 54 58 50 37 29 26 17 11 6 5 4 3 14 36 28 28 33 42 47 93 97 98 95 84 58 40 50 76 98 97 96 74 71 77 68 75 84 79 76
96 93 66 56 58 58 58 53 41 31 26 19 12 7 5 4 3 8 43 34 28 33 38 48 57 99 99 87 98 78 28 40 59 100 100 94 82 89 100 75 66 73 71 91
96 93 67 56 56 56 55 57 47 36 28 21 12 8 5 4 3 4 32 35 29 33 38 43 44 80 100 100 96 98 67 100 65 100 100 82 84 75 99 84 83 86 89 93
94 95 77 60 55 57 60 57 54 40 32 22 13 9 6 4 3 2 8 34 31 35 35 42 44 43 82 100 100 100 94 92 66 72 95 96 84 92 100 89 92 97 99 96
94 96 93 77 55 60 67 56 53 42 36 26 16 10 7 5 4 2 3 25 42 31 35 43 44 45 52 90 99 100 99 92 67 70 64 82 86 93 88 87 90 99 100 96
97 96 94 94 60 63 64 63 56 48 37 28 18 11 8 5 4 3 2 15 40 35 42 48 55 43 43 78 100 100 100 93 78 79 94 94 86 74 77 76 74 72 85 83
95 97 95 93 70 68 69 65 60 53 41 31 18 12 8 6 4 3 2 5 38 29 38 57 63 61 53 48 87 100 100 91 97 99 96 77 77 82 60 56 55 58 79 88
96 95 97 90 76 78 79 68 66 56 44 32 19 13 9 7 5 4 3 4 31 34 34 55 72 71 71 55 60 75 97 97 95 93 83 87 93 99 95 97 80 81 89 99
99 98 97 90 76 83 81 79 71 60 46 34 21 16 11 8 6 4 3 2 15 36 34 40 68 74 77 81 74 64 80 87 88 86 91 93 97 97 100 100 89 74 68 75
99 99 96 96 78 85 85 85 68 61 48 36 25 18 13 9 7 4 4 4 6 42 40 37 44 66 74 73 83 89 78 82 79 69 79 81 90 100 92 87 87 85 81 82
100 100 93 96 88 91 92 89 68 61 51 37 27 21 15 11 9 6 4 7 6 32 49 51 47 48 56 72 75 84 94 89 84 68 62 67 74 86 84 86 80 80 97 100
100 97 93 99 94 96 95 90 76 64 54 41 30 24 18 13 11 7 5 4 10 8 54 66 63 63 66 68 82 83 88 100 93 87 71 62 68 69 61 53 52 52 54 57
86 97 93 98 94 96 96 95 79 68 56 44 33 27 21 16 13 10 7 4 6 18 6 52 72 76 85 80 89 98 98 92 100 100 91 78 68 71 73 68 67 66 64 62
98 97 98 96 91 96 97 96 80 73 59 45 35 31 26 18 15 12 9 5 4 8 23 8 41 74 80 96 94 87 100 96 88 100 100 100 95 86 80 86 92 92 84 70
100 98 96 99 95 97 96 95 77 75 60 48 38 36 30 21 16 14 12 7 5 5 18 38 21 14 68 96 100 95 99 100 90 84 100 100 100 100 100 100 99 99 100 95
98 98 100 98 95 97 97 95 86 78 61 51 42 39 33 24 18 16 16 10 7 5 8 36 47 30 26 83 99 100 95 100 100 90 86 99 100 100 100 100 100 100 97 93
100 100 100 93 95 98 97 95 91 83 70 50 45 42 37 26 19 15 18 16 10 5 7 31 54 62 40 42 93 98 99 97 100 100 99 99 100 100 100 100 100 98 92 78
100 99 98 98 99 98 97 95 90 85 70 58 50 48 39 27 19 15 17 19 17 7 6 26 58 93 97 56 86 99 100 100 100 100 100 100 97 96 97 95 91 86 80 70
98 98 100 97 98 98 97 94 95 89 76 67 60 53 43 35 24 17 18 22 22 10 5 10 55 83 81 98 99 100 100 100 100 99 100 100 98 83 70 59 54 55 59 63
96 99 98 99 97 98 96 97 95 93 83 71 63 56 46 41 30 20 24 30 26 10 7 7 33 69 87 90 100 100 100 100 100 99 98 97 92 81 68 60 58 52 42 40
98 98 99 99 97 98 97 97 98 94 86 75 65 58 51 48 45 32 34 37 32 13 8 7 14 64 78 92 100 100 100 100 100 100 100 99 99 89 78 74 58 53 73 71
94 97 98 99 99 97 98 99 100 97 89 76 67 64 60 57 57 48 45 48 41 18 10 8 8 35 84 88 98 100 100 100 100 100 100 100 100 100 93 71 70 82 84 84
95 98 99 100 99 98 99 100 100 98 92 76 68 67 65 63 66 63 62 59 43 21 11 10 8 8 61 92 81 92 97 100 100 100 100 100 100 100 98 95 99 99 93 68
99 99 99 100 98 100 100 100 99 97 89 70 69 71 75 70 71 70 65 54 38 20 14 12 8 7 15 63 89 94 88 100 100 100 100 100 100 100 100 100 100 76 50 59

GFSNW_500_rhum_099.txt.gz
RH
98 97 94 74 60 56 48 39 30 25 22 18 16 13 6 4 3 11 25 25 30 36 49 100 93 100 99 40 34 55 62 66 78 83 98 99 99 100 100 100 99 100 82 58
98 96 92 79 61 59 50 41 31 26 24 20 16 13 6 4 3 4 23 27 27 34 46 78 98 100 100 55 38 47 67 71 73 66 96 97 100 100 100 100 100 100 100 79
98 96 96 88 64 57 50 43 35 28 26 22 17 13 7 4 4 3 16 27 26 32 40 48 98 100 100 90 42 36 56 62 67 78 90 84 100 100 100 100 100 99 96 80
98 96 95 76 63 55 54 46 42 34 30 24 19 15 8 5 4 3 8 30 26 29 34 47 80 100 100 99 72 38 36 48 77 98 78 87 100 100 100 100 100 100 93 83
97 97 96 76 65 62 60 45 42 37 30 27 21 16 8 5 4 3 3 27 27 27 32 35 42 99 100 94 80 38 47 58 69 80 66 64 94 100 77 93 93 100 100 100
97 95 96 76 64 70 59 47 45 40 34 30 23 18 10 6 5 3 2 15 29 26 36 39 41 56 100 100 93 74 60 56 67 100 75 55 88 100 90 83 95 99 93 94
97 97 97 92 77 71 69 54 47 43 38 32 25 19 13 7 5 4 3 4 30 32 29 37 41 49 81 100 100 98 100 97 80 100 99 94 97 100 92 93 93 94 85 79
97 94 97 96 94 71 76 61 57 48 43 34 27 22 16 8 6 4 3 3 16 42 27 36 40 50 63 100 100 100 100 93 97 100 100 93 99 100 97 96 98 89 85 86
97 97 97 97 93 73 77 70 62 59 48 36 30 24 19 10 7 5 4 3 11 35 28 32 40 41 43 80 100 100 100 83 72 96 91 82 73 67 72 88 94 75 86 83
98 97 97 96 93 78 74 73 62 62 50 41 32 27 21 13 8 6 4 3 9 26 28 27 34 40 46 46 83 100 100 100 80 77 71 83 85 84 87 92 82 91 75 83
97 98 97 95 95 86 76 74 64 76 55 47 36 30 23 15 10 7 5 4 6 14 30 29 34 57 56 54 54 74 98 99 100 100 100 96 81 76 78 85 72 79 83 81
97 98 97 96 96 89 88 73 73 80 68 52 40 32 26 18 13 9 6 4 4 6 27 32 31 56 66 73 90 69 74 94 99 96 99 99 97 96 94 100 100 80 79 84
98 99 97 96 96 95 86 84 77 80 74 57 44 35 28 21 15 11 8 5 4 6 11 29 32 34 49 70 75 85 84 81 90 98 90 97 100 100 100 100 100 100 89 78
97 95 96 95 96 96 96 93 81 76 72 58 47 39 31 25 17 13 10 7 5 5 7 17 38 38 43 45 68 82 94 100 91 86 76 96 88 92 100 100 92 94 98 99
97 96 96 95 96 96 97 94 81 81 62 58 50 43 34 29 21 16 13 10 7 5 6 10 29 51 53 58 53 64 88 91 98 93 84 68 78 84 99 99 85 83 77 77
97 96 96 97 97 96 96 97 89 83 75 60 55 44 38 33 25 19 15 13 10 6 5 6 14 22 60 71 76 66 68 85 88 98 93 84 67 69 74 77 78 61 56 54
99 97 94 95 94 97 97 96 96 88 77 60 57 50 41 37 31 23 18 16 14 8 6 5 8 24 15 59 83 60 83 92 100 93 99 98 89 73 69 74 76 71 67 64
97 93 88 93 98 97 97 97 96 91 77 60 58 53 45 42 36 28 21 19 19 13 8 6 5 14 30 24 48 80 81 89 98 100 92 98 100 99 91 81 80 86 93 96
96 93 92 97 96 97 98 97 96 92 84 64 60 56 48 45 40 33 26 20 22 19 10 7 5 4 15 31 36 25 85 82 90 100 100 90 97 100 100 100 99 97 98 98
98 94 94 96 99 98 98 96 96 92 90 65 62 60 55 50 44 39 32 23 24 26 15 9 6 4 5 26 43 26 40 89 83 94 100 100 93 92 98 100 100 99 96 94
94 95 97 99 97 99 97 98 96 95 90 71 69 66 61 53 49 44 37 29 24 30 22 10 8 6 6 15 48 51 35 90 93 93 96 97 99 100 100 100 100 100 99 94
98 97 98 97 98 100 97 98 96 96 95 76 72 72 66 61 57 50 42 37 30 29 37 16 10 10 8 8 28 58 77 87 100 100 100 100 99 100 100 100 100 92 79 67
98 98 99 100 96 98 96 98 97 91 91 79 79 80 72 69 63 56 48 44 41 37 41 39 16 11 11 8 11 42 62 82 95 98 100 100 100 100 100 98 89 77 60 51
95 99 99 96 96 96 99 98 97 92 83 81 82 84 76 72 64 60 54 48 45 44 47 46 32 16 13 9 8 19 61 67 77 87 89 100 100 100 100 99 98 86 68 63
99 99 96 90 100 98 98 98 97 94 82 80 82 87 85 75 66 64 57 52 49 50 49 47 39 23 16 14 9 9 34 75 81 80 92 96 100 100 100 100 100 95 83 69
98 94 92 91 98 99 99 99 96 90 83 81 87 89 85 74 68 65 63 57 54 54 52 47 40 26 19 17 11 8 11 49 75 87 90 95 99 100 100 100 100 100 91 93
90 93 97 100 99 99 99 98 96 90 87 89 91 90 83 77 68 63 63 59 57 51 48 46 36 26 22 18 12 7 7 14 79 88 90 98 99 98 100 100 100 100 100 100

GFSNW_500_rhum_102.txt.gz
RH
84 92 98 96 74 64 60 48 32 26 22 18 17 13 9 7 4 3 8 24 24 27 40 84 100 100 81 31 50 55 81 93 95 95 100 100 100 100 100 100 100 100 82 56
91 96 97 90 77 65 56 48 35 29 25 20 18 14 10 7 4 3 4 18 24 26 37 49 95 100 96 32 50 43 66 79 79 86 96 86 95 98 91 84 84 89 96 87
95 96 97 97 88 61 60 48 37 30 28 23 20 16 12 8 5 4 3 16 26 25 30 43 81 100 100 43 50 42 49 62 58 64 92 98 99 95 90 100 94 97 92 100
92 97 97 97 82 65 64 48 42 36 31 25 21 18 15 9 6 4 3 7 23 20 28 37 49 89 97 84 40 45 39 41 38 50 77 75 97 89 97 100 100 100 83 99
96 97 98 96 72 69 62 51 44 41 34 28 22 21 17 11 7 4 3 4 18 22 29 34 46 70 90 81 58 39 42 61 94 92 62 54 95 85 88 96 100 100 99 100
93 98 97 96 74 72 70 62 50 42 37 30 25 23 18 13 8 5 4 4 9 27 26 31 39 54 82 96 84 63 49 60 82 76 51 61 92 93 100 100 100 100 100 100
96 97 97 97 92 74 74 68 57 44 37 31 28 24 20 15 9 6 4 4 8 23 26 31 39 48 76 97 100 98 87 67 87 78 68 80 83 89 92 95 96 100 100 100
97 97 97 96 98 92 73 70 62 44 40 34 30 26 22 17 11 8 5 4 5 16 23 27 39 45 53 97 98 100 100 83 86 99 100 96 92 77 82 86 87 94 95 100
98 97 97 96 97 95 75 70 63 49 43 40 34 28 24 19 14 10 6 5 5 9 18 22 31 46 54 64 98 98 100 81 89 98 100 100 96 84 90 92 86 89 90 94
97 97 97 96 98 95 74 69 63 56 53 45 37 30 27 21 17 12 8 6 5 6 14 21 26 37 42 65 78 100 99 78 77 100 100 93 94 93 90 89 78 83 81 87
97 97 97 96 98 96 74 69 70 63 55 49 38 33 29 24 20 14 11 7 5 5 8 19 23 32 44 59 63 69 96 96 76 78 92 98 89 96 92 89 85 97 88 87
97 97 98 96 97 96 79 74 69 65 61 52 44 35 32 27 23 17 13 10 7 5 6 10 25 29 32 40 47 54 65 88 99 88 92 89 95 94 94 93 93 90 97 100
97 97 97 98 97 96 81 76 74 69 59 52 48 39 33 30 26 20 16 14 10 7 5 6 11 26 34 33 40 52 63 71 79 97 93 92 98 100 100 95 100 100 96 95
97 97 97 98 97 96 98 89 85 75 67 61 54 43 35 33 29 25 20 16 13 9 7 5 6 12 27 37 33 34 56 64 79 81 88 98 97 100 100 99 99 100 100 100
98 98 98 97 97 97 96 89 88 84 78 68 56 44 36 34 33 29 24 20 17 13 9 7 5 7 16 26 43 41 39 44 64 73 87 88 83 95 97 98 100 100 98 100
98 98 98 96 97 96 97 94 87 84 80 69 52 46 40 38 37 33 30 25 20 17 12 9 6 5 6 15 25 40 56 50 47 68 83 95 94 80 84 100 95 98 94 97
97 97 97 98 97 97 96 96 92 84 78 77 62 49 44 42 40 37 34 31 26 20 17 13 9 6 5 5 14 26 58 68 64 66 78 88 99 100 89 76 82 86 95 90
98 97 98 98 97 96 96 97 95 93 77 75 71 53 48 45 42 41 37 36 31 25 22 19 13 9 7 5 5 16 32 36 75 73 73 90 94 98 100 99 84 81 82 83
99 97 98 96 96 96 96 97 95 90 80 74 71 59 52 49 46 44 41 40 36 31 25 24 20 13 10 6 5 5 14 27 29 83 83 72 90 100 98 100 100 99 94 90
97 97 100 99 96 97 97 97 97 93 86 70 72 66 57 50 50 48 46 44 44 36 31 28 27 23 12 10 7 7 6 17 25 25 87 97 86 90 100 100 100 100 100 100
95 96 100 100 96 97 97 97 96 94 93 81 74 72 64 60 55 54 52 48 48 43 38 34 33 32 22 12 11 11 9 7 23 30 40 97 98 95 90 99 100 100 100 100
100 100 100 96 97 97 96 97 97 96 96 83 69 66 64 66 64 60 54 53 52 49 44 41 40 40 35 22 14 14 14 10 8 21 53 59 92 96 96 92 99 100 100 100
99 97 97 98 96 93 95 97 97 96 95 87 80 70 69 69 66 64 59 57 56 52 48 45 44 46 44 36 25 18 17 15 9 8 25 62 83 88 93 97 100 100 100 100
96 98 96 96 87 94 99 96 97 97 93 88 84 67 68 70 66 68 61 57 60 54 50 47 45 44 44 42 36 28 21 18 12 8 7 26 59 78 92 95 100 100 100 100
98 98 87 85 100 99 97 97 97 96 94 89 79 69 68 69 68 72 65 65 62 57 51 47 43 42 41 39 37 31 26 22 14 10 8 8 49 83 81 96 100 96 98 100
96 92 88 100 98 98 97 97 97 95 91 88 75 71 69 68 71 67 67 69 68 59 54 48 45 42 40 38 39 38 33 27 19 12 8 7 10 82 100 100 100 100 100 95
86 84 95 97 98 97 98 97 98 94 89 83 80 76 76 76 70 66 70 67 63 57 53 50 46 41 39 38 39 40 36 28 19 12 8 7 7 43 100 100 100 100 100 95

GFSNW_500_rhum_105.txt.gz
RH
94 90 96 97 98 96 74 56 45 30 23 18 16 13 9 8 5 4 4 11 21 24 33 47 88 92 35 49 56 67 94 99 99 72 91 71 58 67 61 62 51 47 85 78
94 93 97 93 97 93 72 52 42 30 24 19 17 13 10 8 6 4 4 9 21 22 33 41 80 96 44 38 54 66 76 69 69 75 73 70 64 69 100 97 100 100 100 89
97 98 94 96 97 93 82 52 44 32 25 21 18 14 10 9 7 5 4 6 18 20 26 34 62 91 60 41 43 45 51 51 61 67 76 77 89 92 97 99 100 90 97 97
97 95 94 96 98 93 68 48 40 35 26 22 19 16 12 10 8 6 5 5 14 20 26 35 42 84 78 44 40 41 32 31 35 46 73 89 72 93 99 88 100 79 60 71
98 97 93 97 98 95 59 49 43 36 26 23 20 17 13 11 9 7 5 5 8 20 24 31 40 74 87 66 38 31 32 32 36 44 62 75 51 81 73 83 95 100 100 66
92 96 96 98 95 93 61 53 44 34 25 23 21 19 15 12 10 8 6 5 6 16 20 30 35 58 83 79 64 43 55 72 81 81 58 65 94 95 87 100 100 98 100 99
98 95 98 98 95 91 69 60 45 33 28 25 22 19 17 14 12 10 7 6 5 9 18 26 35 39 74 86 83 79 54 68 91 100 88 82 70 94 98 100 100 87 100 99
96 97 96 98 98 88 73 61 43 35 32 28 24 21 19 16 13 11 9 7 5 6 13 20 27 37 51 90 93 80 76 61 91 100 100 91 84 92 92 89 100 100 100 100
96 96 97 97 98 98 89 64 46 38 34 28 24 23 21 18 15 13 11 8 6 5 8 16 19 30 40 54 93 91 67 64 87 92 99 94 80 76 78 81 87 90 85 96
96 97 97 97 97 98 88 65 49 47 38 30 27 25 23 21 18 15 13 10 8 7 6 9 18 25 31 44 53 93 84 51 73 74 86 94 91 77 71 71 69 78 81 77
98 96 97 97 98 98 89 69 54 53 43 35 30 28 26 24 20 18 16 12 10 8 6 6 11 16 27 39 43 53 81 71 53 74 91 94 94 86 79 84 78 76 84 89
98 96 97 97 97 98 94 75 61 52 44 39 33 31 28 26 24 20 19 16 13 10 8 6 6 8 20 25 37 41 52 60 83 79 75 91 96 94 89 76 71 70 75 79
98 97 98 97 97 98 97 85 64 55 45 43 35 31 30 30 26 24 22 20 17 14 11 8 6 6 8 16 26 31 40 39 50 66 95 95 100 97 87 75 78 84 76 82
98 98 97 97 98 98 96 93 73 66 57 54 47 35 34 32 29 27 26 24 21 18 15 12 9 7 6 8 14 27 30 35 48 53 62 78 92 92 97 95 91 92 100 96
82 97 98 96 98 98 98 94 86 73 66 64 54 45 38 36 32 31 29 28 26 22 20 16 12 10 8 7 7 9 22 38 36 45 59 70 76 87 96 98 100 98 96 100
94 97 97 97 98 99 98 96 87 79 73 65 63 54 46 39 36 35 32 32 30 28 25 21 18 14 11 10 8 6 7 16 37 51 49 62 84 93 98 91 100 100 98 100
98 97 97 98 97 100 98 97 95 82 76 68 64 63 51 45 41 40 34 35 36 33 30 27 23 20 15 12 11 9 7 9 17 22 53 68 71 94 92 100 98 100 100 100
98 97 98 98 98 98 97 96 94 87 82 68 60 67 56 51 43 40 40 38 40 39 35 32 29 26 24 17 13 11 10 8 6 15 22 50 68 77 96 97 98 100 100 98
98 98 97 97 97 97 97 94 86 88 77 64 59 62 58 56 50 44 46 40 43 44 41 37 34 32 30 29 22 14 13 12 10 7 11 20 43 78 76 83 92 92 99 100
98 96 97 98 98 96 97 97 90 88 87 76 69 62 66 65 59 53 50 45 46 48 46 43 40 37 35 34 32 26 16 15 15 12 8 9 16 27 78 83 87 93 92 95
96 94 97 99 98 99 96 97 95 94 84 80 78 64 58 60 52 52 53 48 46 50 50 46 44 39 38 38 38 36 32 21 18 18 16 9 7 16 28 73 83 84 89 90
100 99 100 97 97 98 94 96 97 95 86 85 77 76 69 63 54 46 49 48 48 53 52 51 48 44 41 40 41 40 39 37 31 22 21 19 12 7 11 29 68 86 85 87
98 96 96 99 92 79 82 98 98 94 90 81 76 78 72 66 58 50 48 50 54 54 61 55 51 50 44 42 42 41 40 40 41 36 29 24 17 13 8 7 24 67 91 98
98 98 96 93 76 72 96 98 97 94 91 89 84 75 70 63 51 50 49 52 52 54 62 56 56 52 48 46 46 44 41 40 41 44 42 35 24 17 13 8 6 36 81 100
98 93 86 76 74 98 98 98 97 95 95 89 76 68 66 58 51 55 50 55 54 53 54 54 51 52 50 47 46 43 39 36 37 42 45 41 31 25 19 9 6 9 76 92
97 87 74 78 94 98 98 98 96 97 96 85 70 61 58 56 56 60 60 62 61 58 54 51 51 51 49 46 45 41 34 31 32 37 43 40 34 29 16 8 8 7 61 100
87 80 83 96 97 96 98 98 98 97 94 74 66 62 59 59 58 61 70 68 65 55 48 46 48 49 48 46 43 37 30 28 30 36 40 39 33 20 12 9 7 9 22 100

GFSNW_500_rhum_108.txt.gz
RH
98 99 98 97 96 98 97 72 58 40 26 19 14 10 9 8 6 6 5 5 8 18 28 77 71 38 33 53 99 100 78 100 100 81 71 89 86 86 72 73 62 46 38 39
98 98 98 97 96 96 97 72 56 37 25 19 14 10 9 8 7 6 5 5 6 16 26 63 79 42 36 56 62 100 82 58 55 51 52 63 55 51 70 78 79 39 28 24
99 98 98 97 97 99 94 66 56 36 24 18 14 11 10 9 7 6 6 5 6 13 23 49 73 57 39 41 42 56 68 71 82 74 54 52 60 69 69 81 63 92 60 33
99 96 97 98 98 98 94 68 53 36 23 18 15 12 10 9 8 7 6 5 5 12 19 36 69 59 36 34 38 35 37 42 55 56 72 66 60 58 98 91 100 100 100 93
98 96 97 98 98 99 94 72 49 35 22 18 15 13 11 10 8 8 6 5 5 8 17 26 54 66 34 26 35 28 24 36 34 47 63 58 50 75 96 93 94 96 69 71
98 98 98 97 98 98 92 56 48 31 22 18 17 14 12 11 9 8 7 6 5 6 13 20 30 68 61 38 34 32 52 69 69 58 54 38 46 64 86 87 89 94 85 78
97 98 98 97 94 96 78 59 45 31 24 20 18 15 14 12 11 9 8 6 5 5 7 17 24 38 74 71 44 49 64 75 66 53 53 62 65 76 82 99 99 100 93 100
89 97 98 97 98 96 88 64 41 31 26 22 20 17 15 13 12 11 9 8 6 5 5 10 17 22 48 80 66 42 45 63 75 66 52 63 83 83 85 98 98 100 100 100
88 96 98 97 97 94 93 69 41 36 26 23 21 18 17 16 14 12 10 9 8 6 5 6 8 17 29 58 78 35 30 44 75 51 53 54 63 65 84 92 100 100 100 100
98 97 97 97 98 95 95 84 45 39 28 25 21 20 19 18 16 15 13 11 9 8 7 6 6 10 19 27 51 68 26 33 45 61 77 65 65 66 68 76 83 85 91 97
95 97 97 100 98 98 100 83 52 44 35 28 24 22 21 20 19 17 15 14 12 10 9 7 6 7 10 20 25 39 66 35 42 57 71 70 69 70 65 69 67 62 67 71
98 98 96 96 97 98 98 80 62 49 42 35 27 24 24 22 21 19 18 17 16 14 11 10 8 7 7 8 12 21 33 52 76 63 54 59 74 70 58 58 66 67 70 69
98 97 97 97 98 97 97 83 67 52 41 37 32 28 27 25 23 22 21 20 20 17 16 14 11 10 9 7 8 13 19 23 28 46 78 76 66 73 81 83 71 61 63 67
98 97 98 98 98 97 96 90 67 52 50 47 41 34 30 29 27 24 24 24 23 22 20 18 17 14 12 11 10 8 9 14 21 27 37 49 61 84 87 83 78 80 68 69
99 98 98 98 97 98 99 96 78 64 67 58 52 46 41 35 32 29 26 26 27 27 24 23 22 20 17 15 13 13 11 8 9 16 21 28 38 54 66 82 89 82 87 90
98 98 98 97 97 100 99 97 94 87 78 63 59 53 50 42 37 33 31 30 29 32 29 27 26 24 23 22 19 17 16 14 11 8 10 22 26 24 40 71 80 84 91 96
98 98 92 95 98 98 98 98 94 94 90 70 57 55 54 45 42 35 36 34 33 34 34 33 30 29 28 27 26 24 20 17 17 14 9 11 15 27 32 36 63 82 90 92
99 98 94 96 98 98 98 95 96 91 84 76 67 59 55 54 47 40 41 41 37 36 36 37 38 34 32 32 31 31 28 24 19 18 16 13 8 13 28 48 48 63 84 88
100 100 99 96 96 98 98 98 99 94 90 82 64 53 53 60 54 52 53 47 42 39 38 41 41 41 39 37 35 36 35 33 28 21 19 17 14 7 9 17 40 62 61 73
100 99 99 99 97 98 100 98 96 90 84 75 62 58 57 53 55 52 54 51 48 46 43 43 42 44 45 43 41 40 40 39 36 34 27 21 20 16 8 7 10 21 61 71
98 94 98 98 97 97 99 96 92 83 74 66 64 59 61 57 53 50 49 48 43 48 42 44 41 45 48 47 46 44 43 44 42 39 37 37 29 24 23 15 9 8 10 32
89 99 100 98 97 98 98 92 86 84 77 74 66 61 62 64 63 61 55 49 40 41 38 39 41 44 47 49 49 46 46 46 45 44 42 42 43 40 33 28 27 13 8 8
100 100 97 99 96 94 78 80 89 90 85 81 73 69 67 67 73 66 56 47 41 41 40 40 43 43 46 49 49 49 49 48 47 46 43 39 39 40 44 42 35 29 26 17
99 99 94 96 91 74 72 89 98 98 95 89 80 72 69 74 76 67 60 50 44 45 44 43 45 46 46 45 47 49 49 48 47 46 42 36 37 39 43 42 39 35 32 23
97 90 91 81 77 82 93 99 97 97 96 90 78 72 73 75 70 64 57 52 48 46 45 45 49 48 44 44 44 46 46 46 46 43 38 35 35 37 38 36 32 25 22 17
100 88 76 82 88 92 98 96 98 97 95 86 78 73 74 68 62 57 52 54 54 48 46 46 50 51 45 41 41 43 42 42 43 38 32 31 33 33 30 23 16 15 13 11
89 83 77 88 94 98 96 98 98 96 96 88 82 79 74 63 58 50 50 53 51 46 46 48 51 46 40 38 39 40 39 39 38 33 28 27 29 27 20 14 12 9 8 10

GFSNW_500_rhum_114.txt.gz
RH
8 13 59 65 99 98 98 98 97 92 59 31 20 14 9 7 4 4 4 3 5 13 30 26 37 75 98 100 64 65 73 72 79 100 98 90 100 71 74 95 100 94 95 92
73 96 98 99 98 99 97 98 94 67 40 24 20 12 9 7 4 4 4 4 4 9 28 21 33 57 77 90 57 60 78 79 74 91 95 98 100 95 71 94 96 91 79 83
100 96 98 99 98 97 98 98 73 53 32 23 19 12 9 7 5 5 4 4 4 7 27 19 28 38 37 47 53 50 44 37 45 72 76 94 99 100 87 80 99 81 66 59
98 99 99 98 98 98 98 81 60 39 30 24 18 12 9 8 6 5 5 5 4 5 16 21 19 28 26 29 28 26 27 26 48 60 37 38 62 63 70 82 82 61 51 42
98 99 100 97 98 98 98 71 54 36 30 24 17 12 10 8 7 6 6 5 5 4 8 21 18 20 25 19 18 18 25 20 38 66 42 38 60 99 93 60 46 32 32 37
100 98 98 98 96 96 98 64 52 38 30 24 17 12 11 9 8 7 7 6 5 5 5 10 26 27 30 30 41 58 57 50 47 45 34 45 56 65 76 87 87 69 58 51
96 97 96 93 97 98 96 61 51 37 29 24 17 14 12 10 9 8 8 8 7 6 5 6 19 23 29 27 33 42 49 46 34 30 31 38 39 52 67 70 82 80 76 76
97 98 97 96 97 96 97 62 50 38 29 24 18 15 13 11 10 10 9 9 8 7 6 5 7 12 14 21 23 23 25 27 37 44 49 32 40 47 56 51 61 78 78 52
95 99 98 96 87 94 97 62 53 37 31 24 19 16 14 13 12 12 11 10 10 9 8 6 6 7 10 12 13 19 22 21 23 26 32 43 43 38 39 52 50 48 51 63
94 94 98 98 86 93 97 72 55 36 32 25 20 18 16 14 13 14 14 12 12 11 10 9 7 6 7 9 11 15 21 26 30 26 28 33 33 35 34 42 48 46 42 38
92 94 97 98 89 85 94 71 56 39 35 27 22 20 17 15 15 16 16 15 14 14 13 12 11 9 8 6 6 10 16 21 25 24 29 31 28 32 35 45 39 50 47 55
94 92 96 98 98 93 79 81 57 45 40 30 24 22 19 16 17 18 19 19 18 17 17 16 15 14 12 11 7 6 7 12 18 22 18 23 23 26 31 35 44 56 52 50
93 93 92 97 98 92 86 76 61 48 43 33 27 24 21 19 17 17 20 21 21 21 21 20 19 18 17 16 14 12 9 6 6 7 7 15 22 26 26 26 38 45 57 53
94 94 87 96 98 90 96 96 77 52 47 40 33 27 23 22 20 20 20 23 23 23 23 23 22 22 22 22 22 20 18 15 12 9 6 6 6 7 11 22 34 37 45 45
92 95 84 93 98 93 98 96 96 70 68 51 41 31 28 29 29 25 25 24 26 25 25 26 25 26 24 24 25 26 27 26 23 20 16 10 7 6 6 6 8 12 16 29
84 96 91 93 97 98 86 87 98 90 78 60 45 42 37 40 39 34 32 28 29 28 28 27 24 26 25 26 28 27 29 30 31 30 29 25 20 14 10 8 7 6 7 12
76 96 95 98 97 97 89 84 98 98 85 76 76 72 51 46 46 46 41 35 34 35 32 31 27 26 30 28 30 29 28 29 31 32 34 33 32 29 23 17 12 8 6 6
73 96 95 97 98 97 94 85 92 97 94 80 84 82 66 56 54 54 47 43 42 44 38 33 32 29 30 31 32 31 31 30 30 30 32 34 36 37 35 31 25 18 13 9
58 88 99 98 97 98 96 88 93 96 81 75 78 83 74 62 61 58 50 45 46 44 38 32 31 30 31 32 34 34 33 33 32 30 31 32 35 38 40 40 37 31 25 20
44 89 99 92 95 99 97 99 89 96 82 77 84 87 87 70 65 56 48 46 41 42 40 36 36 32 30 35 36 37 37 36 36 34 33 32 32 35 38 41 43 41 35 28
35 66 95 95 99 99 98 96 90 73 70 82 84 86 83 74 71 58 52 48 46 49 55 51 46 40 38 40 40 39 38 36 36 36 34 33 32 33 36 41 45 46 40 32
62 69 92 100 99 98 98 90 88 74 68 78 93 88 83 82 70 62 58 58 56 58 65 63 58 48 44 44 41 36 34 33 35 34 34 32 31 33 35 39 42 44 39 30
100 100 100 100 96 88 77 69 65 57 56 83 100 100 95 90 76 66 62 61 60 68 62 70 65 55 50 44 36 31 31 33 35 34 34 35 33 32 34 37 38 41 33 26
100 100 100 100 83 60 61 63 82 86 88 98 96 93 96 90 78 69 68 67 61 60 69 69 61 55 46 39 33 29 31 32 33 33 35 36 35 34 32 32 36 37 30 22
96 100 99 90 67 54 59 73 96 92 94 87 100 97 96 92 78 74 71 68 58 66 69 63 59 50 40 35 30 30 31 30 32 32 35 37 36 35 35 34 35 34 26 18
100 100 88 86 72 61 57 70 98 95 82 89 92 94 84 84 82 76 77 70 70 72 65 67 63 47 36 31 30 32 32 33 35 35 36 37 36 34 36 36 35 30 20 14
100 94 86 86 78 74 68 80 99 98 95 88 95 96 91 83 81 82 82 80 75 69 68 66 57 40 32 33 36 37 38 37 37 36 38 38 35 32 32 32 31 25 19 14

GFSNW_500_rhum_117.txt.gz
RH
10 10 12 37 77 97 100 100 99 100 78 26 16 10 8 5 4 4 5 6 14 19 25 44 23 29 40 44 54 60 78 63 63 79 94 88 100 96 100 84 100 100 84 99
14 31 46 91 97 100 99 98 100 81 28 19 12 10 8 5 5 5 5 6 11 16 21 35 27 31 42 60 59 50 58 66 78 71 80 96 100 100 100 94 84 88 86 99
94 93 96 99 99 98 96 99 71 33 20 16 11 9 7 6 5 5 5 5 7 14 18 24 26 32 47 38 34 44 45 49 53 79 81 99 85 100 93 98 99 97 91 90
96 98 99 99 98 99 94 89 44 25 21 14 11 9 8 6 6 6 5 5 5 13 17 22 19 37 35 26 24 28 35 54 29 40 64 73 91 95 99 97 85 68 61 47
85 90 97 97 96 98 99 56 32 23 20 14 12 10 8 7 7 7 6 5 5 8 15 19 24 20 23 22 26 46 50 43 30 40 82 67 83 60 77 70 64 58 49 41
78 88 92 94 90 95 94 43 31 24 20 15 12 11 9 8 8 8 8 6 5 6 8 14 23 25 34 45 37 31 34 32 34 43 51 72 78 78 44 44 49 41 41 38
80 80 90 99 92 86 93 48 33 25 21 16 14 13 11 10 9 9 9 8 6 6 6 8 10 16 16 27 36 38 31 30 33 35 38 44 57 69 70 60 55 48 34 28
67 70 81 84 94 82 92 54 35 26 22 18 15 14 13 12 11 10 10 10 9 8 6 6 7 8 11 14 19 24 29 35 42 49 41 37 49 47 56 52 45 49 49 27
67 65 71 82 97 98 86 55 41 28 23 20 17 15 15 14 14 13 12 12 11 10 8 7 6 7 8 11 12 16 16 18 18 29 27 30 37 36 38 43 51 52 38 36
54 62 72 77 92 96 93 58 48 32 25 22 19 17 16 15 16 16 15 14 13 13 12 11 8 7 8 8 10 12 15 20 21 16 16 30 28 26 25 32 36 33 29 29
48 60 69 72 83 95 94 87 50 34 28 23 21 18 17 16 17 18 19 18 16 16 15 15 14 11 9 7 7 7 8 11 15 18 18 19 18 18 24 27 22 28 31 28
44 52 62 66 66 90 91 97 56 38 33 27 23 20 18 18 18 20 21 21 21 19 18 18 17 17 15 14 10 10 6 6 7 9 12 16 18 20 22 20 21 27 31 34
46 53 58 64 67 85 92 94 62 42 37 31 27 23 20 19 18 18 22 23 22 21 20 20 20 19 19 20 19 17 16 12 9 7 6 6 6 8 12 16 21 22 25 27
42 52 54 55 67 78 90 90 77 54 42 34 30 26 24 22 20 20 22 24 25 24 22 21 22 21 19 22 23 24 23 22 21 16 14 10 9 8 7 6 6 8 15 21
30 46 56 54 61 73 81 92 83 73 49 36 34 34 28 25 25 26 26 27 28 28 26 24 22 23 22 23 23 24 26 26 27 26 26 24 22 20 16 14 12 9 7 7
26 45 45 56 67 68 75 88 90 88 88 46 42 41 34 31 32 36 36 34 32 32 33 28 26 24 26 26 26 26 26 27 26 27 28 28 28 28 28 25 24 20 15 12
11 26 32 53 67 66 70 88 97 95 93 65 56 45 41 39 42 44 46 43 38 36 40 36 30 28 28 27 29 29 29 29 29 27 25 26 25 27 28 30 30 31 29 27
5 28 42 50 58 66 60 76 95 89 80 85 72 52 53 56 52 51 53 52 46 41 43 38 32 28 28 28 31 32 31 31 31 30 28 26 25 24 25 26 27 28 31 33
7 8 72 82 64 69 69 69 86 91 83 72 75 68 63 65 65 58 59 60 50 44 40 34 33 32 30 30 34 34 33 30 30 29 28 27 28 28 26 25 24 25 27 30
8 10 54 100 79 83 83 82 82 86 78 70 71 80 75 74 74 70 64 59 49 46 44 46 52 48 35 37 38 36 30 27 26 27 25 25 27 26 26 26 26 26 27 29
10 12 23 98 100 100 95 96 87 78 70 60 60 86 80 71 77 77 68 62 50 47 49 53 65 68 51 46 42 39 29 26 27 27 26 26 25 26 27 27 28 30 30 32
24 23 27 87 100 100 99 88 86 58 67 58 65 78 72 74 82 83 74 66 54 49 56 59 71 62 61 54 44 38 30 27 28 28 27 27 28 29 30 29 29 29 29 28
53 36 47 92 100 99 89 62 63 51 53 62 70 88 89 90 94 90 82 68 53 55 53 62 74 59 57 51 42 36 30 28 29 30 31 31 31 32 33 33 31 29 29 29
72 48 56 98 99 92 69 55 66 72 97 100 97 97 96 96 99 84 77 65 56 52 60 73 65 68 61 54 47 38 30 29 33 36 36 36 35 35 34 34 33 31 30 30
68 52 60 72 84 90 73 64 79 94 100 100 98 95 91 98 88 77 69 60 51 60 78 72 68 74 67 60 52 41 31 34 40 41 40 38 38 36 35 35 33 31 29 28
85 53 59 50 76 96 86 69 82 96 100 98 92 90 90 86 76 61 63 53 60 78 83 73 73 74 72 65 53 36 38 44 45 45 42 39 37 36 37 37 34 31 29 28
86 56 42 50 69 100 100 89 82 98 98 94 97 99 100 92 75 56 65 75 83 83 84 82 79 77 77 67 51 46 49 49 47 46 43 40 38 37 39 38 35 31 29 27

GFSNW_500_rhum_120.txt.gz
RH
91 72 86 91 89 84 98 99 98 80 22 12 9 7 5 5 5 7 11 11 13 13 13 21 43 44 30 30 49 57 56 63 92 82 100 100 100 100 97 57 71 78 100 100
85 100 100 98 100 100 95 93 55 20 12 9 8 6 5 5 5 7 9 11 12 15 18 18 27 33 34 38 49 56 67 70 89 81 100 100 91 96 98 100 97 86 91 100
64 81 99 100 98 97 72 29 19 13 10 9 7 6 6 6 5 6 7 9 13 15 20 22 26 38 28 25 27 41 36 56 78 71 90 97 100 99 98 90 95 100 88 100
57 78 91 99 86 68 33 22 19 12 10 9 7 7 7 6 5 6 6 8 11 15 16 24 25 31 27 33 40 32 38 44 64 63 78 72 79 86 91 96 94 93 96 98
36 55 74 93 79 53 32 24 18 13 11 10 8 8 8 8 7 6 6 7 9 9 13 24 30 32 40 32 26 33 48 77 61 49 49 59 78 71 67 60 53 59 65 65
28 43 62 81 89 60 35 25 21 15 13 11 10 9 9 9 9 8 6 6 8 8 8 11 27 34 30 26 25 29 40 63 75 86 73 42 77 57 51 55 54 41 36 31
23 38 55 71 78 75 40 29 23 17 14 13 12 11 10 10 10 10 9 7 6 7 7 8 12 21 27 31 27 28 31 36 39 51 66 73 48 39 42 44 44 44 40 39
19 25 46 62 76 85 58 36 26 20 16 15 14 13 13 12 12 12 11 10 8 7 7 7 7 8 14 21 22 22 23 30 27 37 56 61 71 69 49 38 37 40 37 32
22 17 34 54 60 78 77 50 31 24 19 17 15 14 14 15 15 14 13 13 12 10 8 8 8 7 8 10 11 14 13 14 20 25 35 38 46 44 53 52 39 32 29 28
19 21 22 41 53 64 77 57 44 28 23 19 17 15 15 16 18 18 16 15 14 14 12 11 9 9 8 8 8 11 12 12 12 15 21 22 26 25 32 36 38 42 34 26
20 21 19 28 48 51 67 77 51 42 27 22 19 16 16 17 19 20 19 18 16 16 16 15 14 12 11 9 8 8 8 8 8 8 10 11 14 14 17 20 26 29 32 35
7 23 24 20 40 49 57 62 76 53 36 27 22 18 17 17 18 20 22 21 19 18 18 17 17 18 16 15 14 12 9 9 9 7 6 6 6 6 9 12 12 13 16 15
6 24 34 26 27 46 51 61 65 72 47 33 26 21 19 18 18 19 20 23 23 20 19 19 19 18 19 19 17 18 16 16 14 12 13 12 11 8 6 5 5 6 7 8
20 5 40 45 34 40 49 59 66 78 57 42 32 24 22 21 19 20 22 24 26 26 22 21 21 21 21 22 19 19 18 18 17 17 17 17 16 16 14 12 11 10 8 6
30 15 10 37 43 42 51 56 69 78 69 53 40 29 24 23 22 24 28 28 30 29 29 24 22 24 24 25 24 23 21 19 19 17 18 18 19 18 18 18 17 17 16 14
48 31 8 8 34 41 49 56 61 73 81 64 53 37 30 27 25 28 34 38 37 33 35 33 27 24 25 27 27 27 25 23 22 21 20 20 19 18 19 18 19 19 19 19
63 50 27 4 30 46 51 66 73 72 77 71 70 51 39 34 29 30 40 44 46 42 37 40 34 27 25 26 29 30 28 25 23 21 22 21 20 20 19 19 19 19 20 20
64 55 32 14 5 56 56 68 81 74 80 79 70 68 56 45 37 35 42 46 53 50 42 39 34 28 28 26 29 32 29 25 23 22 22 21 21 20 20 20 21 22 23 23
52 49 29 19 5 13 76 80 94 83 82 81 70 82 82 58 47 47 48 48 53 54 46 38 36 36 35 30 32 34 30 25 23 23 22 21 20 21 23 24 25 26 26 26
36 36 28 22 10 6 24 96 100 95 76 73 78 82 78 77 65 55 60 55 54 55 50 39 46 53 50 51 40 37 34 26 24 23 24 23 25 27 28 29 28 28 29 28
16 27 30 25 17 11 8 57 93 97 68 58 73 84 84 87 75 64 65 64 58 58 54 43 49 58 47 56 56 44 37 29 24 24 25 26 28 30 30 31 30 27 29 31
29 43 41 32 24 16 11 12 80 68 68 53 65 86 86 90 94 75 69 72 66 56 54 50 54 56 52 50 48 46 37 32 27 25 28 31 32 33 34 33 31 29 30 32
40 45 49 34 24 17 12 6 51 60 47 59 73 92 100 99 97 96 85 74 66 61 56 51 64 62 56 53 51 48 45 40 33 27 31 35 37 38 35 33 34 32 31 32
32 35 34 29 19 11 7 4 30 78 77 97 100 100 98 97 99 98 94 80 68 58 51 59 75 66 65 64 58 55 52 48 41 31 37 39 40 38 36 33 33 30 30 32
25 22 21 17 13 11 12 8 26 83 95 100 100 100 98 99 96 94 80 65 56 38 63 72 75 70 72 70 66 63 59 52 39 39 43 44 40 36 33 32 32 32 32 35
49 41 26 14 14 20 20 14 19 82 100 100 99 99 98 94 89 70 61 50 44 56 94 87 77 71 78 76 71 69 68 62 58 53 50 50 46 41 35 33 33 33 33 35
47 35 36 30 23 52 46 32 22 67 100 99 100 98 98 90 76 61 56 54 72 99 98 86 75 75 78 76 75 72 74 73 68 61 59 57 55 46 40 36 35 35 36 37

GFSNW_500_rhum_123.txt.gz
RH
56 54 70 92 97 100 97 86 47 12 8 7 6 5 5 6 9 9 14 15 17 23 28 33 34 40 46 48 67 64 48 60 100 90 100 100 95 100 100 88 96 98 97 100
45 44 47 50 40 36 27 16 11 8 7 6 6 5 5 6 8 9 13 18 19 19 20 26 27 27 26 36 43 59 64 65 96 97 92 98 100 100 100 100 100 100 94 100
34 44 50 33 22 18 14 11 9 8 7 7 6 6 6 6 7 8 10 19 23 26 27 28 29 30 38 36 35 50 73 73 96 90 98 86 92 99 100 100 98 100 98 100
37 44 46 31 23 20 16 11 10 9 8 8 8 8 7 6 6 7 8 10 19 23 28 30 34 34 22 25 30 42 54 60 70 84 93 84 83 77 90 100 99 98 100 100
23 42 47 41 28 22 19 14 12 11 10 9 9 9 9 8 7 6 7 7 9 17 23 28 26 30 33 40 47 46 42 47 54 61 80 79 67 62 53 87 89 88 99 99
20 32 50 47 39 29 21 18 14 12 11 10 10 10 10 10 9 8 7 7 7 8 13 22 19 20 25 28 33 39 53 45 37 43 52 55 52 53 52 45 46 52 63 71
16 18 34 53 46 42 28 22 18 14 12 12 12 12 12 12 12 11 9 8 8 7 7 13 19 18 19 23 31 29 27 37 48 44 36 53 41 49 51 51 41 39 36 39
8 16 17 34 54 57 45 30 22 16 14 13 13 14 15 14 13 13 12 10 9 8 9 8 8 10 13 17 17 20 23 24 28 31 39 36 35 39 40 35 36 36 30 35
7 6 14 18 36 54 62 49 30 20 16 15 13 14 16 17 16 15 14 13 12 11 10 10 9 8 9 10 10 12 14 22 23 23 24 27 31 30 26 24 26 30 33 30
15 10 6 13 19 34 56 64 47 26 19 17 14 13 16 19 19 18 16 15 15 14 13 12 11 10 10 9 9 10 11 12 16 21 22 26 22 21 22 21 25 20 26 31
22 18 12 6 16 20 39 59 68 42 25 18 17 15 14 17 20 21 20 17 16 16 16 15 14 13 12 11 11 10 9 8 8 10 11 12 15 17 20 21 23 29 28 29
18 22 23 17 7 29 21 48 57 68 42 27 20 17 15 15 18 20 22 22 16 17 17 16 16 15 14 14 14 13 11 12 11 8 7 7 6 6 7 8 11 12 16 21
21 20 28 26 19 18 34 29 52 63 74 50 26 21 18 15 16 18 20 23 24 17 18 18 17 16 15 14 14 14 14 14 14 13 14 13 10 11 9 7 6 6 6 7
26 22 29 32 28 13 37 39 40 53 72 77 48 25 21 19 17 18 21 24 26 26 19 20 20 20 19 17 15 15 14 14 14 14 14 14 14 15 15 14 14 12 11 9
52 46 27 30 45 23 14 41 44 52 63 78 77 44 27 22 20 19 23 27 30 29 28 21 20 22 22 22 19 17 16 15 15 15 14 13 13 14 14 14 14 14 14 14
58 56 39 32 41 44 20 15 45 53 56 84 94 69 39 28 22 21 24 32 36 36 32 33 24 20 22 24 23 21 18 17 16 15 14 13 13 14 15 16 17 17 18 18
66 60 40 37 45 56 41 16 16 51 53 62 86 94 63 40 31 27 25 32 40 45 40 35 36 27 21 23 25 24 20 18 17 16 16 14 14 15 17 19 19 20 20 20
76 50 44 36 39 44 47 34 10 17 56 60 64 86 90 68 45 38 33 32 38 46 48 40 36 31 24 23 24 28 23 20 19 18 17 16 16 18 21 22 23 23 23 23
67 44 42 41 34 32 42 39 21 7 36 56 54 86 100 92 80 58 45 36 39 44 50 47 37 34 32 28 26 29 30 23 20 20 20 19 18 21 23 26 27 26 24 24
60 48 45 41 33 30 31 26 29 12 7 45 53 88 100 97 97 80 59 49 43 45 50 52 41 39 38 49 46 36 33 32 26 21 21 22 21 22 24 27 28 28 25 26
56 48 52 48 37 28 26 22 17 19 8 11 58 81 99 98 98 99 92 68 51 50 54 51 46 47 38 45 51 50 49 39 34 27 24 23 23 27 30 28 28 27 26 26
54 49 41 38 29 22 19 15 13 12 16 7 36 89 100 99 98 97 96 92 69 55 56 56 52 55 41 44 51 46 44 41 37 34 31 26 26 30 32 33 32 28 29 28
62 37 24 17 17 16 7 5 8 11 13 11 8 58 100 100 99 98 100 92 77 63 55 54 61 63 59 48 57 55 52 48 45 43 42 39 30 32 36 36 35 33 35 31
29 17 13 11 8 8 7 13 22 31 26 22 16 10 45 97 100 99 96 93 80 64 51 54 81 77 73 61 62 60 59 56 52 49 46 43 37 41 41 40 41 42 41 34
18 14 11 9 9 10 14 18 22 26 30 23 17 15 19 86 99 100 96 89 70 49 51 64 92 94 94 75 70 70 65 61 59 59 57 55 54 50 47 48 50 47 44 38
12 10 9 10 11 10 16 24 21 20 24 24 22 21 21 54 99 86 78 69 61 63 70 82 98 96 100 84 78 79 75 69 65 66 68 67 62 58 54 52 50 49 43 42
11 10 16 21 18 20 35 33 39 33 27 22 34 29 21 46 92 84 69 68 75 82 79 94 97 98 99 95 86 85 83 75 72 71 71 71 66 57 52 48 48 48 44 45

GFSNW_500_rhum_126.txt.gz
RH
22 13 12 9 8 7 7 6 6 6 6 6 6 6 7 7 10 14 18 20 23 21 24 24 27 29 39 45 50 59 68 86 100 98 100 100 100 100 100 99 100 100 100 100
46 24 13 11 9 8 8 7 7 8 7 7 6 6 7 7 8 11 18 22 23 24 28 31 31 38 32 37 46 47 77 88 94 86 100 100 99 100 100 100 99 97 91 100
50 51 26 16 12 10 9 8 8 8 9 9 9 7 6 7 7 8 14 18 23 23 26 31 41 23 25 33 46 56 69 80 62 87 95 93 98 100 100 100 91 100 97 100
15 41 51 40 22 13 10 9 8 9 10 10 10 10 8 7 7 7 9 13 15 19 22 27 31 36 41 33 35 45 52 51 56 89 86 94 98 100 100 100 100 93 99 98
7 14 28 47 50 32 16 11 10 9 10 11 12 11 11 9 8 8 7 7 12 15 16 20 22 26 31 44 20 23 38 39 39 57 75 71 63 53 56 95 99 100 100 98
8 6 13 20 42 54 31 20 13 11 10 12 14 13 12 12 10 9 9 8 7 9 12 13 17 18 20 22 32 35 20 25 37 35 45 54 53 56 45 42 66 91 100 98
13 12 7 10 16 38 56 38 22 15 12 11 14 15 14 13 13 12 10 10 10 9 8 10 14 14 15 17 16 22 30 24 27 28 31 28 37 48 38 28 34 51 81 86
16 15 16 10 10 14 30 55 51 24 17 13 12 16 17 16 14 13 13 12 11 10 10 9 9 10 10 12 14 14 17 22 23 25 26 32 33 31 31 33 33 28 29 20
22 21 17 19 14 11 17 28 57 56 26 19 13 14 18 19 17 14 14 14 13 12 11 11 11 10 9 9 9 10 13 14 15 16 20 20 21 22 21 22 20 16 22 23
30 28 22 19 21 17 12 22 41 65 56 26 19 14 15 19 20 19 15 14 14 14 14 13 12 11 11 10 10 9 9 11 12 14 15 17 17 16 15 16 19 16 15 18
38 37 25 20 20 23 20 22 37 53 66 60 28 19 15 16 19 20 21 16 15 14 14 14 13 13 12 12 12 12 11 10 8 8 10 10 13 16 13 12 10 15 15 15
48 48 35 21 22 24 29 24 26 50 63 69 62 29 20 16 16 19 20 23 16 15 15 14 13 13 13 13 13 12 12 13 13 12 10 9 8 8 11 9 8 9 9 11
55 47 49 31 30 34 27 29 25 27 58 80 71 71 32 23 17 16 20 23 25 17 16 17 16 15 14 12 13 13 13 13 13 14 14 13 13 12 11 10 9 8 8 8
62 55 52 41 39 35 41 32 34 24 37 60 85 79 67 34 25 19 18 22 28 26 20 17 18 19 16 14 13 13 12 12 11 11 13 13 14 14 14 14 13 12 12 12
71 67 61 48 41 26 30 34 35 40 20 40 68 89 86 67 37 27 21 20 27 32 28 22 17 19 20 18 15 13 13 12 11 10 10 12 13 14 15 16 17 17 17 17
90 89 82 65 45 32 26 22 32 40 40 19 43 72 98 86 65 38 28 22 24 36 35 30 26 18 19 20 19 16 14 14 13 11 11 12 14 16 16 16 17 17 16 15
91 93 89 76 53 31 36 25 24 32 39 38 26 39 77 100 92 57 39 28 25 34 40 38 32 28 20 20 22 20 16 15 14 13 12 12 13 16 18 19 19 18 18 18
98 96 100 90 63 41 48 39 28 24 30 29 26 22 44 89 99 94 51 38 29 28 39 44 39 32 28 24 18 23 22 18 17 16 15 14 14 15 18 21 22 22 21 21
97 99 97 93 83 64 56 39 33 21 23 20 19 26 17 49 96 98 93 50 38 30 33 43 38 37 34 32 23 23 24 26 21 18 18 18 17 16 19 20 21 25 25 24
100 97 92 82 92 78 60 46 32 24 21 16 16 17 18 18 75 99 98 94 58 37 34 38 37 44 45 34 36 34 28 28 30 30 22 20 21 20 20 21 21 23 26 27
98 90 88 89 89 77 64 52 30 22 19 16 15 20 20 18 19 90 99 97 92 60 45 35 37 56 51 35 40 51 50 49 46 39 35 29 24 23 23 24 26 28 31 31
93 93 88 90 92 73 56 42 36 27 22 14 16 20 38 31 18 31 99 100 97 94 57 44 38 60 59 48 43 57 57 52 48 50 43 36 34 33 28 26 28 31 36 36
100 100 94 89 85 69 45 37 39 29 16 12 12 15 32 34 28 18 35 96 95 95 85 57 48 71 73 60 50 48 56 53 51 48 45 45 45 44 43 39 36 37 41 40
96 85 78 87 75 48 46 49 34 19 12 13 13 16 28 37 36 23 17 40 91 73 62 62 77 74 97 84 69 55 57 60 59 58 53 51 50 48 46 43 46 46 46 48
94 75 69 60 54 49 49 30 18 14 14 17 19 18 24 34 36 28 17 16 58 61 63 76 92 95 96 98 96 76 64 64 63 63 61 61 60 60 60 61 56 54 50 46
68 41 50 57 56 36 21 15 15 17 21 24 20 21 23 25 28 27 17 12 34 67 85 97 99 100 98 97 95 99 76 75 74 72 70 70 69 68 69 68 66 61 54 48
45 40 50 42 23 14 14 18 24 32 40 46 47 31 28 28 16 18 17 9 13 37 100 99 98 98 97 98 98 100 93 80 80 81 81 79 77 77 76 73 70 65 60 55

GFSNW_500_rhum_129.txt.gz
RH
33 23 17 11 9 8 8 9 9 9 8 7 7 7 7 8 9 15 20 23 26 30 32 31 28 31 32 38 70 86 78 91 100 100 100 100 100 100 100 99 100 99 89 98
18 38 31 20 14 11 9 9 10 10 10 10 8 8 8 8 9 10 14 22 23 27 30 31 25 25 20 35 52 54 66 87 90 90 95 98 96 100 100 100 100 83 82 100
21 18 36 42 26 17 12 10 10 11 12 11 11 9 9 8 8 10 10 12 19 24 30 39 34 25 30 34 33 33 36 60 68 85 93 96 95 100 100 100 94 98 91 100
10 14 21 27 46 30 21 14 11 11 13 13 12 11 10 9 9 9 9 9 11 14 18 22 36 19 22 24 23 29 38 41 48 62 58 54 91 97 100 100 99 97 100 100
16 14 10 21 27 45 43 24 16 13 12 14 15 13 12 11 10 10 10 8 9 10 12 15 18 24 33 18 16 19 24 26 21 26 51 46 55 55 85 99 99 99 99 97
26 23 14 12 12 24 31 51 36 19 14 14 15 16 14 12 12 11 10 10 9 9 9 10 11 15 19 27 30 17 16 21 25 17 23 36 34 33 55 72 95 99 98 98
29 28 28 19 16 11 14 33 47 48 23 16 14 16 18 15 13 13 12 11 11 11 10 9 9 9 10 13 18 24 21 22 24 23 16 23 29 24 30 49 76 100 90 96
32 35 31 35 28 16 13 12 24 54 56 28 17 15 18 19 16 14 14 13 12 12 11 11 10 9 8 9 9 12 15 16 18 20 19 18 23 22 25 47 46 68 42 47
40 36 34 35 38 22 17 17 13 28 63 57 32 19 16 19 20 18 14 14 14 13 13 12 12 11 11 9 8 9 10 11 14 20 15 15 16 13 16 22 30 40 35 31
56 42 38 41 46 36 27 22 19 15 20 67 65 34 20 17 20 22 19 15 15 14 14 13 13 12 12 12 12 10 8 8 10 12 12 13 12 10 12 14 18 23 29 26
69 65 58 59 52 47 41 29 20 20 17 18 59 72 39 22 18 20 22 21 16 16 15 14 13 14 13 13 12 13 12 12 10 8 8 9 7 8 8 12 12 13 13 14
78 75 68 63 53 52 49 37 23 21 23 19 16 49 80 46 25 20 20 23 24 16 17 16 14 13 14 14 13 13 13 14 14 13 12 8 6 6 7 8 8 7 7 8
69 70 68 68 64 62 56 49 30 16 15 22 21 19 45 86 59 30 21 20 22 26 17 19 18 16 14 13 14 13 12 13 13 14 14 14 13 11 10 9 9 8 8 9
59 62 73 76 75 76 76 78 48 20 14 15 24 23 21 44 88 70 34 24 22 23 27 20 19 20 18 15 14 13 13 12 12 13 13 14 15 15 15 15 14 14 14 14
48 57 69 81 83 82 88 87 68 43 25 14 16 28 28 22 42 96 78 40 27 23 25 28 24 19 20 20 16 13 12 12 11 12 13 14 15 16 16 15 15 15 16 16
43 35 38 52 74 82 78 88 74 59 40 27 14 22 29 31 26 37 95 79 42 30 25 28 30 28 19 21 23 18 15 13 11 11 12 14 16 17 17 17 16 16 16 17
46 48 30 38 54 72 83 84 78 66 54 40 22 18 23 26 26 24 38 85 86 43 30 28 32 33 28 22 26 20 21 17 14 13 11 11 14 16 19 20 20 19 19 19
51 67 40 38 52 74 86 84 76 63 52 47 35 21 22 24 24 26 23 33 75 90 39 30 31 38 37 34 33 23 25 26 22 16 15 14 13 13 16 19 21 22 22 22
56 74 56 32 55 68 76 80 73 67 59 52 44 34 25 21 18 18 19 19 24 67 88 38 28 35 39 41 44 38 31 25 27 26 19 18 17 16 16 17 18 17 18 19
82 52 50 34 58 58 77 82 76 68 68 62 60 53 34 27 20 14 14 16 17 24 61 87 33 26 42 48 45 39 33 28 26 29 30 24 20 19 20 20 19 20 20 22
83 50 47 36 44 51 65 60 58 64 68 85 87 65 46 29 21 15 11 8 12 19 23 60 58 29 40 75 56 43 39 40 38 33 33 35 34 29 22 22 23 23 24 26
73 61 54 47 48 50 52 49 58 92 94 91 91 66 49 36 22 14 11 10 6 10 18 32 58 62 44 78 70 56 48 57 60 62 59 58 51 43 36 30 30 30 29 31
82 60 52 46 47 40 51 62 91 100 98 99 89 59 42 31 21 15 11 11 9 6 13 20 41 80 98 78 79 76 62 62 65 62 60 56 54 49 42 42 45 43 41 38
78 58 41 36 34 47 77 76 90 96 97 93 78 47 30 20 15 13 11 11 9 5 8 15 16 44 97 95 84 74 73 61 60 66 69 57 54 53 51 50 49 47 46 45
88 77 53 33 40 54 80 97 99 100 98 76 45 27 17 13 12 11 12 12 10 5 8 21 16 15 53 96 100 94 78 71 61 59 68 70 64 61 60 58 57 57 57 61
82 62 45 58 72 78 87 100 100 100 79 51 31 18 14 12 12 12 14 14 12 12 22 30 28 18 18 74 96 100 94 81 77 73 66 73 77 72 68 66 64 64 65 67
64 47 74 77 80 87 99 100 98 62 35 20 15 13 15 15 14 12 19 19 26 23 24 36 35 23 16 37 93 97 99 95 88 85 90 74 76 77 76 76 74 73 73 72

GFSNW_500_rhum_132.txt.gz
RH
38 50 37 18 13 12 10 11 12 12 10 9 9 9 9 10 16 23 25 27 29 27 24 22 18 30 44 46 61 88 90 75 65 69 67 67 79 91 100 96 100 100 100 99
12 16 39 47 29 17 13 12 12 13 13 11 10 10 9 9 11 16 21 25 32 39 30 16 19 30 34 27 35 51 77 81 75 65 64 69 82 86 100 100 96 85 88 99
22 19 12 19 42 48 28 17 13 12 14 14 12 10 10 10 10 10 12 16 18 23 25 17 21 24 22 26 36 39 46 64 65 68 90 88 76 89 100 99 94 92 95 100
28 28 29 18 12 18 49 49 24 15 14 15 15 14 12 11 10 10 10 10 11 14 18 21 18 21 20 16 24 24 25 43 44 43 67 69 89 93 99 99 98 98 94 98
42 42 37 34 23 15 12 23 68 40 18 15 16 17 15 13 12 11 10 9 9 10 11 15 19 19 16 15 15 18 18 18 29 35 28 42 61 80 88 97 100 99 98 96
53 44 44 38 38 31 20 16 14 41 60 25 16 16 18 16 15 13 12 11 10 10 9 9 10 14 17 17 13 12 12 13 15 15 22 27 35 42 87 97 98 99 100 99
51 53 44 38 39 44 27 20 18 13 25 66 38 18 17 19 18 16 15 14 12 11 10 10 9 9 10 13 14 14 14 15 14 12 12 19 30 52 76 95 97 100 97 97
55 60 56 46 48 52 45 38 22 21 17 17 60 55 23 17 20 20 18 17 15 14 12 12 11 10 9 9 11 12 12 12 13 14 11 12 15 34 59 71 82 96 97 93
56 55 63 62 59 62 52 41 32 20 18 18 16 42 68 30 18 20 22 19 18 16 16 14 12 12 12 11 9 9 13 12 11 9 10 9 12 16 29 59 57 47 74 85
31 36 51 53 52 57 57 52 45 33 26 17 18 18 26 72 42 20 21 23 22 19 18 16 16 14 13 13 13 11 9 10 12 10 8 10 11 17 21 19 33 49 34 35
23 28 36 45 48 57 64 60 56 54 40 26 16 17 18 18 64 57 23 20 22 23 20 18 17 16 15 15 14 13 13 11 8 8 7 9 11 18 19 17 15 17 24 27
21 26 30 36 48 47 60 62 63 64 63 48 29 16 18 19 18 52 76 32 20 22 24 21 20 18 17 16 15 14 14 13 10 7 7 11 10 11 10 11 11 13 7 6
28 22 22 22 23 28 37 52 54 55 50 49 45 25 18 14 18 22 39 82 51 21 21 25 23 21 21 18 15 15 15 14 13 10 7 8 8 8 8 9 7 7 8 9
31 28 22 24 24 20 20 26 45 54 49 45 49 41 29 18 15 20 23 26 71 65 24 21 26 24 22 23 20 16 15 15 15 14 12 11 9 9 9 10 11 12 14 15
48 37 30 25 26 25 20 21 32 51 54 42 47 47 46 29 19 16 18 24 23 51 75 29 23 27 25 22 25 21 17 15 15 15 16 16 16 16 16 16 17 16 15 15
61 48 47 41 22 24 23 23 28 47 55 40 36 53 55 51 38 19 13 15 23 21 39 79 40 25 29 27 27 24 22 16 14 14 15 16 16 17 17 17 16 16 15 14
74 64 59 55 32 29 27 23 22 40 50 48 47 43 61 63 51 28 17 12 15 22 21 35 76 40 27 31 34 25 20 26 20 16 14 14 16 17 18 18 18 18 18 18
93 95 82 73 44 57 36 24 27 39 41 49 56 59 68 76 64 50 22 16 12 12 18 20 30 65 38 29 35 35 27 23 26 21 17 16 15 15 16 20 21 21 22 22
91 98 91 89 69 54 47 27 28 32 40 46 66 84 74 82 74 59 40 25 21 18 13 10 16 33 52 80 36 38 38 37 28 24 25 22 18 16 16 16 16 19 20 20
100 99 95 89 95 71 42 38 36 34 49 56 68 48 44 50 60 56 48 36 33 28 23 18 9 11 16 38 61 38 41 41 42 40 30 26 26 22 19 18 18 17 18 19
100 98 99 92 93 87 47 31 38 60 64 63 64 52 41 39 53 62 56 47 36 27 25 22 16 13 9 14 78 63 41 47 46 45 41 30 29 32 28 23 21 21 21 22
98 96 95 92 88 85 58 42 49 78 68 71 72 66 59 47 44 44 48 50 41 30 22 18 16 12 10 8 17 91 49 44 58 53 48 40 31 30 34 34 32 27 22 23
97 96 95 87 84 78 67 60 82 94 85 75 69 69 69 62 60 54 48 44 42 33 23 17 15 12 11 10 12 39 94 50 51 67 56 54 48 49 52 51 42 36 31 30
98 95 91 87 75 68 84 95 98 98 88 85 81 72 62 61 58 56 51 43 36 28 22 15 12 10 11 12 14 16 74 91 60 63 71 60 66 72 64 58 56 52 40 37
96 92 76 58 78 86 99 99 98 96 86 83 80 78 74 62 55 51 43 38 29 21 14 14 12 12 13 13 19 23 22 95 96 67 74 79 67 73 74 70 62 55 51 50
97 80 52 79 88 97 99 100 99 97 91 86 91 81 64 61 61 53 49 39 28 16 14 14 13 13 13 12 13 18 18 46 99 96 70 81 77 66 69 77 78 75 69 63
86 43 59 84 92 99 99 99 100 99 94 93 89 71 84 68 57 57 55 38 17 16 14 13 14 16 18 15 15 21 18 16 56 100 89 74 90 85 68 70 83 89 84 78

GFSNW_500_rhum_135.txt.gz
RH
31 30 17 14 35 50 33 15 13 14 14 11 10 10 9 10 18 26 29 34 24 16 19 29 36 29 37 44 56 60 59 77 87 82 77 71 84 73 79 99 100 100 98 98
37 40 31 28 19 16 32 44 29 16 15 15 13 10 10 10 10 12 22 29 24 16 15 20 26 22 34 38 50 63 62 63 80 73 77 98 100 91 91 99 100 100 94 99
46 46 43 39 36 21 19 20 43 41 18 15 16 15 11 10 10 10 10 15 18 18 14 16 18 17 21 29 28 50 56 51 55 64 67 83 92 100 99 98 99 100 98 98
46 46 45 43 44 34 20 18 16 24 61 29 16 17 17 14 11 11 11 10 11 15 18 18 18 18 17 20 20 21 27 36 32 30 46 52 67 80 99 98 99 100 99 97
48 52 49 46 51 53 42 34 22 17 17 55 49 20 17 18 17 14 12 11 11 10 11 14 16 15 13 14 17 16 14 15 17 26 25 28 38 56 100 98 99 99 98 97
44 48 52 57 62 58 51 36 29 22 16 16 29 62 34 18 19 19 18 16 13 12 11 11 12 12 12 11 13 14 12 10 10 10 16 19 32 60 94 99 99 98 99 98
32 28 31 40 55 50 52 47 34 33 33 18 15 18 52 55 21 19 21 20 18 16 14 12 12 11 10 10 10 10 11 10 8 10 11 13 33 61 95 96 99 98 99 98
31 22 25 29 37 49 51 54 52 44 51 36 22 15 16 30 64 34 20 21 22 19 18 17 15 12 12 11 9 10 9 9 8 8 10 14 21 32 54 85 96 97 95 96
25 23 19 19 23 35 44 50 56 55 53 48 48 31 17 16 19 62 57 24 21 23 21 20 18 17 15 13 12 10 9 9 7 6 9 12 19 23 34 50 57 74 76 87
25 20 17 15 17 21 25 33 42 47 45 46 47 45 31 17 15 18 44 66 37 22 24 24 21 18 17 16 14 14 11 8 6 5 6 10 14 22 24 20 18 40 39 37
29 30 24 15 17 16 17 20 23 30 35 42 39 43 40 32 19 15 17 24 67 60 28 23 24 22 19 17 15 15 15 8 5 6 7 9 14 17 22 18 16 13 12 19
40 37 27 21 20 20 16 16 19 19 25 30 37 37 41 36 34 22 16 16 19 38 72 39 23 24 23 20 17 14 14 14 7 6 7 8 11 15 17 13 11 10 7 7
53 49 52 39 44 28 24 22 20 24 24 25 30 32 34 36 41 38 23 18 15 17 23 68 56 25 24 24 22 16 13 11 11 8 8 9 12 14 13 8 10 6 7 9
66 61 69 59 56 36 39 28 23 25 21 25 31 26 31 28 38 40 40 26 20 15 14 22 52 66 26 25 26 24 16 14 12 11 7 8 7 7 8 7 7 8 10 13
94 89 87 79 76 67 55 46 28 27 25 20 30 28 28 26 28 38 46 47 27 21 18 13 19 32 63 38 28 29 22 20 15 14 12 9 8 7 7 8 10 12 14 14
92 91 92 88 79 75 71 63 53 31 36 21 32 36 37 31 31 34 41 46 43 29 23 16 13 18 29 52 64 30 28 23 24 20 16 15 15 13 12 13 14 16 16 16
87 90 91 96 91 88 85 84 76 66 46 38 28 27 32 24 27 23 28 32 46 41 26 24 20 11 12 18 36 49 30 30 27 25 19 16 15 16 17 18 18 18 18 18
85 91 95 92 94 88 86 85 90 93 61 49 35 23 24 24 24 24 21 23 24 32 28 25 24 22 18 12 11 40 58 37 34 31 24 23 16 16 16 18 19 19 19 19
79 82 91 95 93 84 89 84 88 91 94 82 66 47 34 34 34 35 29 27 25 27 30 28 26 22 25 20 18 12 29 58 56 37 39 30 26 21 16 16 17 19 21 21
83 81 89 95 99 95 88 87 88 86 97 89 80 57 46 44 43 40 43 40 40 36 36 33 25 22 22 19 20 18 15 12 47 65 39 44 35 27 25 20 18 16 17 19
83 92 100 100 91 98 92 79 85 89 97 94 87 66 56 56 52 51 52 49 40 30 32 43 29 23 24 20 16 15 14 12 10 18 68 46 45 41 35 27 25 20 19 19
96 98 98 97 92 83 75 56 71 96 92 94 96 95 88 83 68 60 51 43 34 34 33 33 32 30 28 24 19 16 14 11 10 9 18 70 52 47 46 41 30 29 27 22
99 96 96 96 80 67 55 48 78 97 91 97 97 100 80 68 68 61 49 45 32 35 34 41 43 35 27 23 21 19 16 10 8 9 8 32 82 56 49 50 47 36 34 37
97 96 94 92 84 59 64 83 98 96 98 97 97 79 73 67 62 62 52 48 37 43 52 60 54 45 37 34 26 19 17 9 8 9 8 16 84 96 50 55 59 50 43 42
97 96 88 65 57 76 82 87 98 97 95 100 98 94 81 70 68 57 56 57 50 61 69 55 46 46 46 39 29 18 16 12 9 10 9 13 52 100 92 51 66 62 63 73
98 87 78 72 71 75 90 99 98 96 98 99 98 99 82 75 66 55 63 56 76 83 65 58 56 51 48 42 29 22 18 15 11 12 10 21 34 100 100 74 62 72 67 80
90 71 80 78 88 85 96 97 98 97 100 100 100 93 90 69 59 59 65 88 81 72 64 60 56 51 47 39 33 26 21 18 13 14 12 14 26 87 100 88 68 88 83 70